[[{"header":{"parameterUnit":"m.s-1","parameterCategory":1,"la1":30.6,"la2":28.766,"lo1":-90.7593,"lo2":-88.6598,"dy":0.0162,"dx":0.0183,"nx":116,"ny":114,"refTime":"2023-07-05T06:00:00:Z","depth":0,"parameterNumber":2,"parameterNumberName":"U-component_of_WINDS"},"data":[0.0,0.0,0.0,0.0,0.0,0.0,0.0,0.0,0.0,0.0,0.0,0.0,0.0,0.0,0.0,0.0,0.0,0.0,0.0,0.0,0.0,0.0,0.0,0.0,0.0,0.0,0.0,0.0,0.0,0.0,0.0,0.0,0.0,0.0,0.0,0.0,0.0,0.0,0.0,0.0,0.0,0.0,0.0,0.0,0.0,0.0,0.0,0.0,0.0,0.0,0.0,0.0,0.0,0.0,0.0,0.0,0.0,0.0,0.0,0.0,0.0,0.0,0.0,0.0,0.0,0.0,0.0,0.0,0.0,0.0,0.0,0.0,0.0,0.0,0.0,0.0,0.0,0.0,0.0,0.0,0.0,0.0,0.0,0.0,0.0,0.0,0.0,0.0,0.0,0.0,0.0,0.0,0.0,0.0,0.0,0.0,0.0,0.0,0.0,0.0,0.0,0.0,0.0,0.0,0.0,0.0,0.0,0.0,0.0,0.0,0.0,0.0,0.0,0.0,0.0,0.0,0.0,0.0,0.0,0.0,0.0,0.0,0.0,0.0,0.0,0.0,0.0,0.0,0.0,0.0,0.0,0.0,0.0,0.0,0.0,0.0,0.0,0.0,0.0,0.0,0.0,0.0,0.0,0.0,0.0,0.0,0.0,0.0,0.0,0.0,0.0,0.0,0.0,0.0,0.0,0.0,0.0,0.0,0.0,0.0,0.0,0.0,0.0,0.0,0.0,0.0,0.0,0.0,0.0,0.0,0.0,0.0,0.0,0.0,0.0,0.0,0.0,0.0,0.0,0.0,0.0,0.0,0.0,0.0,0.0,0.0,0.0,0.0,0.0,0.0,0.0,0.0,0.0,0.0,0.0,0.0,0.0,0.0,0.0,0.0,0.0,0.0,0.0,0.0,0.0,0.0,0.0,0.0,0.0,0.0,0.0,0.0,0.0,0.0,0.0,0.0,0.0,0.0,0.0,0.0,0.0,0.0,0.0,0.0,0.0,0.0,0.0,0.0,0.0,0.0,0.0,0.0,0.0,0.0,0.0,0.0,0.0,0.0,0.0,0.0,0.0,0.0,0.0,0.0,0.0,0.0,0.0,0.0,0.0,0.0,0.0,0.0,0.0,0.0,0.0,0.0,0.0,0.0,0.0,0.0,0.0,0.0,0.0,0.0,0.0,0.0,0.0,0.0,0.0,0.0,0.0,0.0,0.0,0.0,0.0,0.0,0.0,0.0,0.0,0.0,0.0,0.0,0.0,0.0,0.0,0.0,0.0,0.0,0.0,0.0,0.0,0.0,0.0,0.0,0.0,0.0,0.0,0.0,0.0,0.0,0.0,0.0,0.0,0.0,0.0,0.0,0.0,0.0,0.0,0.0,0.0,0.0,0.0,0.0,0.0,0.0,0.0,0.0,0.0,0.0,0.0,0.0,0.0,0.0,0.0,0.0,0.0,0.0,0.0,0.0,0.0,0.0,0.0,0.0,0.0,0.0,0.0,0.0,0.0,0.0,0.0,0.0,0.0,0.0,0.0,0.0,0.0,0.0,0.0,0.0,0.0,0.0,0.0,0.0,0.0,0.0,0.0,0.0,0.0,0.0,0.0,0.0,0.0,0.0,0.0,0.0,0.0,0.0,0.0,0.0,0.0,0.0,0.0,0.0,0.0,0.0,0.0,0.0,0.0,0.0,0.0,0.0,0.0,0.0,0.0,0.0,0.0,0.0,0.0,0.0,0.0,0.0,0.0,0.0,0.0,0.0,0.0,0.0,0.0,0.0,0.0,0.0,0.0,0.0,0.0,0.0,0.0,0.0,0.0,0.0,0.0,0.0,0.0,0.0,0.0,0.0,0.0,0.0,0.0,0.0,0.0,0.0,0.0,0.0,0.0,0.0,0.0,0.0,0.0,0.0,0.0,0.0,0.0,0.0,0.0,0.0,0.0,0.0,0.0,0.0,0.0,0.0,0.0,0.0,0.0,0.0,0.0,0.0,0.0,0.0,0.0,0.0,0.0,0.0,0.0,0.0,0.0,0.0,0.0,0.0,0.0,0.0,0.0,0.0,0.0,0.0,0.0,0.0,0.0,0.0,0.0,0.0,0.0,0.0,0.0,0.0,0.0,0.0,0.0,0.0,0.0,0.0,0.0,0.0,0.0,0.0,0.0,0.0,0.0,0.0,0.0,0.0,0.0,0.0,0.0,0.0,0.0,0.0,0.0,0.0,0.0,0.0,0.0,0.0,0.0,0.0,0.0,0.0,0.0,0.0,0.0,0.0,0.0,0.0,0.0,0.0,0.0,0.0,0.0,0.0,0.0,0.0,0.0,0.0,0.0,0.0,0.0,0.0,0.0,0.0,0.0,0.0,0.0,0.0,0.0,0.0,0.0,0.0,0.0,0.0,0.0,0.0,0.0,0.0,0.0,0.0,0.0,0.0,0.0,0.0,0.0,0.0,0.0,0.0,0.0,0.0,0.0,0.0,0.0,0.0,0.0,0.0,0.0,0.0,0.0,0.0,0.0,0.0,0.0,0.0,0.0,0.0,0.0,0.0,0.0,0.0,0.0,0.0,0.0,0.0,0.0,0.0,0.0,0.0,0.0,0.0,0.0,0.0,0.0,0.0,0.0,0.0,0.0,0.0,0.0,0.0,0.0,0.0,0.0,0.0,0.0,0.0,0.0,0.0,0.0,0.0,0.0,0.0,0.0,0.0,0.0,0.0,0.0,0.0,0.0,0.0,0.0,0.0,0.0,0.0,0.0,0.0,0.0,0.0,0.0,0.0,0.0,0.0,0.0,0.0,0.0,0.0,0.0,0.0,0.0,0.0,0.0,0.0,0.0,0.0,0.0,0.0,0.0,0.0,0.0,0.0,0.0,0.0,0.0,0.0,0.0,0.0,0.0,0.0,0.0,0.0,0.0,0.0,0.0,0.0,0.0,0.0,0.0,0.0,0.0,0.0,0.0,0.0,0.0,0.0,0.0,0.0,0.0,0.0,0.0,0.0,0.0,0.0,0.0,0.0,0.0,0.0,0.0,0.0,0.0,0.0,0.0,0.0,0.0,0.0,0.0,0.0,0.0,0.0,0.0,0.0,0.0,0.0,0.0,0.0,0.0,0.0,0.0,0.0,0.0,0.0,0.0,0.0,0.0,0.0,0.0,0.0,0.0,0.0,0.0,0.0,0.0,0.0,0.0,0.0,0.0,0.0,0.0,0.0,0.0,0.0,0.0,0.0,0.0,0.0,0.0,0.0,0.0,0.0,0.0,0.0,0.0,0.0,0.0,0.0,0.0,0.0,0.0,0.0,0.0,0.0,0.0,0.0,0.0,0.0,0.0,0.0,0.0,0.0,0.0,0.0,0.0,0.0,0.0,0.0,0.0,0.0,0.0,0.0,0.0,0.0,0.0,0.0,0.0,0.0,0.0,0.0,0.0,0.0,0.0,0.0,0.0,0.0,0.0,0.0,0.0,0.0,0.0,0.0,0.0,0.0,0.0,0.0,0.0,0.0,0.0,0.0,0.0,0.0,0.0,0.0,0.0,0.0,0.0,0.0,0.0,0.0,0.0,0.0,0.0,0.0,0.0,0.0,0.0,0.0,0.0,0.0,0.0,0.0,0.0,0.0,0.0,0.0,0.0,0.0,0.0,0.0,0.0,0.0,0.0,0.0,0.0,0.0,0.0,0.0,0.0,0.0,0.0,0.0,0.0,0.0,0.0,0.0,0.0,0.0,0.0,0.0,0.0,0.0,0.0,0.0,0.0,0.0,0.0,0.0,0.0,0.0,0.0,0.0,0.0,0.0,0.0,0.0,0.0,0.0,0.0,0.0,0.0,0.0,0.0,0.0,0.0,0.0,0.0,0.0,0.0,0.0,0.0,0.0,0.0,0.0,0.0,0.0,0.0,0.0,0.0,0.0,0.0,0.0,0.0,0.0,0.0,0.0,0.0,0.0,0.0,0.0,0.0,0.0,0.0,0.0,0.0,0.0,0.0,0.0,0.0,0.0,0.0,0.0,0.0,0.0,0.0,0.0,0.0,0.0,0.0,0.0,0.0,0.0,0.0,0.0,0.0,0.0,0.0,0.0,0.0,0.0,0.0,0.0,0.0,0.0,0.0,0.0,0.0,0.0,0.0,0.0,0.0,0.0,0.0,0.0,0.0,0.0,0.0,0.0,0.0,0.0,0.0,0.0,0.0,0.0,0.0,0.0,0.0,0.0,0.0,0.0,0.0,0.0,0.0,0.0,0.0,0.0,0.0,0.0,0.0,0.0,0.0,0.0,0.0,0.0,0.0,0.0,0.0,0.0,0.0,0.0,0.0,0.0,0.0,0.0,0.0,0.0,0.0,0.0,0.0,0.0,0.0,0.0,0.0,0.0,0.0,0.0,0.0,0.0,0.0,0.0,0.0,0.0,0.0,0.0,0.0,0.0,0.0,0.0,0.0,0.0,0.0,0.0,0.0,0.0,0.0,0.0,0.0,0.0,0.0,0.0,0.0,0.0,0.0,0.0,0.0,0.0,0.0,0.0,0.0,0.0,0.0,0.0,0.0,0.0,0.0,0.0,0.0,0.0,0.0,0.0,0.0,0.0,0.0,0.0,0.0,0.0,0.0,0.0,0.0,0.0,0.0,0.0,0.0,0.0,0.0,0.0,0.0,0.0,0.0,0.0,0.0,0.0,0.0,0.0,0.0,0.0,0.0,0.0,0.0,0.0,0.0,0.0,0.0,0.0,0.0,0.0,0.0,0.0,0.0,0.0,0.0,0.0,0.0,0.0,0.0,0.0,0.0,0.0,0.0,0.0,0.0,0.0,0.0,0.0,0.0,0.0,0.0,0.0,0.0,0.0,0.0,0.0,0.0,0.0,0.0,0.0,0.0,0.0,0.0,0.0,0.0,0.0,0.0,0.0,0.0,0.0,0.0,0.0,0.0,0.0,0.0,0.0,0.0,0.0,0.0,0.0,0.0,0.0,0.0,0.0,0.0,0.0,0.0,0.0,0.0,0.0,0.0,0.0,0.0,0.0,0.0,0.0,0.0,0.0,0.0,0.0,0.0,0.0,0.0,0.0,0.0,0.0,0.0,0.0,0.0,0.0,0.0,0.0,0.0,0.0,0.0,0.0,0.0,0.0,0.0,0.0,0.0,0.0,0.0,0.0,0.0,0.0,0.0,0.0,0.0,0.0,0.0,0.0,0.0,0.0,0.0,0.0,0.0,0.0,0.0,0.0,0.0,0.0,0.0,0.0,0.0,0.0,0.0,0.0,0.0,0.0,0.0,0.0,0.0,0.0,0.0,0.0,0.0,0.0,0.0,0.0,0.0,0.0,0.0,0.0,0.0,0.0,0.0,0.0,0.0,0.0,0.0,0.0,0.0,0.0,0.0,0.0,0.0,0.0,0.0,0.0,0.0,0.0,0.0,0.0,0.0,0.0,0.0,0.0,0.0,0.0,0.0,0.0,0.0,0.0,0.0,0.0,0.0,0.0,0.0,0.0,0.0,0.0,0.0,0.0,0.0,0.0,0.0,0.0,0.0,0.0,0.0,0.0,0.0,0.0,0.0,0.0,0.0,0.0,0.0,0.0,0.0,0.0,0.0,0.0,0.0,0.0,0.0,0.0,0.0,0.0,0.0,0.0,0.0,0.0,0.0,0.0,0.0,0.0,0.0,0.0,0.0,0.0,0.0,0.0,0.0,0.0,0.0,0.0,0.0,0.0,0.0,0.0,0.0,0.0,0.0,0.0,0.0,0.0,0.0,0.0,0.0,0.0,0.0,0.0,0.0,0.0,0.0,0.0,0.0,0.0,0.0,0.0,0.0,0.0,0.0,0.0,0.0,0.0,0.0,0.0,0.0,0.0,0.0,0.0,0.0,0.0,0.0,0.0,0.0,0.0,0.0,0.0,0.0,0.0,0.0,0.0,0.0,0.0,0.0,0.0,0.0,0.0,0.0,0.0,0.0,0.0,0.0,0.0,0.0,0.0,0.0,0.0,0.0,0.0,0.0,0.0,0.0,0.0,0.0,0.0,0.0,0.0,0.0,0.0,0.0,0.0,0.0,0.0,0.0,0.0,0.0,0.0,0.0,0.0,0.0,0.0,0.0,0.0,0.0,0.0,0.0,0.0,-2.9319,0.0,0.0,0.0,0.0,0.0,0.0,0.0,0.0,0.0,0.0,0.0,0.0,0.0,0.0,0.0,0.0,0.0,0.0,0.0,0.0,0.0,0.0,0.0,0.0,0.0,0.0,0.0,0.0,0.0,0.0,0.0,0.0,0.0,0.0,0.0,0.0,0.0,0.0,0.0,0.0,0.0,0.0,0.0,0.0,0.0,0.0,0.0,0.0,0.0,0.0,0.0,0.0,0.0,0.0,0.0,0.0,0.0,0.0,0.0,0.0,0.0,0.0,0.0,0.0,0.0,0.0,0.0,0.0,0.0,0.0,0.0,0.0,0.0,0.0,0.0,0.0,0.0,0.0,0.0,0.0,0.0,0.0,0.0,0.0,0.0,0.0,0.0,0.0,0.0,0.0,0.0,0.0,0.0,0.0,0.0,0.0,0.0,0.0,0.0,0.0,0.0,0.0,0.0,0.0,0.0,0.0,0.0,0.0,0.0,0.0,0.0,0.0,0.0,0.0,0.0,0.0,-2.9259,0.0,0.0,0.0,0.0,0.0,0.0,0.0,0.0,0.0,0.0,0.0,0.0,0.0,0.0,0.0,0.0,0.0,0.0,0.0,0.0,0.0,0.0,0.0,0.0,0.0,0.0,0.0,0.0,0.0,0.0,0.0,0.0,0.0,0.0,0.0,0.0,0.0,0.0,0.0,0.0,0.0,0.0,0.0,0.0,0.0,0.0,0.0,0.0,0.0,0.0,0.0,0.0,0.0,0.0,0.0,0.0,0.0,0.0,0.0,0.0,0.0,0.0,0.0,0.0,0.0,0.0,0.0,0.0,0.0,0.0,0.0,0.0,0.0,0.0,0.0,0.0,0.0,0.0,0.0,0.0,0.0,0.0,0.0,0.0,0.0,0.0,0.0,0.0,0.0,0.0,0.0,0.0,0.0,0.0,0.0,0.0,0.0,0.0,0.0,0.0,0.0,0.0,0.0,0.0,0.0,0.0,0.0,0.0,-2.9316,-2.9346,-2.9346,-2.9346,-2.9504,-2.9782,-3.0035,-2.9759,-2.9076,0.0,0.0,0.0,0.0,0.0,0.0,0.0,0.0,0.0,0.0,0.0,0.0,0.0,0.0,0.0,0.0,0.0,0.0,0.0,0.0,0.0,0.0,0.0,0.0,0.0,0.0,0.0,0.0,0.0,0.0,0.0,0.0,0.0,0.0,0.0,0.0,0.0,0.0,0.0,0.0,0.0,0.0,0.0,0.0,0.0,0.0,0.0,0.0,0.0,0.0,0.0,0.0,0.0,0.0,0.0,0.0,0.0,0.0,0.0,0.0,0.0,0.0,0.0,0.0,0.0,0.0,0.0,0.0,0.0,0.0,0.0,0.0,0.0,0.0,0.0,0.0,0.0,0.0,0.0,0.0,0.0,0.0,0.0,0.0,0.0,0.0,0.0,-2.8344,-2.7377,0.0,0.0,0.0,0.0,0.0,0.0,0.0,0.0,0.0,0.0,0.0,0.0,0.0,-2.9157,-2.9111,-2.9415,-2.9532,-2.9542,-2.9787,-2.988,-2.988,-2.988,-3.012,-3.0567,-3.0611,0.0,-2.9593,-2.9031,0.0,0.0,0.0,0.0,0.0,0.0,0.0,0.0,0.0,0.0,0.0,0.0,0.0,0.0,0.0,0.0,0.0,0.0,0.0,0.0,0.0,0.0,0.0,0.0,0.0,0.0,0.0,0.0,0.0,0.0,0.0,0.0,0.0,0.0,0.0,0.0,0.0,0.0,0.0,0.0,0.0,0.0,0.0,0.0,0.0,0.0,0.0,0.0,0.0,0.0,0.0,0.0,0.0,0.0,0.0,0.0,0.0,0.0,0.0,0.0,0.0,0.0,0.0,0.0,0.0,0.0,0.0,0.0,0.0,0.0,0.0,0.0,0.0,0.0,0.0,0.0,0.0,0.0,0.0,0.0,0.0,0.0,0.0,0.0,0.0,-2.8385,-2.8511,-2.7753,-2.8063,-2.8088,0.0,0.0,0.0,0.0,0.0,0.0,0.0,0.0,0.0,-2.9101,-2.9322,-2.9541,-2.965,-2.9775,-2.997,-3.0233,-3.0338,-3.0522,-3.077,-3.077,-3.0884,-3.1071,-3.1071,-3.0907,-3.0631,-3.0004,-2.9497,-2.9074,0.0,0.0,0.0,0.0,-2.8375,-2.8615,0.0,0.0,0.0,0.0,0.0,0.0,0.0,0.0,0.0,0.0,0.0,0.0,0.0,0.0,0.0,0.0,0.0,0.0,0.0,0.0,0.0,0.0,0.0,0.0,0.0,0.0,0.0,0.0,0.0,0.0,0.0,0.0,0.0,0.0,0.0,0.0,0.0,0.0,0.0,0.0,0.0,0.0,0.0,0.0,0.0,0.0,0.0,0.0,0.0,0.0,0.0,0.0,0.0,0.0,0.0,0.0,0.0,0.0,0.0,0.0,0.0,0.0,0.0,0.0,0.0,0.0,0.0,0.0,0.0,0.0,0.0,0.0,0.0,0.0,0.0,0.0,0.0,-2.8398,-2.8888,-2.8419,-2.8914,-2.9016,0.0,0.0,0.0,0.0,0.0,0.0,-2.819,-2.8693,-2.907,-2.9272,-2.9692,-3.0047,-3.017,-3.0294,-3.0522,-3.0864,-3.0864,-3.104,-3.1381,-3.1381,-3.1505,-3.1723,-3.1723,-3.1857,-3.2027,-3.0983,-3.0464,-3.0235,-2.9758,-2.9511,-2.9515,-2.9542,-2.9658,-2.9819,0.0,0.0,0.0,0.0,0.0,0.0,0.0,0.0,0.0,0.0,0.0,0.0,0.0,0.0,0.0,0.0,0.0,0.0,0.0,0.0,0.0,0.0,0.0,0.0,0.0,0.0,0.0,0.0,0.0,0.0,0.0,0.0,0.0,0.0,0.0,0.0,0.0,0.0,0.0,0.0,0.0,0.0,0.0,0.0,0.0,0.0,0.0,0.0,0.0,0.0,0.0,0.0,0.0,0.0,0.0,0.0,0.0,0.0,0.0,0.0,0.0,0.0,0.0,0.0,0.0,0.0,0.0,0.0,0.0,0.0,0.0,0.0,0.0,0.0,0.0,0.0,0.0,0.0,0.0,-2.9409,-2.9732,0.0,0.0,0.0,0.0,-2.7957,-2.8418,-2.8788,-2.8943,-2.9415,-2.9723,-2.9964,-3.043,-3.0626,-3.0646,-3.1091,-3.1319,-3.134,-3.134,-3.135,-3.1381,-3.1381,-3.1847,-3.2607,-3.2607,-3.3151,-3.3862,-3.2089,-3.0952,-3.0297,-3.0255,-3.0107,-2.9963,-3.0171,-3.0548,-3.0988,0.0,0.0,0.0,0.0,0.0,0.0,0.0,0.0,0.0,0.0,0.0,0.0,0.0,0.0,0.0,0.0,0.0,0.0,0.0,0.0,0.0,0.0,0.0,0.0,0.0,0.0,0.0,0.0,0.0,0.0,0.0,0.0,0.0,0.0,0.0,0.0,0.0,0.0,0.0,0.0,0.0,0.0,0.0,0.0,0.0,0.0,0.0,0.0,0.0,0.0,0.0,0.0,0.0,0.0,0.0,0.0,0.0,0.0,0.0,0.0,0.0,0.0,0.0,0.0,0.0,0.0,0.0,0.0,0.0,0.0,0.0,0.0,0.0,0.0,0.0,0.0,0.0,0.0,0.0,-2.9466,-2.9637,0.0,0.0,-2.9267,-2.9273,-2.9045,-2.9375,-2.9672,-3.0089,-3.0266,-3.0514,-3.0874,-3.104,-3.1267,-3.1557,-3.1723,-3.2095,-3.2664,-3.2664,-3.282,-3.3167,-3.3167,-3.3285,-3.3586,-3.3586,-3.3772,-3.408,-3.3368,-3.297,-3.2727,-3.2727,-3.2679,-3.2667,-3.2721,-3.2633,-3.254,0.0,0.0,0.0,0.0,0.0,0.0,0.0,0.0,0.0,0.0,0.0,0.0,0.0,0.0,0.0,0.0,0.0,0.0,0.0,0.0,0.0,0.0,0.0,0.0,0.0,0.0,0.0,0.0,0.0,0.0,0.0,0.0,0.0,0.0,0.0,0.0,0.0,0.0,0.0,0.0,0.0,0.0,-3.0097,0.0,0.0,0.0,0.0,0.0,0.0,0.0,0.0,0.0,0.0,0.0,0.0,0.0,0.0,0.0,0.0,0.0,0.0,0.0,0.0,0.0,0.0,0.0,0.0,0.0,0.0,0.0,0.0,0.0,0.0,0.0,0.0,0.0,0.0,0.0,-2.9613,-2.9416,-2.9634,-2.9731,-2.95,-2.9835,-3.0047,-3.0047,-3.0317,-3.0594,-3.0905,-3.106,-3.1288,-3.1588,-3.1899,-3.2188,-3.2489,-3.2644,-3.3027,-3.3606,-3.3831,-3.4069,-3.437,-3.4455,-3.461,-3.4755,-3.4755,-3.4838,-3.4993,-3.4993,-3.4993,-3.4931,-3.431,-3.4132,-3.4132,-3.4132,-3.3875,-3.3606,0.0,0.0,0.0,0.0,0.0,0.0,0.0,0.0,0.0,0.0,0.0,0.0,0.0,0.0,0.0,0.0,0.0,0.0,0.0,0.0,0.0,0.0,0.0,0.0,0.0,0.0,0.0,0.0,0.0,0.0,0.0,0.0,0.0,0.0,0.0,0.0,0.0,0.0,0.0,0.0,0.0,0.0,-3.0269,0.0,0.0,0.0,0.0,0.0,0.0,0.0,0.0,0.0,0.0,0.0,0.0,0.0,0.0,0.0,0.0,0.0,0.0,0.0,0.0,0.0,0.0,0.0,0.0,0.0,0.0,0.0,0.0,0.0,0.0,0.0,0.0,0.0,-2.8752,-2.9284,-2.9634,-2.9459,-2.9774,-2.9953,-2.9773,-3.0338,-3.0708,-3.0708,-3.1133,-3.1402,-3.1422,-3.1836,-3.2039,-3.205,-3.2965,-3.343,-3.3441,-3.3955,-3.4194,-3.4165,-3.4671,-3.4878,-3.4899,-3.5273,-3.5707,-3.6132,-3.6132,-3.639,-3.6804,-3.6804,-3.6804,-3.6629,-3.4848,-3.4155,-3.4155,-3.4155,-3.4204,-3.4194,0.0,0.0,0.0,0.0,0.0,0.0,0.0,0.0,0.0,0.0,0.0,0.0,0.0,0.0,0.0,0.0,0.0,0.0,0.0,0.0,0.0,0.0,0.0,0.0,0.0,0.0,0.0,0.0,0.0,0.0,0.0,0.0,0.0,0.0,0.0,0.0,0.0,0.0,0.0,0.0,0.0,0.0,-2.9642,0.0,0.0,0.0,0.0,0.0,0.0,0.0,0.0,0.0,0.0,0.0,0.0,0.0,0.0,0.0,0.0,0.0,0.0,0.0,0.0,0.0,0.0,0.0,0.0,0.0,0.0,0.0,0.0,0.0,0.0,0.0,0.0,-2.9111,-2.9381,-2.9713,-2.9922,-2.9839,-3.0244,-3.0503,-3.0431,-3.0897,-3.1184,-3.1184,-3.1609,-3.2002,-3.2344,-3.2768,-3.3161,-3.3503,-3.4072,-3.4538,-3.4859,-3.5314,-3.5718,-3.6049,-3.6183,-3.6235,-3.6246,-3.637,-3.6494,-3.6618,-3.6618,-3.668,-3.6804,-3.6804,-3.6804,-3.6753,-3.6246,-3.6049,-3.6049,-3.6049,-3.5842,-3.55,0.0,0.0,0.0,0.0,0.0,0.0,0.0,0.0,0.0,0.0,0.0,0.0,0.0,0.0,0.0,0.0,0.0,0.0,0.0,0.0,0.0,0.0,0.0,0.0,0.0,0.0,0.0,0.0,0.0,0.0,0.0,0.0,0.0,0.0,0.0,0.0,0.0,0.0,0.0,0.0,0.0,0.0,-2.9945,-3.0184,-3.0175,-3.0057,-3.0096,-2.9974,-2.9672,-2.9052,0.0,0.0,0.0,0.0,0.0,0.0,0.0,0.0,0.0,0.0,0.0,0.0,0.0,0.0,0.0,0.0,0.0,0.0,0.0,0.0,0.0,0.0,0.0,0.0,-2.8956,-2.9568,-3.0037,-3.0057,-3.0067,-3.0263,-3.0522,-3.076,-3.0957,-3.1567,-3.194,-3.194,-3.253,-3.3006,-3.3275,-3.3896,-3.4352,-3.4631,-3.5273,-3.5738,-3.5997,-3.6266,-3.6535,-3.6804,-3.7001,-3.7198,-3.7384,-3.757,-3.7767,0.0,-3.7943,-3.7943,-3.7943,-3.7943,-3.7943,0.0,0.0,0.0,0.0,0.0,-3.6639,-3.6359,0.0,0.0,0.0,0.0,0.0,0.0,0.0,0.0,0.0,0.0,0.0,0.0,0.0,0.0,0.0,0.0,0.0,0.0,0.0,0.0,0.0,0.0,0.0,0.0,0.0,0.0,0.0,0.0,0.0,0.0,0.0,0.0,0.0,0.0,0.0,0.0,0.0,0.0,0.0,0.0,0.0,0.0,-3.0649,-2.9998,-3.0631,-3.1777,-3.0858,-3.0399,-3.0217,-3.0201,0.0,0.0,0.0,0.0,0.0,0.0,0.0,0.0,0.0,0.0,0.0,0.0,0.0,0.0,0.0,0.0,0.0,0.0,0.0,0.0,0.0,0.0,0.0,0.0,-2.96,-3.0212,-3.0626,-3.0377,-3.0305,-3.0719,-3.0853,-3.1081,-3.1485,-3.2354,-3.2882,-3.2882,-3.371,-3.4227,-3.4227,0.0,0.0,0.0,0.0,-3.6877,-3.6877,-3.698,-3.7032,-3.7043,-3.7508,-3.7933,-3.8347,-3.875,-3.9086,-3.9468,-3.9468,-3.9468,-3.9468,-3.9468,-3.9468,-3.9313,-3.7746,-3.7115,-3.7115,-3.7115,-3.7115,-3.7105,0.0,0.0,0.0,0.0,0.0,0.0,0.0,0.0,0.0,0.0,0.0,0.0,0.0,0.0,0.0,0.0,0.0,0.0,0.0,0.0,0.0,0.0,0.0,0.0,0.0,0.0,0.0,0.0,0.0,0.0,0.0,0.0,0.0,0.0,0.0,0.0,0.0,0.0,0.0,0.0,0.0,0.0,-3.0393,-3.1024,-3.0443,-2.9489,-3.0923,-3.0732,-2.9754,-2.9669,-2.9446,-2.9066,-2.8068,0.0,0.0,0.0,0.0,0.0,0.0,0.0,0.0,0.0,0.0,0.0,0.0,0.0,0.0,0.0,0.0,0.0,0.0,0.0,0.0,-2.8956,-2.987,-3.0584,-3.0677,-3.0936,-3.1143,-3.1236,-3.1888,-3.2375,-3.2457,-3.3285,-3.3803,-3.3803,-3.4652,-3.5159,-3.5159,-3.6039,0.0,-3.6535,-3.7074,-3.7363,-3.7363,-3.8088,-3.8383,-3.8393,0.0,0.0,-3.9278,-3.9292,-3.9385,-3.9468,-3.9468,-3.9468,-3.9468,-3.9468,-3.9468,-3.9506,-3.9075,-3.9009,-3.9009,-3.9009,-3.9009,-3.8957,0.0,0.0,0.0,0.0,0.0,0.0,0.0,0.0,0.0,0.0,0.0,0.0,0.0,0.0,0.0,0.0,0.0,0.0,0.0,0.0,0.0,0.0,0.0,0.0,0.0,0.0,0.0,0.0,0.0,0.0,0.0,0.0,0.0,0.0,0.0,0.0,0.0,0.0,0.0,0.0,0.0,0.0,-3.1811,-3.2541,-3.202,-3.1014,-3.2101,-3.1638,-3.0603,-3.0554,-3.0204,-2.959,-2.8557,-2.8166,-2.7947,0.0,0.0,0.0,0.0,0.0,0.0,0.0,0.0,0.0,0.0,0.0,0.0,0.0,0.0,-2.8015,0.0,0.0,-2.9419,-2.9797,-3.0535,-3.1112,-3.1329,-3.1764,-3.2054,-3.2054,-3.2457,-3.2903,-3.3358,-3.401,-3.4507,-3.4724,-3.5387,-3.5863,-3.6101,-3.6773,-3.7146,-3.7146,-3.7808,-3.8171,-3.8171,-3.8854,-3.9127,-3.9127,-3.9354,-3.9592,-3.9889,-3.9889,-4.0003,-4.021,-4.021,-4.021,-4.021,-4.021,-4.021,-4.021,-4.021,-3.993,-3.9468,-3.9468,-3.9468,-3.9437,0.0,0.0,0.0,0.0,0.0,0.0,0.0,0.0,0.0,0.0,0.0,0.0,0.0,0.0,0.0,0.0,0.0,0.0,0.0,0.0,0.0,0.0,0.0,0.0,0.0,0.0,0.0,0.0,0.0,0.0,0.0,0.0,0.0,0.0,0.0,0.0,0.0,0.0,0.0,0.0,0.0,0.0,-3.3254,-3.3922,-3.3775,-3.3201,-3.3201,-3.2488,-3.1575,-3.1575,-3.0888,-2.986,-2.9114,-2.8923,-2.8701,-2.7299,-2.725,0.0,0.0,0.0,0.0,0.0,0.0,0.0,0.0,0.0,-2.7515,-2.8169,-2.8311,-2.8526,-2.9178,-2.9587,-3.0057,-3.0741,-3.1205,-3.1661,-3.206,-3.2514,-3.2923,-3.311,-3.312,-3.3441,-3.4248,-3.4805,-3.52,-3.5656,-3.6121,-3.6546,-3.6918,-3.7457,-3.7757,-3.7757,-3.8486,-3.891,-3.891,-3.9375,-3.9671,-3.9612,-3.9765,-3.9992,-4.0355,-4.0355,-4.0541,-4.0872,-4.0872,-4.0872,-4.0872,-4.0872,-4.0872,-4.0872,-4.0872,-4.0437,-3.9796,-3.9796,-3.9796,-3.9785,0.0,0.0,0.0,0.0,0.0,0.0,0.0,0.0,0.0,0.0,0.0,0.0,0.0,0.0,0.0,0.0,0.0,0.0,0.0,0.0,0.0,0.0,0.0,0.0,0.0,0.0,0.0,0.0,0.0,0.0,0.0,0.0,0.0,0.0,0.0,0.0,0.0,0.0,0.0,0.0,0.0,0.0,-3.3289,-3.4314,-3.4081,-3.3201,-3.3201,-3.2488,-3.1575,-3.1575,-3.0888,-2.9973,-2.988,-2.9444,-2.8827,-2.8015,0.0,-2.6863,-2.6105,-2.6466,-2.7125,-2.7668,-2.7802,-2.8105,0.0,0.0,-2.8935,-2.9652,-2.9787,-2.9901,-3.0409,-3.0555,-3.0752,-3.1215,-3.1681,-3.207,-3.2592,-3.3027,-3.3606,-3.4494,-3.4588,-3.4724,-3.5221,-3.5687,-3.6152,-3.6618,-3.7084,-3.7363,-3.7415,-3.8233,-3.8631,-3.8631,-3.9127,-3.9395,-3.9395,-3.992,-4.0158,-4.0158,-4.0541,-4.0758,-4.08,-4.08,-4.0831,-4.0872,-4.0872,-4.0872,-4.0872,-4.0872,-4.0872,-4.0872,-4.0872,-4.081,-4.0727,-4.0727,-4.0727,-4.0675,0.0,0.0,0.0,0.0,0.0,0.0,0.0,0.0,0.0,0.0,0.0,0.0,0.0,0.0,0.0,0.0,0.0,0.0,0.0,0.0,0.0,0.0,0.0,0.0,0.0,0.0,0.0,0.0,0.0,0.0,0.0,0.0,0.0,0.0,0.0,0.0,0.0,0.0,0.0,0.0,0.0,0.0,-3.3776,-3.451,-3.4594,-3.4085,-3.3004,-3.1939,0.0,0.0,-2.9796,-2.9411,-2.9411,-2.9251,-2.8793,-2.7636,-2.7398,0.0,-2.7672,-2.7597,0.0,0.0,-2.8547,-2.8698,-2.9285,-2.921,-2.9199,-2.986,-3.0212,-3.046,-3.0646,-3.1112,-3.1536,0.0,-3.2354,-3.2882,-3.3078,-3.3731,-3.438,-3.4774,-3.5231,-3.5614,-3.5801,-3.6246,-3.6711,-3.7167,-3.7384,-3.7726,-3.8253,-3.8569,-3.891,-3.9179,-3.9633,-3.9941,-3.9941,-4.0386,-4.0603,-4.0613,-4.0789,-4.0872,-4.0872,-4.0872,-4.0872,-4.0872,-4.0872,-4.0872,-4.0872,-4.0872,-4.0872,-4.0872,-4.0872,-4.0872,-4.0872,-4.0872,-4.0872,-4.0851,0.0,0.0,0.0,0.0,0.0,0.0,0.0,0.0,0.0,0.0,0.0,0.0,0.0,0.0,0.0,0.0,0.0,0.0,0.0,0.0,0.0,0.0,0.0,0.0,0.0,0.0,0.0,0.0,0.0,0.0,0.0,0.0,0.0,0.0,0.0,0.0,0.0,0.0,0.0,0.0,0.0,0.0,-3.3789,-3.4077,-3.445,-3.4532,-3.2827,-3.1513,0.0,0.0,-2.8698,-2.8698,-2.8698,-2.8568,-2.8248,-2.72,-2.7093,-2.7491,-2.8211,0.0,0.0,-2.8806,-2.9126,-2.9264,-2.9264,-2.9264,-2.9443,-3.0078,-3.045,-3.076,-3.1008,-3.1598,0.0,-3.2153,-3.2871,-3.342,-3.3544,-3.4318,-3.4909,-3.5107,-3.5821,-3.6349,-3.6484,-3.6794,-3.7187,-3.7653,-3.7798,-3.815,-3.8745,-3.9024,-3.9313,-3.9654,-4.0168,-4.0406,-4.0406,-4.0717,-4.0872,-4.0872,-4.0872,-4.0872,-4.0872,-4.0872,-4.0872,-4.0872,-4.0872,-4.0872,-4.0872,-4.0872,-4.0872,-4.0872,-4.0872,-4.0872,-4.0872,-4.0872,-4.0872,-4.0872,0.0,0.0,0.0,0.0,0.0,0.0,0.0,0.0,0.0,0.0,0.0,0.0,0.0,0.0,0.0,0.0,0.0,0.0,0.0,0.0,0.0,0.0,0.0,0.0,0.0,0.0,0.0,0.0,0.0,0.0,0.0,0.0,0.0,0.0,0.0,0.0,0.0,0.0,0.0,0.0,0.0,0.0,-3.3094,-3.2783,-3.3321,-3.406,-3.2708,0.0,0.0,0.0,-2.7909,-2.7909,-2.7909,-2.748,0.0,-2.6904,-2.6433,0.0,0.0,0.0,-2.81,-2.8806,-2.9505,-2.9953,-2.9953,-2.9953,-3.0087,-3.0563,-3.0677,-3.0957,-3.1781,-3.1967,-3.2132,-3.2576,-3.3089,-3.3534,-3.3989,-3.4515,-3.5086,-3.5966,-3.6494,-3.696,0.0,-3.7467,-3.7664,-3.8129,-3.8564,-3.8745,-3.8776,-3.9633,-4.0189,-4.021,-4.0634,-4.0862,-4.0862,-4.0872,-4.0872,-4.0872,-4.0872,-4.0872,-4.0872,-4.0872,-4.0872,-4.0872,-4.0872,-4.0872,-4.0872,-4.0872,-4.0872,-4.0872,-4.0872,-4.0872,-4.0872,-4.0872,-4.0872,-4.0872,0.0,0.0,0.0,0.0,0.0,0.0,0.0,0.0,0.0,0.0,0.0,0.0,0.0,0.0,0.0,0.0,0.0,0.0,0.0,0.0,0.0,0.0,0.0,0.0,0.0,0.0,0.0,0.0,0.0,0.0,0.0,0.0,0.0,0.0,0.0,0.0,0.0,0.0,0.0,0.0,0.0,0.0,-3.337,-3.4033,-3.3725,-3.2874,0.0,0.0,0.0,0.0,0.0,-2.7998,-2.7435,0.0,0.0,-2.6357,-2.639,-2.6702,0.0,0.0,-2.8785,-2.9515,-2.9818,-2.9994,-2.9994,-2.9994,-3.0129,-3.0594,-3.0588,-3.0663,-3.1214,-3.1579,-3.1933,-3.2402,-3.3267,-3.4059,-3.4526,-3.491,-3.5428,-3.6039,-3.6515,0.0,0.0,0.0,0.0,-3.8171,-3.8595,-3.891,-3.922,-3.9889,-4.0355,-4.0644,-4.08,-4.0872,-4.0872,-4.0872,-4.0872,-4.0872,-4.0872,-4.0872,-4.0872,-4.0872,-4.0872,-4.0872,-4.0872,-4.0872,-4.0872,-4.0872,-4.0872,-4.0872,-4.0872,-4.0872,-4.0872,-4.0872,-4.0872,-4.0872,0.0,0.0,0.0,0.0,0.0,0.0,0.0,0.0,0.0,0.0,0.0,0.0,0.0,0.0,0.0,0.0,0.0,0.0,0.0,0.0,0.0,0.0,0.0,0.0,0.0,0.0,0.0,0.0,0.0,0.0,0.0,0.0,0.0,0.0,0.0,0.0,0.0,0.0,0.0,0.0,0.0,0.0,-3.3136,-3.3431,-3.2717,0.0,0.0,0.0,0.0,0.0,0.0,0.0,0.0,-2.6552,-2.6509,-2.6314,-2.6541,-2.7117,-2.8026,-2.8624,-2.9157,-2.9818,-2.9994,-2.9994,-2.9994,-2.9994,-3.017,-3.0801,-3.0641,-3.0527,-3.1049,-3.1458,-3.1701,-3.168,-3.2866,-3.3865,-3.4157,-3.4679,-3.5417,-3.6246,-3.6618,0.0,0.0,0.0,0.0,-3.8409,-3.8843,-3.922,-3.9765,-4.022,-4.0582,-4.0872,-4.0872,-4.0872,-4.0872,-4.0872,-4.0872,-4.0872,-4.0872,-4.0872,-4.0872,-4.0872,-4.0872,-4.0872,-4.0872,-4.0872,-4.0872,-4.0872,-4.0872,-4.0872,-4.0872,-4.0872,-4.0872,-4.0872,-4.0872,-4.0872,0.0,0.0,0.0,0.0,0.0,0.0,0.0,0.0,0.0,0.0,0.0,0.0,0.0,0.0,0.0,0.0,0.0,0.0,0.0,0.0,0.0,0.0,0.0,0.0,0.0,0.0,0.0,0.0,0.0,0.0,0.0,0.0,0.0,0.0,0.0,0.0,0.0,0.0,0.0,0.0,0.0,0.0,-3.2267,-3.1243,0.0,0.0,0.0,0.0,0.0,0.0,0.0,0.0,0.0,0.0,-2.6138,-2.6778,-2.699,-2.7283,-2.8652,-2.9019,-2.922,-2.9829,-2.9994,-2.9994,-2.9994,-2.9994,-3.0232,-3.1146,-3.0788,-3.0507,0.0,0.0,-3.1324,-3.0527,-3.1931,-3.3131,-3.3209,-3.3947,-3.5121,0.0,0.0,0.0,0.0,0.0,0.0,-3.8786,0.0,-3.9674,-4.0199,-4.0644,-4.0872,-4.0872,-4.0872,-4.0872,-4.0872,-4.0872,-4.0872,-4.0872,-4.0872,-4.0872,-4.0872,-4.0872,-4.0872,-4.0872,-4.0872,-4.0872,-4.0872,-4.0872,-4.0872,-4.0872,-4.0872,-4.0872,-4.0872,-4.0872,-4.0872,-4.0872,0.0,0.0,0.0,0.0,0.0,0.0,0.0,0.0,0.0,0.0,0.0,0.0,0.0,0.0,0.0,0.0,0.0,0.0,0.0,0.0,0.0,0.0,0.0,0.0,0.0,0.0,0.0,0.0,0.0,0.0,0.0,0.0,0.0,0.0,0.0,0.0,0.0,0.0,0.0,0.0,0.0,0.0,-3.0924,0.0,0.0,0.0,0.0,0.0,0.0,0.0,0.0,0.0,0.0,-2.7387,-2.7441,-2.7583,-2.8015,-2.8526,-2.8911,-2.9338,-2.9808,-2.9942,-2.9994,-2.9994,-2.9994,-2.9994,-3.0015,-3.0057,-2.9408,-2.8827,0.0,0.0,0.0,-3.038,-3.2364,0.0,-3.4305,-3.4845,0.0,0.0,0.0,-3.7167,-3.8098,-3.8481,0.0,0.0,-3.9406,-3.9674,-4.0199,-4.0644,-4.0872,-4.0872,-4.0872,-4.0872,-4.0872,-4.0872,-4.0872,-4.0872,-4.0872,-4.0872,-4.0872,-4.0872,-4.0872,-4.0872,-4.0872,-4.0872,-4.0872,-4.0872,-4.0872,-4.0872,-4.0872,-4.0872,-4.0872,-4.0872,-4.0872,-4.0872,0.0,0.0,0.0,0.0,0.0,0.0,0.0,0.0,0.0,0.0,0.0,0.0,0.0,0.0,0.0,0.0,0.0,0.0,0.0,0.0,0.0,0.0,0.0,0.0,0.0,0.0,0.0,0.0,0.0,0.0,0.0,0.0,0.0,0.0,0.0,0.0,0.0,0.0,0.0,0.0,0.0,0.0,0.0,0.0,0.0,0.0,0.0,0.0,0.0,0.0,0.0,-2.8025,-2.7932,-2.7914,-2.7952,-2.8269,0.0,-2.9071,-2.9379,-2.9704,-2.9994,-2.9994,-2.9994,-2.9943,-2.9641,-2.9558,-2.9474,-2.9205,-2.8463,0.0,0.0,0.0,0.0,0.0,0.0,0.0,-3.4001,-3.4604,-3.5448,0.0,-3.6804,0.0,-3.8098,-3.8585,-3.8972,0.0,-3.9654,-4.0034,-4.0489,-4.0748,-4.0872,-4.0872,-4.0872,-4.0872,-4.0872,-4.0872,-4.0872,-4.0872,-4.0872,-4.0872,-4.0872,-4.0872,-4.0872,-4.0872,0.0,-4.0872,-4.0872,-4.0872,-4.0872,-4.0872,-4.0872,-4.0872,-4.0872,-4.0872,-4.0872,-4.0872,0.0,0.0,0.0,0.0,0.0,0.0,0.0,0.0,0.0,0.0,0.0,0.0,0.0,0.0,0.0,0.0,0.0,0.0,0.0,0.0,0.0,0.0,0.0,0.0,0.0,0.0,0.0,0.0,0.0,0.0,0.0,0.0,0.0,0.0,0.0,0.0,0.0,0.0,0.0,0.0,0.0,0.0,0.0,0.0,0.0,0.0,0.0,0.0,0.0,0.0,-3.0607,-2.9526,-2.8838,-2.8418,-2.8348,-2.9123,-2.9255,-2.9243,-2.9829,-2.9994,-2.9994,-2.9994,-2.9994,-2.9808,-2.9147,-2.8987,-2.8898,-2.8476,0.0,0.0,-2.749,0.0,-2.9237,-2.875,0.0,-3.31,-3.3215,-3.4041,-3.5143,-3.6608,-3.6804,-3.7167,-3.8098,-3.8647,-3.9034,-3.9437,-4.0023,-4.0479,-4.0862,-4.0872,-4.0872,-4.0872,-4.0872,-4.0872,-4.0872,-4.0872,-4.0872,-4.0872,-4.0872,-4.0872,-4.0872,-4.0872,-4.0872,-4.0872,-4.0872,0.0,-4.0872,-4.0872,-4.0872,-4.0872,-4.0872,-4.0872,-4.0872,-4.0872,-4.0872,-4.0872,0.0,0.0,0.0,0.0,0.0,0.0,0.0,0.0,0.0,0.0,0.0,0.0,0.0,0.0,0.0,0.0,0.0,0.0,0.0,0.0,0.0,0.0,0.0,0.0,0.0,0.0,0.0,0.0,0.0,0.0,0.0,0.0,0.0,0.0,0.0,0.0,0.0,0.0,0.0,0.0,0.0,0.0,0.0,0.0,0.0,0.0,0.0,0.0,0.0,0.0,-3.0873,-3.0615,-3.1882,-3.1055,-2.9848,-3.0845,-3.0499,-2.9839,-2.9953,-2.9994,-2.9994,-2.9994,-2.9994,-2.9808,-2.9147,-2.8987,0.0,0.0,0.0,-2.6241,-2.5763,-2.6802,0.0,-2.851,0.0,0.0,0.0,0.0,-3.5656,0.0,0.0,0.0,0.0,0.0,0.0,0.0,0.0,-4.08,-4.0872,-4.0872,-4.0872,-4.0872,-4.0872,-4.0872,-4.0872,-4.0872,-4.0872,-4.0872,-4.0872,-4.0872,-4.0872,-4.0872,-4.0872,-4.0872,-4.0872,0.0,-4.0872,-4.0872,-4.0872,-4.0872,-4.0872,-4.0872,-4.0872,-4.0872,-4.0872,-4.0872,0.0,0.0,0.0,0.0,0.0,0.0,0.0,0.0,0.0,0.0,-2.8972,0.0,0.0,0.0,0.0,0.0,0.0,0.0,0.0,0.0,0.0,0.0,0.0,0.0,0.0,0.0,0.0,0.0,0.0,0.0,0.0,0.0,0.0,0.0,0.0,0.0,0.0,0.0,0.0,0.0,0.0,0.0,0.0,0.0,0.0,0.0,0.0,0.0,0.0,0.0,-3.1459,-3.1832,-3.3021,-3.1841,-3.0193,-3.1289,-3.0836,-2.9994,-2.9994,-2.9994,-2.9994,-2.9994,-2.9994,-2.9735,-2.8677,0.0,0.0,0.0,0.0,-2.5602,-2.5423,0.0,0.0,0.0,0.0,0.0,0.0,0.0,0.0,0.0,0.0,0.0,0.0,0.0,0.0,0.0,0.0,0.0,-4.0872,-4.0872,-4.0872,-4.0872,-4.0872,-4.0872,-4.0872,-4.0872,-4.0872,-4.0872,-4.0872,-4.0872,-4.0872,-4.0872,-4.0872,-4.0872,-4.0872,0.0,-4.0872,-4.0872,-4.0872,-4.0872,-4.0872,-4.0872,-4.0872,-4.0872,-4.0872,-4.0872,0.0,0.0,0.0,0.0,0.0,0.0,0.0,0.0,-2.8651,-2.8748,-2.8748,-2.8748,-2.8748,-2.8908,0.0,0.0,0.0,0.0,0.0,0.0,0.0,0.0,0.0,0.0,0.0,0.0,0.0,0.0,0.0,0.0,0.0,0.0,0.0,0.0,0.0,0.0,0.0,0.0,0.0,0.0,0.0,0.0,0.0,0.0,0.0,0.0,0.0,0.0,0.0,0.0,-3.1675,-3.2025,-3.3371,-3.2336,-3.0739,-3.1534,-3.1036,-3.0224,-3.0015,-2.9994,-2.9994,-2.9994,-2.9994,-2.9621,-2.8195,-2.7914,0.0,0.0,0.0,-2.5242,-2.5475,0.0,0.0,0.0,0.0,0.0,0.0,0.0,0.0,0.0,0.0,0.0,0.0,0.0,0.0,0.0,0.0,0.0,-4.0872,-4.0872,-4.0872,-4.0872,-4.0872,-4.0872,-4.0872,-4.0872,-4.0872,-4.0872,-4.0872,-4.0872,-4.0872,-4.0872,-4.0872,-4.0872,-4.0872,0.0,0.0,-4.0872,-4.0872,-4.0872,-4.0872,-4.0872,-4.0872,-4.0872,-4.0872,-4.0872,0.0,0.0,0.0,0.0,0.0,0.0,0.0,0.0,-2.8587,-2.8619,-2.8619,-2.8619,-2.8619,-2.8748,0.0,0.0,0.0,0.0,0.0,0.0,0.0,0.0,0.0,0.0,0.0,0.0,0.0,0.0,0.0,0.0,0.0,0.0,0.0,0.0,0.0,0.0,0.0,0.0,0.0,0.0,0.0,0.0,0.0,0.0,0.0,0.0,0.0,0.0,0.0,0.0,0.0,-2.9871,-3.3413,-3.3568,-3.244,-3.2365,0.0,0.0,-3.0182,-2.9994,-2.9994,-2.9994,-2.9994,-2.9621,-2.8195,0.0,0.0,0.0,-2.5549,-2.52,-2.5242,-2.5279,0.0,0.0,0.0,0.0,0.0,0.0,0.0,0.0,0.0,0.0,0.0,0.0,0.0,0.0,0.0,0.0,-4.0872,-4.0872,-4.0872,-4.0872,-4.0872,-4.0872,-4.0872,-4.0872,-4.0872,-4.0872,-4.0872,-4.0872,-4.0872,-4.0872,-4.0872,-4.0872,-4.0872,0.0,0.0,-4.0872,-4.0872,-4.0872,-4.0872,-4.0872,-4.0872,-4.0872,-4.0872,-4.0872,0.0,0.0,0.0,0.0,0.0,0.0,0.0,-2.9404,-2.9198,-2.9139,-2.9139,-2.8994,-2.8651,-2.8651,0.0,0.0,0.0,0.0,0.0,0.0,0.0,0.0,0.0,0.0,0.0,0.0,0.0,0.0,0.0,0.0,0.0,0.0,0.0,0.0,0.0,0.0,0.0,0.0,0.0,0.0,0.0,0.0,0.0,0.0,0.0,0.0,0.0,0.0,0.0,0.0,0.0,0.0,-3.1938,-3.2503,0.0,0.0,-3.1865,-3.0465,-3.088,-3.0495,-3.0141,-3.0785,-3.0176,-2.9276,-2.8936,0.0,0.0,-2.6084,-2.5549,-2.52,-2.52,-2.4975,0.0,0.0,0.0,0.0,0.0,0.0,0.0,0.0,0.0,0.0,0.0,0.0,0.0,0.0,0.0,0.0,-4.0872,-4.0872,-4.0872,-4.0872,-4.0872,-4.0872,-4.0872,-4.0872,-4.0872,-4.0872,-4.0872,-4.0872,-4.0872,-4.0872,-4.0872,-4.0872,-4.0872,0.0,0.0,-4.0872,-4.0872,-4.0872,-4.0872,-4.0872,-4.0872,-4.0872,-4.0872,-4.0872,0.0,0.0,0.0,0.0,0.0,0.0,-3.0107,-2.9872,-2.9563,-2.9518,-2.9331,-2.9075,-2.8651,-2.8587,-2.8587,-2.8587,0.0,0.0,0.0,0.0,0.0,0.0,0.0,0.0,0.0,0.0,0.0,0.0,0.0,0.0,0.0,0.0,0.0,0.0,0.0,0.0,0.0,0.0,0.0,0.0,0.0,0.0,0.0,0.0,0.0,0.0,0.0,0.0,0.0,0.0,0.0,0.0,0.0,0.0,0.0,0.0,-3.168,-3.0826,-3.1418,-3.1022,-3.0744,-3.179,-3.0676,-2.9353,0.0,0.0,-2.6998,-2.6616,-2.5779,-2.52,-2.5454,-2.4956,-2.4611,0.0,0.0,0.0,0.0,0.0,0.0,0.0,0.0,0.0,0.0,0.0,0.0,0.0,0.0,0.0,0.0,-4.0872,-4.0872,-4.0872,-4.0872,-4.0872,-4.0872,-4.0872,-4.0872,-4.0872,-4.0872,-4.0872,-4.0872,-4.0872,-4.0872,-4.0872,0.0,0.0,0.0,-4.0872,-4.0872,-4.0872,-4.0872,-4.0872,-4.0872,-4.0872,-4.0872,-4.0872,0.0,0.0,0.0,0.0,0.0,0.0,0.0,-3.0133,-2.9504,-2.9504,-2.8962,-2.8619,-2.8587,-2.8587,-2.8587,-2.8587,0.0,0.0,0.0,0.0,0.0,0.0,0.0,0.0,0.0,0.0,0.0,0.0,0.0,0.0,0.0,0.0,0.0,0.0,0.0,0.0,0.0,0.0,0.0,0.0,0.0,0.0,0.0,0.0,0.0,0.0,0.0,0.0,0.0,0.0,0.0,0.0,0.0,0.0,0.0,0.0,-3.1124,-3.2424,-3.1689,-3.1538,-3.183,-3.2901,-3.1511,-3.0038,0.0,0.0,-2.7607,-2.7981,-2.6381,-2.5158,-2.603,-2.5242,-2.4497,0.0,0.0,0.0,0.0,0.0,0.0,0.0,0.0,0.0,0.0,0.0,0.0,0.0,0.0,0.0,0.0,-4.0872,-4.0872,-4.0872,-4.0872,-4.0872,-4.0872,-4.0872,-4.0872,-4.0872,-4.0872,-4.0872,-4.0872,-4.0872,-4.0872,0.0,0.0,0.0,0.0,-4.0872,-4.0872,-4.0872,-4.0872,-4.0872,-4.0872,-4.0872,-4.0872,-4.0872,0.0,0.0,0.0,0.0,0.0,0.0,0.0,0.0,-3.0525,-2.9628,-2.9749,-2.9732,-2.9251,-2.8849,-2.8766,-2.9188,0.0,0.0,0.0,0.0,0.0,0.0,0.0,0.0,0.0,0.0,0.0,-2.8689,-2.8764,0.0,0.0,0.0,0.0,0.0,0.0,0.0,0.0,0.0,0.0,0.0,0.0,0.0,0.0,0.0,0.0,0.0,0.0,0.0,0.0,0.0,0.0,0.0,0.0,0.0,0.0,0.0,0.0,0.0,-3.1541,-3.109,-3.0736,-3.1958,-3.0729,-2.945,-3.0346,0.0,-2.7747,-2.7869,-2.7232,-2.6577,-2.6268,-2.6381,-2.6201,-2.5171,0.0,0.0,0.0,0.0,0.0,0.0,0.0,0.0,0.0,0.0,0.0,0.0,0.0,0.0,0.0,-4.0872,-4.0872,-4.0872,-4.0872,-4.0872,-4.0872,-4.0872,-4.0872,-4.0872,-4.0872,-4.0872,-4.0872,-4.0872,0.0,0.0,0.0,0.0,0.0,-4.0872,-4.0872,-4.0872,-4.0872,-4.0872,-4.0872,-4.0872,-4.0872,-4.0872,0.0,0.0,0.0,0.0,0.0,0.0,0.0,0.0,-3.1204,-3.036,-3.0389,-3.0329,-2.9919,-2.9328,-2.9075,-2.9473,0.0,0.0,0.0,0.0,0.0,0.0,0.0,0.0,0.0,0.0,-2.7997,-2.7823,-2.8284,-2.8703,-2.908,0.0,0.0,0.0,0.0,0.0,0.0,0.0,0.0,0.0,0.0,0.0,-2.569,0.0,0.0,0.0,0.0,0.0,0.0,0.0,0.0,0.0,0.0,0.0,0.0,0.0,0.0,0.0,0.0,-3.1081,-3.0845,-3.2196,-3.085,0.0,0.0,0.0,0.0,-2.8569,-2.7959,-2.7313,-2.708,-2.7232,-2.7037,-2.6086,0.0,0.0,0.0,0.0,0.0,0.0,0.0,0.0,0.0,0.0,0.0,0.0,0.0,0.0,0.0,-4.0872,-4.0872,-4.0872,-4.0872,-4.0872,-4.0872,-4.0872,-4.0872,-4.0872,-4.0872,-4.0872,-4.0872,-4.0872,0.0,0.0,0.0,0.0,0.0,-4.0872,-4.0872,-4.0872,-4.0872,-4.0872,-4.0872,-4.0872,-4.0872,-4.0872,0.0,0.0,0.0,0.0,0.0,0.0,0.0,0.0,0.0,0.0,0.0,-3.0584,-3.0584,-2.9919,0.0,0.0,0.0,0.0,0.0,0.0,0.0,0.0,0.0,0.0,0.0,-2.7486,-2.733,-2.649,-2.776,-2.8479,-2.8577,-2.9274,0.0,0.0,0.0,0.0,0.0,-2.8235,-2.7361,-2.6473,-2.6603,-2.5929,0.0,0.0,0.0,0.0,0.0,0.0,0.0,0.0,0.0,0.0,0.0,0.0,0.0,0.0,0.0,0.0,0.0,0.0,0.0,0.0,0.0,0.0,0.0,0.0,0.0,0.0,0.0,-2.7609,-2.8431,-2.7903,-2.7325,-2.7242,0.0,0.0,0.0,0.0,0.0,0.0,0.0,0.0,0.0,0.0,0.0,0.0,0.0,0.0,0.0,-4.0872,-4.0872,-4.0872,-4.0872,-4.0872,-4.0872,-4.0872,-4.0872,-4.0872,-4.0872,-4.0872,-4.0872,-4.0872,0.0,0.0,0.0,0.0,0.0,-4.0872,-4.0872,-4.0872,-4.0872,-4.0872,-4.0872,-4.0872,-4.0872,-4.0872,0.0,0.0,0.0,0.0,0.0,0.0,0.0,0.0,0.0,0.0,0.0,-3.1378,-3.1277,-3.0224,0.0,0.0,0.0,0.0,0.0,0.0,0.0,0.0,0.0,0.0,0.0,-2.659,-2.6656,-2.7232,-2.748,-2.821,-2.933,-2.9515,-2.9446,-2.9226,-2.9383,-2.9085,-2.843,-2.7597,-2.7098,-2.6868,-2.7181,-2.6302,0.0,0.0,0.0,0.0,-2.556,-2.6076,0.0,0.0,0.0,0.0,0.0,0.0,0.0,0.0,-2.9114,-2.9854,-3.0105,0.0,-3.0306,-3.0822,0.0,0.0,0.0,0.0,0.0,0.0,0.0,-2.953,-2.9193,-2.9534,-2.951,0.0,0.0,0.0,0.0,0.0,0.0,0.0,0.0,0.0,0.0,0.0,0.0,0.0,0.0,0.0,0.0,-4.0872,-4.0872,-4.0872,-4.0872,-4.0872,-4.0872,-4.0872,-4.0872,-4.0872,-4.0872,-4.0872,-4.0872,-4.0872,-4.0872,0.0,0.0,0.0,-4.0872,-4.0872,-4.0872,-4.0872,-4.0872,-4.0872,-4.0872,-4.0872,-4.0872,-4.0872,0.0,0.0,0.0,0.0,0.0,0.0,0.0,0.0,0.0,0.0,0.0,0.0,0.0,0.0,0.0,0.0,0.0,0.0,0.0,0.0,0.0,0.0,0.0,0.0,0.0,-2.6258,-2.6226,-2.6891,-2.7183,-2.7927,-2.9103,-2.9445,-2.9509,-2.932,-2.9022,-2.8592,-2.8039,-2.7209,-2.6663,-2.64,-2.6849,0.0,0.0,0.0,0.0,0.0,-2.5586,-2.5996,0.0,-2.6788,-2.7241,-2.7607,0.0,0.0,0.0,0.0,-2.9101,-2.9792,-2.9792,-2.9792,-2.9895,-3.0381,-3.0164,-2.9908,0.0,0.0,0.0,0.0,0.0,0.0,-2.9992,0.0,0.0,0.0,0.0,0.0,0.0,0.0,0.0,0.0,0.0,0.0,0.0,0.0,0.0,0.0,0.0,0.0,0.0,-4.0872,-4.0872,-4.0872,-4.0872,-4.0872,-4.0872,-4.0872,-4.0872,-4.0872,-4.0872,-4.0872,-4.0872,-4.0872,-4.0872,0.0,0.0,0.0,-4.0872,-4.0872,-4.0872,-4.0872,-4.0872,-4.0872,-4.0872,-4.0872,-4.0872,-4.0872,0.0,0.0,0.0,0.0,0.0,0.0,0.0,0.0,0.0,0.0,0.0,0.0,0.0,0.0,0.0,0.0,0.0,0.0,0.0,0.0,0.0,0.0,0.0,0.0,-2.6942,-2.6378,-2.6208,-2.6507,-2.7152,-2.7899,-2.8691,-2.9302,-2.954,-2.9415,-2.8592,-2.8026,-2.7643,-2.7019,-2.6418,-2.5887,-2.6336,0.0,0.0,0.0,0.0,0.0,0.0,0.0,0.0,-2.7165,-2.7708,-2.821,-2.8134,0.0,0.0,0.0,0.0,0.0,-2.9869,-2.9956,-3.0187,-3.0699,-3.0318,-2.9985,0.0,0.0,0.0,0.0,0.0,0.0,0.0,0.0,0.0,0.0,0.0,0.0,0.0,0.0,0.0,0.0,0.0,0.0,0.0,0.0,0.0,0.0,0.0,0.0,0.0,-4.1228,-4.1228,-4.1228,-4.1015,-4.0872,-4.0872,-4.0872,-4.0872,-4.0872,-4.0872,-4.0872,-4.0872,-4.0872,-4.0872,-4.0872,0.0,0.0,-4.0872,-4.0872,-4.1015,-4.1228,-4.1228,-4.136,-4.1562,-4.1289,-4.1228,-4.1228,0.0,0.0,0.0,0.0,0.0,0.0,0.0,0.0,0.0,0.0,0.0,0.0,0.0,0.0,0.0,0.0,0.0,0.0,0.0,0.0,0.0,0.0,0.0,0.0,0.0,0.0,0.0,0.0,0.0,-2.8705,-2.9431,-2.9529,-2.9289,-2.8716,-2.8151,-2.761,-2.7108,-2.7007,-2.6998,-2.7027,-2.665,0.0,0.0,0.0,0.0,0.0,0.0,0.0,0.0,-2.7256,-2.7959,-2.8687,-2.8247,0.0,0.0,0.0,0.0,0.0,-3.0228,-3.0708,-3.0962,-3.0173,-2.9908,-2.983,0.0,0.0,0.0,0.0,0.0,0.0,0.0,0.0,0.0,0.0,0.0,0.0,0.0,0.0,0.0,0.0,0.0,0.0,0.0,0.0,0.0,0.0,0.0,0.0,0.0,-4.2748,-4.2748,-4.2748,-4.1573,-4.0872,-4.0872,-4.0872,-4.0872,-4.0872,-4.0872,-4.0872,-4.0872,-4.0872,-4.0872,-4.0872,0.0,-4.0872,-4.0872,-4.0872,-4.1643,-4.2748,-4.2748,-4.3492,-4.4436,-4.3225,-4.2748,-4.2748,0.0,0.0,0.0,0.0,0.0,0.0,0.0,0.0,0.0,0.0,0.0,0.0,0.0,0.0,0.0,0.0,0.0,0.0,0.0,0.0,0.0,0.0,0.0,0.0,0.0,0.0,0.0,0.0,0.0,-2.8753,-2.9617,-2.9813,-2.9711,-2.9337,-2.8906,-2.8644,-2.8459,-2.7847,-2.7766,-2.8005,0.0,0.0,0.0,0.0,0.0,0.0,0.0,0.0,0.0,0.0,-2.8059,-2.8399,-2.8185,0.0,0.0,0.0,0.0,0.0,-3.0049,-3.03,-3.0545,-3.0633,-3.111,-3.1644,0.0,0.0,0.0,0.0,0.0,0.0,0.0,0.0,0.0,0.0,0.0,0.0,0.0,0.0,0.0,0.0,0.0,0.0,0.0,0.0,0.0,0.0,0.0,0.0,0.0,0.0,-4.4241,-4.4241,-4.3609,-4.2866,-4.2127,-4.2866,-4.2866,-4.2057,-4.2057,-4.2468,-4.3193,-4.2468,-4.2057,-4.2057,0.0,-4.0872,-4.0943,-4.1774,-4.2478,-4.3167,-4.3976,-4.4641,-4.5107,-4.4504,-4.4241,-4.4378,0.0,0.0,0.0,0.0,0.0,0.0,0.0,0.0,0.0,0.0,0.0,0.0,0.0,0.0,0.0,0.0,0.0,0.0,0.0,0.0,0.0,0.0,0.0,0.0,0.0,0.0,-2.7899,-2.8833,-2.874,-2.9091,-2.9911,-3.016,-3.0204,-3.0,-2.9805,-2.9658,-2.9504,-2.8808,-2.8533,-2.8494,0.0,0.0,0.0,0.0,0.0,0.0,0.0,0.0,0.0,0.0,0.0,0.0,0.0,0.0,0.0,-2.924,-2.9593,-2.9934,-2.9934,-3.0123,-3.0514,0.0,0.0,0.0,0.0,0.0,0.0,0.0,0.0,0.0,0.0,0.0,0.0,0.0,0.0,0.0,0.0,0.0,0.0,0.0,0.0,0.0,0.0,0.0,0.0,0.0,0.0,0.0,0.0,0.0,-4.5717,-4.5717,-4.5379,-4.4709,-4.3573,-4.4641,-4.4504,-4.3097,-4.3434,-4.4172,-4.5175,-4.4103,-4.3573,-4.3503,-4.2387,-4.1905,-4.1965,-4.3156,-4.378,-4.4183,-4.5311,-4.5717,-4.5717,-4.5717,-4.5515,-4.5379,0.0,0.0,0.0,0.0,0.0,0.0,0.0,0.0,0.0,0.0,0.0,0.0,0.0,0.0,0.0,0.0,0.0,0.0,0.0,0.0,0.0,0.0,0.0,0.0,0.0,-2.9052,-2.9424,-2.9905,-3.0002,-3.0308,-3.0804,-3.0643,-3.0399,-3.0104,-3.0275,-2.9767,-2.8833,-2.9434,-2.908,-2.8132,-2.7933,0.0,0.0,0.0,0.0,0.0,0.0,0.0,0.0,0.0,0.0,0.0,0.0,0.0,-2.9806,-3.019,-3.033,-3.0368,-3.0368,-3.1085,-3.1864,-3.1941,0.0,0.0,0.0,0.0,0.0,0.0,0.0,0.0,0.0,0.0,0.0,0.0,0.0,0.0,0.0,0.0,0.0,0.0,0.0,0.0,0.0,0.0,0.0,0.0,0.0,0.0,0.0,0.0,0.0,-4.7214,-4.592,-4.5175,-4.5039,-4.5175,-4.4504,-4.3097,-4.4436,-4.5107,-4.5175,-4.5107,-4.5039,-4.5039,-4.4971,-4.4903,-4.4903,-4.5039,-4.5852,-4.7081,-4.7214,-4.7214,-4.7214,-4.7214,-4.6402,-4.5379,0.0,0.0,0.0,0.0,0.0,0.0,0.0,0.0,0.0,0.0,0.0,0.0,0.0,0.0,0.0,0.0,0.0,0.0,0.0,0.0,0.0,0.0,0.0,-3.0152,-3.0132,-3.0047,-3.019,-3.0563,-3.0596,-3.0707,-3.0908,-3.1076,0.0,0.0,-3.1101,-3.0903,-3.0477,-3.0122,-2.959,-2.8917,-2.8155,-2.7621,0.0,0.0,0.0,0.0,0.0,0.0,0.0,0.0,-2.8153,0.0,0.0,0.0,-3.0057,-3.0342,-3.0596,-3.071,-3.0482,-3.1188,-3.2007,0.0,0.0,0.0,0.0,0.0,0.0,0.0,0.0,0.0,0.0,0.0,0.0,0.0,0.0,0.0,0.0,0.0,0.0,0.0,0.0,0.0,0.0,0.0,0.0,0.0,0.0,0.0,0.0,0.0,0.0,-4.8775,-4.8228,-4.7323,-4.6052,-4.6986,-4.6568,-4.4789,-4.5634,-4.6514,-4.7389,-4.6115,-4.5568,-4.5502,-4.4568,-4.418,-4.4302,-4.5174,-4.6097,-4.7022,-4.8301,-4.8775,-4.8775,-4.8775,-4.8436,-4.8031,0.0,0.0,0.0,0.0,0.0,0.0,0.0,0.0,0.0,0.0,0.0,0.0,0.0,0.0,0.0,0.0,0.0,0.0,0.0,0.0,0.0,0.0,0.0,-3.0959,-3.1082,-3.0992,-3.1005,-3.1082,-3.1254,-3.1316,-3.133,0.0,0.0,0.0,0.0,-3.1609,-3.1299,-3.0732,-2.9902,-2.8931,-2.8359,-2.7818,0.0,0.0,0.0,0.0,0.0,0.0,0.0,0.0,0.0,0.0,0.0,0.0,0.0,0.0,-3.0931,-3.1408,-3.0855,-3.1457,-3.2257,0.0,0.0,0.0,0.0,0.0,0.0,0.0,0.0,0.0,0.0,0.0,0.0,0.0,0.0,0.0,0.0,0.0,0.0,0.0,0.0,0.0,0.0,0.0,0.0,0.0,0.0,0.0,0.0,-4.7596,-4.9063,-4.9063,-4.9063,-4.8403,-4.7036,-4.803,-4.7843,-4.6487,-4.6631,-4.7412,-4.8485,-4.7115,-4.6475,-4.6424,-4.5365,-4.4978,-4.5042,-4.603,-4.6707,-4.7137,-4.8517,-4.9176,-4.9339,-4.9339,-4.9439,-4.959,0.0,0.0,0.0,0.0,0.0,0.0,0.0,0.0,0.0,0.0,0.0,0.0,0.0,0.0,0.0,0.0,0.0,0.0,0.0,0.0,0.0,0.0,0.0,-3.1568,-3.1492,-3.1964,-3.1978,-3.1492,-3.1978,-3.2218,-3.2218,-3.2218,0.0,0.0,0.0,0.0,-3.0726,-3.1132,-2.994,-2.7875,-2.8599,-2.8269,-2.7352,0.0,0.0,0.0,0.0,0.0,0.0,0.0,0.0,0.0,0.0,0.0,0.0,0.0,-3.1436,-3.2434,-3.1618,-3.2007,0.0,0.0,0.0,0.0,0.0,0.0,0.0,0.0,0.0,0.0,0.0,0.0,0.0,0.0,0.0,0.0,0.0,0.0,0.0,0.0,0.0,0.0,0.0,0.0,0.0,0.0,0.0,0.0,0.0,-4.7131,-4.7908,-4.7908,-4.7908,-4.7908,-4.7895,-4.7895,-4.7895,-4.7883,-4.738,-4.7393,-4.7895,-4.7895,-4.7895,-4.7895,-4.7895,-4.7895,-4.7895,-4.7895,-4.7895,-4.7895,-4.7908,-4.8259,-4.8761,-4.8761,-4.9113,-4.9577,0.0,0.0,0.0,0.0,0.0,0.0,0.0,0.0,0.0,0.0,0.0,0.0,0.0,0.0,0.0,0.0,0.0,0.0,0.0,0.0,0.0,0.0,0.0,0.0,0.0,0.0,-3.2123,-3.2005,-3.2123,-3.2218,0.0,0.0,0.0,-3.2218,0.0,0.0,-3.0699,-3.0664,-2.9568,-2.7875,-2.8599,-2.8269,-2.7389,0.0,0.0,0.0,0.0,0.0,0.0,0.0,0.0,0.0,0.0,0.0,0.0,0.0,-3.1734,-3.2201,-3.1698,0.0,0.0,0.0,0.0,0.0,0.0,0.0,0.0,0.0,0.0,0.0,0.0,0.0,0.0,0.0,0.0,0.0,0.0,0.0,0.0,0.0,0.0,0.0,0.0,0.0,0.0,0.0,0.0,0.0,0.0,-4.6984,-4.7908,-4.7908,-4.7908,-4.7732,-4.7368,-4.7368,-4.7167,-4.6778,-4.6627,-4.6841,-4.7343,-4.6966,-4.6778,-4.6778,-4.6778,-4.6778,-4.6815,-4.7205,-4.7368,-4.7393,-4.7757,-4.8008,-4.8171,-4.8171,-4.8272,-4.846,0.0,0.0,0.0,0.0,0.0,0.0,0.0,0.0,0.0,0.0,0.0,0.0,0.0,0.0,0.0,0.0,0.0,0.0,0.0,0.0,0.0,0.0,0.0,0.0,0.0,-3.2241,-3.2218,0.0,0.0,0.0,0.0,0.0,0.0,-3.2218,0.0,-3.1735,0.0,-3.0802,-2.9971,-2.8757,-2.9268,-2.9,-2.8395,0.0,0.0,0.0,0.0,0.0,0.0,0.0,0.0,0.0,0.0,0.0,0.0,0.0,-3.2375,-3.2702,0.0,0.0,0.0,0.0,0.0,0.0,0.0,0.0,0.0,0.0,0.0,0.0,0.0,0.0,0.0,0.0,0.0,0.0,0.0,0.0,0.0,0.0,0.0,0.0,0.0,0.0,0.0,0.0,0.0,0.0,0.0,-4.6649,-4.7267,-4.7267,-4.7267,-4.7117,-4.6815,-4.6803,-4.664,-4.6313,-4.6313,-4.6489,-4.679,-4.6464,-4.6313,-4.6313,-4.6313,-4.6313,-4.6338,-4.6677,-4.6803,-4.6841,-4.7154,-4.7405,-4.7594,-4.7594,-4.7732,-4.7958,0.0,0.0,0.0,0.0,0.0,0.0,0.0,0.0,0.0,0.0,0.0,0.0,0.0,0.0,0.0,0.0,0.0,0.0,0.0,0.0,0.0,0.0,0.0,0.0,0.0,0.0,0.0,0.0,0.0,0.0,0.0,0.0,-3.2327,-3.2331,0.0,-3.1938,-3.1368,-3.1368,-3.0873,-3.0092,-3.0417,-3.0286,-2.9884,-3.054,0.0,0.0,0.0,0.0,0.0,0.0,0.0,0.0,0.0,0.0,0.0,-3.268,-3.3065,0.0,0.0,0.0,0.0,0.0,0.0,0.0,0.0,0.0,0.0,0.0,0.0,0.0,0.0,0.0,0.0,0.0,0.0,0.0,0.0,0.0,0.0,0.0,0.0,0.0,0.0,0.0,0.0,0.0,0.0,0.0,0.0,-4.6313,-4.6313,-4.6373,-4.6313,-4.6313,-4.6373,-4.6313,-4.6313,-4.6313,-4.6313,-4.6313,-4.6313,-4.6313,-4.6313,-4.6313,-4.6313,-4.6313,-4.6313,-4.6313,-4.6313,-4.6313,-4.6313,-4.6615,-4.7067,-4.7067,-4.7355,-4.777,0.0,0.0,0.0,0.0,0.0,0.0,0.0,0.0,0.0,0.0,0.0,0.0,0.0,0.0,0.0,0.0,0.0,0.0,0.0,0.0,0.0,-3.3241,-3.2574,-3.2241,-3.2218,-3.2218,0.0,0.0,0.0,0.0,0.0,0.0,0.0,-3.3515,0.0,-3.2572,-3.2028,-3.2028,-3.1173,-2.998,-3.1271,-3.1112,-3.0121,-3.0887,-3.0947,0.0,0.0,0.0,0.0,0.0,0.0,0.0,0.0,-3.2059,-3.2113,-3.2297,-3.2912,0.0,0.0,0.0,0.0,0.0,0.0,0.0,0.0,0.0,0.0,0.0,0.0,0.0,0.0,0.0,0.0,0.0,0.0,0.0,0.0,0.0,0.0,0.0,0.0,0.0,0.0,0.0,0.0,0.0,0.0,0.0,-4.6313,-4.6313,-4.6434,-4.6673,-4.6434,-4.6434,-4.6686,-4.6434,-4.6313,0.0,-4.6313,-4.6313,-4.6313,-4.6313,-4.6313,-4.6313,-4.6313,-4.6313,-4.6313,-4.6313,-4.6313,-4.6313,-4.6313,-4.6389,-4.6489,-4.6489,-4.6564,-4.6715,0.0,0.0,0.0,0.0,0.0,0.0,0.0,0.0,0.0,0.0,0.0,0.0,0.0,0.0,0.0,0.0,0.0,0.0,0.0,0.0,0.0,0.0,-3.2294,-3.2218,-3.2218,-3.249,-3.2789,0.0,0.0,0.0,0.0,0.0,0.0,-3.388,0.0,-3.3088,-3.2983,-3.2413,-3.1909,-3.1526,-3.1996,-3.1666,-3.097,-3.1527,-3.1535,-3.1307,-3.1382,0.0,0.0,0.0,0.0,0.0,0.0,0.0,-3.2291,-3.2749,-3.2914,0.0,0.0,0.0,0.0,0.0,0.0,0.0,0.0,0.0,0.0,0.0,0.0,0.0,0.0,0.0,0.0,0.0,0.0,0.0,0.0,0.0,0.0,0.0,0.0,0.0,0.0,0.0,0.0,0.0,0.0,-4.6981,-4.6554,-4.6554,-4.6614,-4.6793,-4.678,-4.6768,-4.6806,-4.6626,-4.6434,-4.6313,-4.6313,-4.6313,-4.6313,-4.6313,-4.6313,-4.6313,-4.6313,-4.6313,-4.6313,-4.6313,-4.6313,-4.6313,-4.6313,-4.6313,-4.6313,-4.6313,-4.6313,-4.6351,0.0,0.0,0.0,0.0,0.0,0.0,0.0,0.0,0.0,0.0,0.0,0.0,0.0,0.0,0.0,0.0,0.0,0.0,0.0,0.0,0.0,0.0,-3.2113,-3.2355,-3.2368,-3.2843,-3.3196,0.0,0.0,0.0,0.0,0.0,0.0,-3.4043,0.0,-3.3485,-3.384,-3.2793,-3.2715,-3.3217,-3.2614,-3.2155,-3.1907,-3.2102,-3.1986,-3.1753,-3.2096,-3.2218,-3.2218,-3.2218,0.0,0.0,0.0,0.0,-3.2336,-3.3136,-3.2904,-3.2944,0.0,0.0,0.0,0.0,0.0,0.0,0.0,0.0,0.0,0.0,0.0,0.0,0.0,0.0,0.0,0.0,0.0,0.0,0.0,0.0,0.0,0.0,0.0,0.0,0.0,0.0,0.0,0.0,0.0,-4.71,-4.6793,-4.6746,-4.6746,-4.6806,-4.6934,-4.6993,-4.6806,-4.6746,-4.6554,-4.6313,-4.6313,-4.6313,-4.6313,-4.6313,-4.6313,-4.6313,-4.6313,-4.6313,-4.6313,-4.6313,-4.6313,-4.6313,-4.6313,-4.6313,-4.6313,-4.6313,-4.6313,-4.6313,0.0,0.0,0.0,0.0,0.0,0.0,0.0,0.0,0.0,0.0,0.0,0.0,0.0,0.0,0.0,0.0,0.0,0.0,-3.527,0.0,0.0,-3.2961,-3.301,-3.3046,-3.2966,-3.3061,-3.3566,0.0,0.0,0.0,0.0,0.0,0.0,-3.4639,0.0,0.0,-3.3867,-3.3227,-3.3037,-3.3135,-3.301,-3.2647,-3.2144,-3.2209,-3.2182,-3.2132,-3.2182,-3.2218,-3.2218,-3.2218,-3.2218,0.0,0.0,0.0,0.0,-3.2336,0.0,0.0,0.0,0.0,0.0,0.0,0.0,0.0,0.0,0.0,0.0,0.0,0.0,0.0,0.0,0.0,0.0,0.0,0.0,0.0,0.0,0.0,0.0,0.0,0.0,0.0,0.0,0.0,0.0,0.0,-4.7383,-4.71,-4.6793,-4.6494,-4.6494,-4.6806,-4.6541,-4.6541,-4.6806,-4.6494,-4.6373,-4.6313,-4.6313,-4.6313,-4.6313,-4.6313,-4.6313,-4.6313,-4.6313,-4.6313,-4.6313,-4.6313,-4.6313,-4.6313,-4.6313,-4.6313,-4.6313,-4.6313,-4.6313,-4.6313,0.0,0.0,0.0,0.0,0.0,0.0,0.0,0.0,0.0,0.0,0.0,0.0,0.0,0.0,0.0,-3.5396,-3.554,-3.5248,-3.4229,-3.3801,-3.3122,-3.2185,-3.2784,-3.3134,-3.3088,-3.339,0.0,0.0,0.0,0.0,0.0,-3.4314,-3.4395,0.0,0.0,0.0,0.0,0.0,-3.2789,-3.3074,-3.2735,-3.2732,-3.2917,-3.239,-3.2515,-3.2941,-3.2376,-3.2218,-3.2218,-3.2218,-3.2218,-3.2218,-3.2218,0.0,0.0,0.0,0.0,0.0,0.0,0.0,0.0,0.0,0.0,0.0,0.0,0.0,0.0,0.0,0.0,0.0,0.0,0.0,0.0,0.0,0.0,0.0,0.0,0.0,0.0,0.0,0.0,0.0,0.0,0.0,0.0,0.0,-4.769,-4.7455,-4.7303,-4.7185,-4.7066,-4.7053,-4.7053,-4.7006,-4.6806,-4.6673,-4.6494,-4.6313,-4.6313,-4.6313,-4.6313,-4.6313,-4.6313,-4.6313,-4.6313,-4.6313,-4.6313,-4.6313,-4.6313,-4.6313,-4.6313,-4.6313,-4.6313,-4.6313,-4.6313,-4.6313,0.0,0.0,0.0,0.0,0.0,0.0,0.0,0.0,0.0,0.0,0.0,0.0,0.0,0.0,0.0,0.0,-3.5638,-3.5428,-3.4053,-3.3505,-3.2919,-3.224,-3.2891,-3.3268,-3.3244,0.0,0.0,0.0,0.0,0.0,-3.4775,-3.403,-3.4395,0.0,-3.4665,0.0,0.0,0.0,0.0,0.0,0.0,-3.2971,0.0,-3.3082,-3.3367,-3.3816,-3.2901,-3.2556,-3.2502,-3.2277,-3.2218,-3.2218,-3.2218,-3.2218,0.0,0.0,0.0,0.0,0.0,0.0,0.0,0.0,0.0,0.0,0.0,0.0,0.0,0.0,0.0,0.0,0.0,0.0,0.0,0.0,0.0,0.0,0.0,0.0,0.0,0.0,0.0,0.0,0.0,0.0,0.0,0.0,-4.7672,-4.7548,-4.7677,-4.7632,-4.7442,-4.7205,-4.7442,-4.7285,-4.6696,-4.6497,-4.6184,-4.5886,-4.5886,-4.5886,-4.5886,-4.6037,-4.61,-4.6112,-4.625,-4.6313,-4.6313,-4.6313,-4.6313,-4.6313,-4.6313,-4.6313,-4.6313,-4.6313,-4.6313,-4.6313,0.0,0.0,0.0,0.0,0.0,0.0,0.0,0.0,0.0,0.0,0.0,0.0,-3.5904,-3.5569,-3.5492,-3.6072,-3.6038,-3.6022,-3.6055,-3.4614,-3.4025,-3.4659,-3.4084,0.0,-3.3584,0.0,0.0,0.0,0.0,0.0,-3.4761,-3.3647,-3.4041,-3.5683,-3.5032,-3.4761,-3.4707,0.0,0.0,0.0,0.0,0.0,0.0,0.0,0.0,0.0,0.0,0.0,-3.3382,-3.2488,-3.2218,-3.2218,-3.2218,-3.2218,-3.2218,0.0,0.0,0.0,0.0,0.0,0.0,0.0,0.0,0.0,0.0,0.0,0.0,0.0,0.0,0.0,0.0,0.0,0.0,0.0,0.0,0.0,0.0,0.0,0.0,0.0,0.0,0.0,0.0,0.0,0.0,0.0,-4.71,-4.716,-4.7665,-4.7383,-4.7205,-4.7205,-4.7205,-4.6962,-4.6404,-4.5622,-4.5009,-4.4706,-4.4706,-4.4706,-4.4731,-4.5284,-4.5535,-4.556,-4.6087,-4.6313,-4.6313,-4.6313,-4.6313,-4.6313,-4.6313,-4.6313,-4.6313,-4.6313,-4.6313,-4.6313,0.0,0.0,0.0,0.0,0.0,0.0,0.0,0.0,0.0,0.0,0.0,0.0,0.0,-3.5362,-3.5574,-3.575,-3.5716,-3.5524,-3.5204,-3.5039,-3.4568,-3.372,-3.4206,-3.4126,-3.3314,0.0,0.0,0.0,0.0,-3.2938,-3.3688,-3.3292,-3.381,-3.5073,-3.4122,-3.3905,-3.4151,-3.2996,0.0,0.0,0.0,0.0,0.0,0.0,0.0,0.0,0.0,0.0,0.0,-3.3192,-3.2695,-3.2218,-3.2218,-3.2218,-3.2218,0.0,0.0,0.0,0.0,0.0,0.0,0.0,0.0,0.0,0.0,0.0,0.0,0.0,0.0,0.0,0.0,0.0,0.0,0.0,0.0,0.0,0.0,0.0,0.0,0.0,0.0,0.0,0.0,0.0,0.0,0.0,0.0,-4.6708,-4.6903,-4.6846,-4.6559,-4.6213,-4.6155,-4.5879,-4.5282,-4.4964,-4.4734,-4.4618,-4.4618,-4.4618,-4.4631,-4.4832,-4.4932,-4.497,-4.5535,-4.5987,-4.6313,-4.6313,-4.6313,-4.6313,-4.6313,-4.6313,-4.6313,-4.6313,-4.6313,-4.6313,0.0,0.0,0.0,0.0,0.0,0.0,0.0,0.0,0.0,0.0,0.0,0.0,0.0,0.0,-3.5671,-3.5572,-3.5537,-3.5409,-3.5139,-3.5221,-3.4893,-3.4041,-3.4351,-3.4178,-3.3371,0.0,0.0,0.0,0.0,0.0,0.0,-3.3101,-3.3593,-3.445,-3.3498,-3.3498,0.0,0.0,0.0,-3.2603,0.0,0.0,-3.454,0.0,0.0,0.0,0.0,0.0,0.0,0.0,-3.3641,-3.3068,0.0,0.0,0.0,0.0,0.0,0.0,0.0,0.0,0.0,0.0,0.0,0.0,0.0,0.0,0.0,0.0,0.0,0.0,0.0,0.0,0.0,0.0,0.0,0.0,0.0,0.0,0.0,0.0,0.0,0.0,0.0,0.0,0.0,0.0,0.0,0.0,-4.6473,-4.6473,-4.6304,-4.5907,-4.5613,-4.5214,-4.463,-4.4326,-4.418,-4.4066,-4.4066,-4.4066,-4.4079,-4.4267,-4.4342,-4.438,-4.4945,-4.551,-4.605,-4.6238,-4.6313,-4.6313,-4.6313,-4.6313,-4.6313,-4.6313,-4.6313,-4.6313,0.0,0.0,0.0,0.0,0.0,0.0,0.0,0.0,0.0,0.0,0.0,0.0,0.0,0.0,0.0,-3.5688,-3.5572,-3.5716,-3.6148,-3.5219,-3.5056,-3.5914,-3.4597,-3.3801,-3.3787,0.0,0.0,0.0,0.0,0.0,0.0,0.0,-3.3387,0.0,-3.3295,-3.3688,-3.4666,0.0,-3.3074,-3.32,0.0,-3.4433,-3.383,0.0,0.0,0.0,-3.507,-3.5043,0.0,0.0,0.0,0.0,0.0,0.0,0.0,0.0,0.0,0.0,0.0,0.0,0.0,0.0,0.0,0.0,0.0,0.0,0.0,0.0,0.0,0.0,0.0,0.0,0.0,0.0,0.0,0.0,0.0,0.0,0.0,0.0,0.0,0.0,0.0,0.0,0.0,0.0,-4.5542,-4.5846,-4.6395,-4.6421,-4.6434,-4.6434,-4.5593,-4.5017,-4.4668,-4.3827,-4.324,-4.2974,-4.2974,-4.2974,-4.2999,-4.3526,-4.3777,-4.3815,-4.4355,-4.492,-4.5485,-4.605,-4.6301,-4.6313,-4.6313,-4.6313,-4.6313,-4.6313,-4.6313,-4.6313,0.0,0.0,0.0,0.0,0.0,0.0,0.0,0.0,0.0,0.0,0.0,0.0,-3.5524,-3.5638,-3.5688,-3.5688,-3.5671,-3.5653,-3.5668,-3.5857,-3.5681,-3.5007,-3.4706,-3.4115,-3.3239,0.0,0.0,0.0,0.0,0.0,0.0,0.0,0.0,0.0,-3.2721,-3.2884,-3.3536,-3.2775,0.0,0.0,-3.4326,-3.4845,0.0,0.0,0.0,0.0,0.0,-3.586,-3.5694,0.0,-3.4939,-3.3509,0.0,0.0,0.0,0.0,0.0,0.0,-3.2218,0.0,0.0,0.0,0.0,0.0,0.0,0.0,0.0,0.0,0.0,0.0,0.0,0.0,0.0,0.0,0.0,0.0,0.0,0.0,0.0,0.0,0.0,0.0,0.0,0.0,0.0,0.0,-4.4929,-4.5049,-4.5205,-4.4999,-4.4902,-4.4902,-4.4224,-4.3844,-4.3746,-4.3316,-4.3085,-4.2974,-4.2974,-4.2974,-4.2986,-4.3137,-4.3212,-4.3237,-4.379,-4.4116,-4.4342,-4.5309,-4.5949,-4.6313,-4.6313,-4.6313,-4.6313,-4.6313,-4.6313,-4.6313,0.0,0.0,0.0,0.0,0.0,0.0,0.0,0.0,0.0,0.0,0.0,0.0,-3.5716,-3.5653,-3.5638,-3.5688,-3.5638,-3.5621,-3.5701,-3.6077,-3.6027,-3.5429,-3.5177,-3.4719,-3.4036,0.0,0.0,0.0,0.0,0.0,0.0,0.0,0.0,0.0,0.0,0.0,0.0,0.0,0.0,0.0,-3.4259,0.0,0.0,-3.5894,-3.6529,0.0,0.0,0.0,-3.6188,-3.6814,-3.5624,0.0,0.0,0.0,0.0,0.0,0.0,0.0,0.0,0.0,0.0,0.0,0.0,0.0,-3.7498,-3.8525,0.0,0.0,0.0,0.0,0.0,0.0,0.0,0.0,0.0,0.0,0.0,0.0,0.0,0.0,0.0,0.0,0.0,-4.4668,-4.4668,-4.4668,-4.4668,-4.4668,-4.4668,-4.4572,-4.4463,-4.4463,-4.4026,-4.3738,-4.3585,-4.3295,-4.3141,-4.2974,-4.2974,-4.2974,-4.2974,-4.2974,-4.2974,-4.2999,-4.3313,-4.3589,-4.3853,-4.4505,-4.5259,-4.5962,-4.5962,-4.61,-4.6313,-4.6313,-4.6313,-4.6313,0.0,0.0,0.0,0.0,0.0,0.0,0.0,0.0,0.0,0.0,0.0,0.0,-3.5973,-3.5733,-3.5604,-3.572,-3.5604,-3.5651,-3.5941,-3.5941,-3.6084,-3.6367,-3.572,-3.5302,-3.5302,0.0,0.0,0.0,0.0,0.0,0.0,0.0,0.0,0.0,0.0,0.0,0.0,0.0,0.0,-3.2488,-3.4246,-3.4487,0.0,0.0,-3.6026,0.0,-3.627,-3.6555,-3.6634,-3.7434,-3.6529,0.0,0.0,0.0,0.0,0.0,-3.2277,0.0,0.0,0.0,0.0,0.0,0.0,0.0,-3.7828,-3.8269,-3.8825,0.0,0.0,0.0,0.0,0.0,0.0,0.0,0.0,0.0,0.0,0.0,0.0,0.0,0.0,0.0,-4.4487,-4.4591,-4.463,-4.463,-4.4696,-4.4668,-4.4668,-4.4668,-4.4668,-4.4668,-4.4422,-4.4161,-4.3899,-4.353,-4.324,-4.2974,-4.2974,-4.2974,-4.2974,-4.2974,-4.2974,-4.2974,-4.2974,-4.3263,-4.3714,-4.3714,-4.438,-4.5397,-4.546,-4.5786,-4.6225,-4.6288,-4.6313,-4.6313,-3.4928,0.0,0.0,0.0,0.0,0.0,0.0,0.0,0.0,0.0,0.0,0.0,0.0,-3.5941,-3.591,-3.5941,-3.5767,-3.5703,-3.5752,-3.5668,-3.5634,-3.5683,-3.5088,-3.4762,-3.4762,-3.4644,0.0,0.0,0.0,0.0,0.0,0.0,0.0,0.0,0.0,0.0,0.0,0.0,0.0,-3.3382,-3.4245,0.0,-3.4911,-3.6515,-3.7209,-3.735,-3.7527,-3.7382,-3.7034,0.0,-3.6227,-3.5867,0.0,0.0,0.0,0.0,0.0,0.0,0.0,0.0,0.0,0.0,0.0,0.0,-3.6183,-3.6811,-3.7457,0.0,0.0,0.0,0.0,0.0,0.0,0.0,0.0,0.0,0.0,0.0,0.0,0.0,0.0,0.0,-4.335,-4.3768,-4.4042,-4.4042,-4.4474,-4.4668,-4.4668,-4.4668,-4.4668,-4.4668,-4.4203,-4.3955,-4.3899,-4.3376,-4.303,-4.2974,-4.2974,-4.2974,-4.2974,-4.2974,-4.2974,-4.2974,-4.2974,-4.3037,-4.3137,-4.3137,-4.379,-4.4832,-4.5309,-4.5547,-4.5698,-4.615,-4.6313,-4.6313,-3.5181,0.0,0.0,0.0,0.0,0.0,0.0,0.0,0.0,0.0,0.0,0.0,0.0,0.0,-3.5765,-3.5831,-3.5718,-3.5621,-3.5688,-3.5653,-3.5636,-3.5733,-3.5477,-3.5317,-3.5317,-3.5397,0.0,0.0,0.0,0.0,0.0,0.0,0.0,0.0,0.0,0.0,0.0,0.0,-3.3303,-3.3481,-3.439,0.0,-3.5828,-3.7117,-3.773,-3.79,-3.79,-3.775,-3.7545,-3.7042,-3.6352,0.0,0.0,-3.4686,-3.4139,0.0,-3.3219,-3.3396,0.0,0.0,0.0,-3.3908,0.0,0.0,0.0,-3.6772,-3.7236,-3.7695,0.0,0.0,0.0,0.0,0.0,0.0,0.0,0.0,0.0,0.0,0.0,0.0,0.0,0.0,-4.2997,-4.3271,-4.3441,-4.3441,-4.3977,-4.4304,-4.4304,-4.4565,-4.4668,-4.4668,-4.4409,-4.4161,-4.3899,-4.3611,-4.3321,-4.2974,-4.2974,-4.2974,-4.2974,-4.2974,-4.2974,-4.2974,-4.2974,-4.2974,-4.2974,-4.2974,-4.3313,-4.3865,-4.443,-4.4995,-4.5522,-4.5799,-4.6075,-4.6313,-3.5373,0.0,0.0,0.0,0.0,0.0,0.0,0.0,0.0,0.0,0.0,0.0,0.0,0.0,0.0,0.0,-3.6337,-3.6199,-3.6094,-3.6032,-3.6112,-3.6256,-3.6014,-3.6031,-3.6256,-3.6014,-3.5638,0.0,0.0,0.0,0.0,0.0,0.0,0.0,0.0,0.0,0.0,0.0,0.0,-3.4281,0.0,-3.569,-3.6158,-3.7125,-3.7625,-3.7789,-3.7861,-3.79,-3.7874,-3.7684,-3.6569,-3.5345,-3.5751,-3.5083,0.0,0.0,0.0,0.0,0.0,0.0,0.0,0.0,0.0,-3.5886,0.0,0.0,0.0,-3.7815,0.0,0.0,0.0,0.0,0.0,0.0,0.0,0.0,0.0,0.0,0.0,0.0,0.0,0.0,0.0,-4.2604,-4.2839,-4.301,-4.3402,-4.3638,-4.3702,-4.4147,-4.4447,-4.4552,-4.4511,-4.4251,-4.3899,-4.3844,-4.3543,-4.2974,-4.2974,-4.2974,-4.2974,-4.2974,-4.2974,-4.2974,-4.2974,-4.2974,-4.2974,-4.2974,-4.2974,-4.3037,-4.3589,-4.4355,-4.5196,-4.5409,-4.5761,-4.6175,-3.6826,-3.6353,0.0,0.0,0.0,0.0,0.0,0.0,0.0,0.0,0.0,0.0,0.0,0.0,0.0,0.0,0.0,0.0,-3.7523,0.0,-3.7214,-3.7248,-3.6169,-3.6094,-3.7233,-3.6139,-3.5651,0.0,0.0,0.0,0.0,0.0,0.0,0.0,-3.7149,0.0,0.0,0.0,-3.6607,0.0,-3.7398,-3.6205,0.0,-3.5763,-3.6637,-3.7437,-3.775,-3.79,-3.7743,0.0,-3.6424,-3.5957,0.0,-3.4884,-3.5566,0.0,0.0,0.0,0.0,0.0,0.0,0.0,-3.4802,0.0,0.0,0.0,-3.5873,-3.6008,0.0,0.0,0.0,0.0,0.0,0.0,0.0,0.0,0.0,0.0,0.0,0.0,0.0,0.0,0.0,-4.1238,-4.2178,-4.2944,-4.2811,-4.2784,-4.3088,-4.318,-4.3441,-4.3951,-4.3684,-4.3674,-4.3899,-4.3585,-4.3295,-4.2974,-4.2974,-4.2974,-4.2974,-4.2974,-4.2974,-4.2974,-4.2974,-4.2974,-4.2974,-4.2974,-4.2974,-4.3037,-4.3589,-4.3878,-4.4116,-4.5121,-4.5535,-4.5648,-3.7045,-3.6785,0.0,0.0,0.0,0.0,0.0,0.0,0.0,0.0,0.0,0.0,0.0,0.0,0.0,0.0,0.0,-3.8053,0.0,0.0,0.0,0.0,-3.5789,-3.5776,-3.6418,-3.5791,-3.5619,-3.5831,-3.5752,0.0,0.0,0.0,0.0,0.0,-3.8436,0.0,-3.9138,0.0,0.0,0.0,0.0,0.0,0.0,-3.809,-3.854,-3.8381,-3.8024,-3.79,-3.7835,0.0,-3.674,0.0,0.0,0.0,0.0,0.0,0.0,0.0,0.0,0.0,0.0,0.0,0.0,0.0,-3.5764,0.0,-3.571,0.0,0.0,0.0,0.0,0.0,0.0,0.0,-3.6302,0.0,0.0,0.0,0.0,0.0,0.0,0.0,0.0,0.0,0.0,0.0,-4.221,-4.2367,-4.2513,-4.284,-4.3141,-4.3376,-4.3218,-4.3332,-4.3591,-4.3307,-4.3199,-4.324,-4.3085,-4.2974,-4.2974,-4.2974,-4.2974,-4.2974,-4.2974,-4.2974,-4.2974,-4.2974,-4.2974,-4.2999,-4.3237,-4.3526,-4.3903,-4.4694,-4.5196,-4.5573,-3.7015,0.0,0.0,0.0,0.0,0.0,0.0,0.0,0.0,0.0,0.0,0.0,-3.6245,-3.6757,0.0,0.0,-3.8826,-3.8886,0.0,0.0,-3.7704,0.0,0.0,0.0,0.0,-3.5914,-3.5587,-3.5688,-3.5671,0.0,0.0,0.0,0.0,0.0,0.0,-3.9778,-3.9854,0.0,0.0,-3.9288,-3.8956,-3.9051,-3.9455,-4.0204,-4.0106,-3.9533,-3.9096,-3.8893,-3.8879,-3.8506,-3.7736,0.0,-3.7416,0.0,0.0,0.0,0.0,0.0,-3.401,0.0,0.0,0.0,0.0,0.0,0.0,0.0,0.0,0.0,0.0,0.0,0.0,0.0,0.0,0.0,0.0,-3.6397,0.0,0.0,0.0,0.0,0.0,0.0,0.0,0.0,0.0,-4.0926,-4.1476,-4.1869,-4.1925,-4.233,-4.2631,-4.2788,-4.2788,-4.284,-4.3093,-4.3033,-4.299,-4.3068,-4.301,-4.2974,-4.2974,-4.2974,-4.2974,-4.2974,-4.2974,-4.2974,-4.2974,-4.2974,-4.2974,-4.2974,-4.2974,-4.3225,-4.3639,-4.4192,-4.4756,-4.5334,-3.706,-3.6492,0.0,0.0,0.0,0.0,0.0,0.0,0.0,0.0,0.0,0.0,0.0,0.0,0.0,0.0,0.0,-4.2611,-4.1339,0.0,-3.9903,0.0,0.0,-3.6701,0.0,-3.6806,-3.5587,-3.5688,-3.5572,-3.5572,0.0,0.0,0.0,0.0,0.0,-3.9284,-3.9762,-4.0555,-4.1481,-4.2378,-4.1723,-4.2134,-4.2897,0.0,-4.028,-4.0631,-4.1278,0.0,0.0,-4.0046,-3.9607,0.0,0.0,0.0,0.0,0.0,0.0,0.0,0.0,0.0,0.0,-3.502,0.0,0.0,0.0,0.0,-3.571,0.0,0.0,0.0,0.0,0.0,0.0,0.0,0.0,0.0,0.0,0.0,0.0,0.0,0.0,0.0,0.0,0.0,0.0,-3.9899,-4.0513,-4.0995,-4.1311,-4.1363,-4.1625,-4.2224,-4.2251,-4.2216,-4.2248,-4.2746,-4.2758,-4.2238,-4.2778,-4.2974,-4.2974,-4.2974,-4.2974,-4.2974,-4.2974,-4.2974,-4.2974,-4.2974,-4.2974,-4.2974,-4.2974,-4.2986,-4.3074,-4.3627,-4.4179,-4.4731,0.0,0.0,0.0,0.0,0.0,0.0,0.0,-3.5619,0.0,0.0,0.0,0.0,0.0,-3.958,-4.0427,0.0,0.0,-4.1848,-4.1414,-4.0142,0.0,0.0,0.0,-3.636,0.0,-3.6469,-3.5587,-3.5688,-3.5587,-3.5522,0.0,0.0,0.0,0.0,0.0,-3.8602,0.0,0.0,0.0,0.0,0.0,-4.2784,-4.3453,0.0,-4.2091,-4.2124,-4.148,-4.1251,0.0,-4.002,-3.9481,-3.9207,-3.8747,-3.853,-3.8395,-3.8317,-3.8039,-3.7652,0.0,0.0,-3.7236,-3.6043,0.0,0.0,0.0,0.0,0.0,0.0,0.0,0.0,0.0,0.0,0.0,0.0,0.0,0.0,0.0,0.0,0.0,0.0,0.0,0.0,0.0,0.0,0.0,-3.9873,-4.067,-4.1152,-4.1298,-4.1311,-4.1402,-4.1598,-4.1598,-4.1771,-4.219,-4.1968,-4.2179,-4.2745,-4.2553,-4.2678,-4.2974,-4.2974,-4.2974,-4.2974,-4.2974,-4.2974,-4.2974,-4.2974,-4.2974,-4.2974,-4.2974,-4.2974,-4.3037,-4.3589,-4.3915,-4.4217,-3.751,0.0,0.0,0.0,0.0,0.0,0.0,0.0,0.0,0.0,-3.7614,0.0,-3.9269,0.0,-4.0457,0.0,-4.1803,-4.1968,-4.1782,-4.0711,0.0,-4.0457,-3.8182,0.0,0.0,0.0,-3.6229,-3.6298,-3.5779,-3.5504,0.0,0.0,0.0,0.0,0.0,0.0,0.0,0.0,-4.1821,0.0,0.0,-4.3647,0.0,0.0,-4.3904,-4.3512,0.0,-4.2975,-4.2823,-4.2052,-4.1641,-4.1442,-4.1335,-4.0683,-4.0087,-4.0361,-3.9714,-3.8853,-3.8521,-3.8615,0.0,-3.7314,-3.75,0.0,-3.6464,0.0,0.0,0.0,0.0,0.0,0.0,0.0,0.0,0.0,0.0,0.0,0.0,-3.571,0.0,0.0,0.0,0.0,0.0,0.0,-3.9164,-3.9868,-4.0473,-4.0929,0.0,0.0,-4.1311,-4.1311,-4.1311,-4.1444,-4.1745,-4.1454,-4.1604,-4.2253,-4.2229,-4.2401,-4.274,-4.2886,-4.2974,-4.2974,-4.2974,-4.2974,-4.2974,-4.2974,-4.2974,-4.2974,-4.2974,-4.2974,-4.3024,-4.3376,-4.3639,-4.3966,0.0,0.0,0.0,0.0,-3.6538,0.0,0.0,0.0,-3.6914,0.0,-3.8108,-3.8811,-3.9529,-4.0756,-4.1519,-4.1519,-4.2686,-4.3165,-4.259,-4.1901,0.0,0.0,-4.0531,-4.0068,-4.1354,0.0,0.0,0.0,-3.6133,0.0,0.0,0.0,0.0,0.0,-3.63,0.0,-3.9454,-4.0287,-4.1708,-4.3409,-4.4092,-4.4736,-4.5379,-4.6067,-4.5638,-4.4855,-4.5888,-4.6282,-4.6243,-4.5858,-4.5689,-4.5494,-4.4531,-4.3559,-4.2744,-4.2744,-4.2052,-4.1125,-4.0219,-3.9965,-3.9723,-3.8812,-3.8552,0.0,0.0,0.0,-3.7196,0.0,0.0,0.0,0.0,0.0,0.0,0.0,0.0,0.0,0.0,0.0,0.0,0.0,0.0,0.0,0.0,-3.7214,-3.8002,-3.9804,-3.9981,0.0,0.0,0.0,-4.1335,-4.1311,-4.1311,-4.1161,-4.0933,-4.1132,-4.1155,-4.092,-4.173,-4.2162,-4.2225,-4.2753,-4.2949,-4.2974,-4.2974,-4.2974,-4.2974,-4.2974,-4.2974,-4.2974,-4.2974,-4.2974,-4.2974,-4.2974,-4.3325,-4.3953,-3.751,-3.7241,-3.6908,0.0,-3.632,-3.5925,0.0,0.0,0.0,0.0,-3.9903,-4.1055,-4.2168,-4.306,-4.3569,-4.3569,-4.4317,0.0,0.0,0.0,0.0,-4.3778,-4.1459,-4.0531,-4.1369,-3.8766,0.0,-3.7404,0.0,0.0,-3.5504,0.0,0.0,0.0,0.0,0.0,-3.9424,-3.9625,-4.1407,-4.4122,-4.4781,-4.5222,-4.5556,0.0,-4.6224,-4.6055,-4.599,-4.5917,-4.5799,-4.4949,-4.4205,-4.3545,-4.3259,-4.2466,-4.1683,-4.1683,-4.1498,-4.1259,-4.1008,-4.0929,-4.0703,-3.9762,-3.9519,-3.9296,0.0,0.0,0.0,0.0,0.0,0.0,0.0,0.0,0.0,0.0,0.0,0.0,0.0,0.0,0.0,-3.5277,0.0,0.0,-3.7699,-3.8999,-3.9984,-4.0477,-4.0991,0.0,0.0,0.0,0.0,-4.1298,-4.1311,-4.1261,-4.1211,-4.0848,-4.0875,-4.1194,-4.1014,-4.1367,-4.2213,-4.2351,-4.264,-4.2974,-4.2974,-4.2974,-4.2974,-4.2974,-4.2974,-4.2974,-4.2974,-4.2974,-4.2974,-4.2974,-4.3325,-4.384,-3.751,0.0,0.0,-3.6585,0.0,0.0,-3.6442,-3.6941,0.0,-3.9634,-4.0995,0.0,-4.3185,-4.4182,-4.4751,-4.4751,-4.508,0.0,-4.4885,0.0,0.0,-4.4317,-4.318,-4.2716,-4.309,-4.0771,0.0,-3.8721,0.0,0.0,-3.5504,0.0,0.0,0.0,0.0,-3.6641,0.0,-4.0098,-4.2102,-4.4392,-4.5364,-4.5987,0.0,-4.6649,-4.6798,-4.6871,-4.6549,-4.6447,-4.6358,-4.5808,-4.5235,-4.4762,-4.4762,-4.4064,-4.3273,-4.3273,-4.266,-4.1967,-4.1967,-4.1634,-4.1154,-4.0661,-4.049,-4.0285,-3.9336,-3.9382,-3.9528,0.0,-3.9417,-3.9631,0.0,0.0,0.0,0.0,0.0,0.0,0.0,0.0,0.0,0.0,-3.647,0.0,-3.8142,-3.9436,-4.0147,-3.9998,-4.0646,0.0,0.0,0.0,0.0,-4.175,-4.1465,-4.1498,-4.1967,-4.0997,-4.0658,-4.0927,-4.0662,-4.0965,-4.1806,-4.2099,-4.2514,-4.2974,-4.2974,-4.2974,-4.2974,-4.2974,-4.2974,-4.2974,-4.2974,-4.2974,-4.2974,-4.2974,-4.3175,-4.3476,0.0,0.0,0.0,0.0,0.0,0.0,0.0,-3.8072,0.0,-4.0546,0.0,-4.297,-4.3484,-4.4691,-4.5424,-4.5424,0.0,-4.5304,-4.4751,-4.5244,-4.5259,-4.4601,-4.5125,-4.5394,-4.5289,-4.3449,-4.1886,0.0,0.0,0.0,0.0,0.0,0.0,0.0,0.0,0.0,0.0,-4.128,-4.3374,-4.4691,-4.5948,-4.68,-4.7309,-4.7309,-4.7309,-4.7309,-4.7309,-4.7309,-4.7309,-4.7309,-4.7207,-4.7121,-4.7121,-4.6403,-4.5598,-4.5598,-4.4377,-4.2985,-4.2985,-4.2382,-4.1683,-4.1683,-4.1683,-4.1419,-4.0513,-4.0288,-4.024,-4.011,-4.0229,-4.0595,-4.1306,0.0,0.0,0.0,0.0,0.0,0.0,0.0,0.0,0.0,0.0,0.0,-3.8236,-3.9067,-3.9504,0.0,0.0,0.0,0.0,0.0,0.0,-4.251,-4.1883,-4.1918,-4.2792,-4.1322,-4.0555,-4.0504,-4.0487,-4.0701,-4.12,-4.1794,-4.2401,-4.2873,-4.2949,-4.2974,-4.2974,-4.2974,-4.2974,-4.2974,-4.2974,-4.2974,-4.2974,-4.2974,-4.2974,-4.3049,0.0,0.0,0.0,0.0,0.0,-3.9719,-4.1193,-4.1645,-4.2024,-4.2701,-4.3973,-4.4825,-4.4945,-4.5663,-4.6142,-4.6142,-4.6636,0.0,0.0,0.0,0.0,-4.5965,-4.6082,-4.5873,-4.5304,-4.3898,-4.2521,0.0,0.0,0.0,0.0,0.0,0.0,0.0,0.0,0.0,-4.0831,-4.303,0.0,-4.5995,-4.6815,-4.7204,-4.7309,-4.7309,-4.7309,-4.7309,-4.7309,-4.7309,-4.7309,-4.7309,-4.6741,-4.6062,-4.6062,-4.5372,-4.4531,-4.4531,-4.4298,-4.4031,-4.4031,-4.389,-4.3796,-4.3796,-4.3796,-4.3504,-4.2534,-4.2301,-4.2073,-4.1245,-4.1732,-4.2283,-4.2134,0.0,0.0,0.0,0.0,0.0,0.0,0.0,0.0,0.0,0.0,-3.883,0.0,-3.8807,0.0,0.0,0.0,0.0,0.0,0.0,0.0,0.0,-4.3026,0.0,0.0,0.0,-4.0744,-4.0504,-4.0287,-4.032,-4.0676,-4.1229,-4.1781,-4.2376,-4.2841,-4.2974,-4.2974,-4.2974,-4.2974,-4.2974,-4.2974,-4.2974,-4.2974,-4.2974,-4.2974,-4.2986,0.0,0.0,0.0,0.0,0.0,0.0,0.0,-4.4476,-4.4834,-4.4113,-4.4991,-4.5593,-4.5346,-4.6286,-4.6944,-4.683,-4.7115,-4.7309,-4.7309,-4.7309,-4.716,-4.6845,-4.683,-4.6681,-4.6337,-4.5379,-4.3898,-4.1931,0.0,0.0,0.0,0.0,0.0,0.0,0.0,-3.908,0.0,0.0,0.0,-4.5873,-4.689,-4.7309,-4.7309,-4.7309,-4.7309,-4.7309,-4.7309,-4.7309,-4.7309,-4.7309,-4.6975,-4.6594,-4.6594,-4.627,-4.5853,-4.5853,-4.5477,-4.5098,-4.5098,-4.4684,-4.4312,-4.4312,-4.4312,-4.4172,-4.3687,-4.3592,-4.3464,-4.295,-4.364,-4.4142,-4.3527,-4.2174,0.0,0.0,0.0,0.0,0.0,0.0,0.0,0.0,0.0,0.0,0.0,0.0,0.0,0.0,0.0,0.0,0.0,0.0,0.0,0.0,0.0,0.0,-4.4144,0.0,-4.0833,-4.1058,-4.0275,-4.0129,-4.0538,-4.1037,-4.1643,-4.2238,-4.2791,-4.2974,-4.2974,-4.2974,-4.2974,-4.2974,-4.2974,-4.2974,-4.2974,-4.2974,-4.2974,-4.2974,0.0,-3.9219,0.0,0.0,-4.2703,0.0,-4.5244,-4.6635,-4.7043,-4.5601,-4.6001,-4.6323,-4.6029,-4.7074,-4.7765,-4.7713,-4.7728,-4.7728,-4.7728,-4.7593,-4.7519,-4.7519,-4.7384,-4.7309,-4.7309,-4.68,-4.5364,0.0,0.0,0.0,0.0,0.0,0.0,0.0,0.0,0.0,0.0,0.0,-4.499,-4.5813,-4.6875,-4.7309,-4.7309,-4.7309,-4.7309,-4.7309,-4.7309,-4.7309,-4.7309,-4.7309,-4.7309,-4.7309,-4.7309,-4.7309,-4.7309,-4.7309,-4.6726,-4.6107,-4.6107,-4.5568,-4.4915,-4.4915,-4.4915,-4.4869,-4.4684,-4.4638,-4.4531,-4.4359,-4.5098,-4.5535,-4.457,-4.2855,0.0,0.0,0.0,0.0,0.0,0.0,0.0,0.0,0.0,0.0,-4.0525,0.0,0.0,0.0,0.0,0.0,0.0,0.0,0.0,0.0,0.0,-4.3855,-4.5216,0.0,-4.1345,-4.1604,-4.0605,-4.0157,-4.0362,-4.0974,-4.158,-4.2074,-4.2685,-4.2974,-4.2974,-4.2974,-4.2974,-4.2974,-4.2974,-4.2974,-4.2974,-4.2974,-4.2974,-4.2974,0.0,0.0,0.0,0.0,0.0,0.0,-4.6616,-4.7706,-4.8274,-4.7748,-4.7779,-4.7925,-4.8272,-4.8409,-4.8681,-4.9075,-4.912,-4.912,-4.912,-4.8521,-4.8192,-4.8192,-4.7623,-4.7309,-4.7309,-4.7249,-4.6486,0.0,0.0,-4.1765,0.0,0.0,0.0,0.0,0.0,0.0,0.0,-4.5095,-4.5948,-4.713,-4.7249,-4.7309,-4.7309,-4.7309,-4.7309,-4.7309,-4.7309,-4.7309,-4.7309,-4.7309,-4.7309,-4.7309,-4.7309,-4.7309,-4.7309,-4.7309,-4.7207,-4.7164,-4.7164,-4.7062,-4.7019,-4.7019,-4.7019,-4.6785,-4.5883,-4.5644,-4.5417,-4.4499,-4.5098,-4.5535,-4.457,-4.5618,-4.6088,0.0,0.0,0.0,0.0,0.0,-4.5274,-4.4938,0.0,0.0,0.0,-4.0764,0.0,0.0,-4.1503,0.0,0.0,0.0,0.0,-4.6149,-4.5172,-4.4612,-4.4597,-4.3938,-4.2909,-4.1604,-4.1455,-4.082,-3.981,-4.0811,-4.1313,-4.1413,-4.2522,-4.2974,-4.2974,-4.2974,-4.2974,-4.2974,-4.2974,-4.2974,-4.2974,-4.2974,-4.2974,-4.2974,0.0,0.0,0.0,0.0,0.0,0.0,0.0,-4.8676,-4.9224,-4.9055,-4.9013,-4.913,-4.9395,-4.9442,-4.9475,-4.9464,-4.9359,-4.9314,-4.9314,-4.906,-4.8925,-4.8925,-4.8252,-4.7893,-4.7893,-4.7504,-4.6636,0.0,0.0,0.0,0.0,0.0,0.0,0.0,0.0,-4.4062,-4.5349,-4.6157,-4.6815,-4.7309,-4.7309,-4.7309,-4.7309,-4.7309,-4.7309,-4.7309,-4.7309,-4.7309,-4.7309,-4.7309,-4.7309,-4.7309,-4.7309,-4.7578,-4.7893,-4.7893,-4.8177,-4.8476,-4.8476,-4.8192,-4.7893,-4.7893,-4.7593,-4.7207,-4.6785,-4.6682,-4.6594,-4.6181,-4.6403,-4.6578,-4.6205,-4.5836,-4.5704,-4.6057,0.0,0.0,0.0,0.0,0.0,-4.6518,0.0,-4.4771,0.0,0.0,0.0,0.0,0.0,0.0,0.0,0.0,0.0,-4.6249,0.0,-4.5549,-4.5947,-4.4436,-4.3279,-4.2509,-4.1739,-4.0794,-3.9735,-4.0786,-4.1639,-4.2346,-4.2785,-4.2974,-4.2974,-4.2974,-4.2974,-4.2974,-4.2974,-4.2974,-4.2974,-4.2974,-4.2974,-4.2974,-4.5144,0.0,-4.5678,0.0,-4.759,-4.7972,-4.8789,-4.9528,-5.0051,-5.0251,-5.0282,-5.0322,-5.0372,-5.0404,-5.0347,-5.0216,-5.0065,-4.9929,-4.9883,-4.9658,-4.9553,-4.9553,-4.8925,0.0,-4.8282,-4.7833,-4.7025,-4.5888,-4.502,0.0,0.0,0.0,0.0,0.0,-4.4885,-4.5514,-4.5948,-4.6905,-4.7309,-4.7309,-4.7309,-4.7309,-4.7309,-4.7309,-4.7309,-4.7309,-4.7309,-4.7309,-4.7339,-4.7534,-4.7593,-4.7593,-4.7593,-4.8042,-4.8581,-4.8581,-4.894,-4.9314,-4.9314,-4.897,-4.8536,-4.8341,-4.7938,-4.7534,-4.7354,-4.7309,-4.7309,-4.7309,-4.7309,-4.7309,-4.7309,-4.6174,-4.5704,-4.7058,0.0,0.0,0.0,-4.7309,0.0,-4.704,-4.6426,-4.5918,-4.5618,-4.4407,0.0,0.0,0.0,0.0,0.0,0.0,0.0,0.0,0.0,0.0,-4.6606,-4.5135,-4.3989,-4.3074,-4.2133,-4.0995,-3.9735,-4.0786,-4.1944,-4.2974,-4.2974,-4.2974,-4.2974,-4.2974,-4.2974,-4.2974,-4.2974,-4.2974,-4.2974,-4.2974,-4.2974,-4.2974,-4.7962,-4.7934,-4.8016,-4.8507,-4.9174,-4.9651,-4.9666,-5.0251,-5.0928,-5.159,-5.1682,-5.1579,-5.1327,-5.1282,-5.1378,-5.1543,-5.1557,-5.1464,-5.1199,-5.0539,-5.0181,0.0,0.0,-4.9,-4.8297,-4.8282,-4.7952,-4.7279,0.0,0.0,-4.4257,0.0,-4.3444,-4.5274,-4.5289,-4.6037,-4.7279,-4.7294,-4.7309,-4.7309,-4.7309,-4.7309,-4.7309,-4.7309,-4.7309,-4.7309,-4.7309,-4.7309,-4.7399,-4.8057,-4.8282,-4.8282,-4.8282,-4.8775,-4.9299,-4.9299,-4.9299,-4.9314,-4.9314,-4.9299,-4.9149,-4.8446,-4.8282,-4.8102,-4.7459,-4.7309,-4.7309,-4.7309,-4.7309,-4.7309,-4.7309,-4.7294,-4.7279,-4.7309,0.0,0.0,0.0,-4.7309,0.0,-4.6369,-4.5723,-4.5574,-4.6204,-4.5095,0.0,0.0,0.0,0.0,0.0,0.0,0.0,-4.6279,-4.6294,0.0,-4.601,-4.6372,-4.5386,-4.3122,-4.2861,-4.168,-3.9735,-4.0786,-4.1944,-4.2974,-4.2974,-4.2974,-4.2974,-4.2974,-4.2974,-4.2974,-4.2974,-4.2974,-4.2974,-4.2974,-4.2974,-4.2974,-4.929,-4.9206,-4.9165,-4.9297,-4.9912,-5.0374,-5.0374,-5.0944,-5.1467,-5.1682,-5.2113,-5.2346,-5.2241,-5.2091,-5.2016,0.0,-5.1757,-5.1587,0.0,-5.1113,-5.0868,-5.0868,-5.0272,-4.9628,-4.9015,-4.8521,-4.7967,-4.7309,0.0,0.0,0.0,-4.5259,-4.5633,-4.6666,-4.6666,-4.6905,-4.7309,-4.7309,-4.7309,-4.7309,-4.7309,-4.7309,-4.7309,-4.7309,-4.7309,-4.7309,-4.7309,-4.7593,-4.7997,-4.8222,-4.888,-4.9613,-4.9613,-4.9763,-4.9927,-4.9927,-5.0242,-5.0601,-5.0601,-5.0272,-4.9883,-4.9673,-4.894,-4.8237,-4.8012,-4.7623,-4.7309,-4.7309,-4.7309,-4.7309,-4.7309,-4.7309,-4.7309,-4.7309,-4.7309,0.0,-4.7309,0.0,-4.7234,-4.7025,-4.68,-4.6756,-4.698,-4.6202,0.0,0.0,0.0,0.0,0.0,0.0,0.0,0.0,-4.6756,0.0,-4.6866,-4.6726,-4.5522,-4.3361,-4.2958,-4.209,-4.0774,-4.1125,-4.1944,-4.2974,-4.2974,-4.2974,-4.2974,-4.2974,-4.2974,-4.2974,-4.2974,-4.2974,-4.2974,-4.2974,-4.2974,-4.2974,-5.0735,-5.0425,-5.0232,-5.0538,-5.0863,-5.1197,-5.1495,-5.184,-5.2082,-5.2082,-5.2452,-5.2713,-5.2713,-5.2563,0.0,-5.2306,-5.2033,-5.1818,-5.1741,-5.1494,-5.1354,-5.1354,-5.0872,-5.0301,-4.9643,-4.9,0.0,-4.7683,-4.701,-4.6696,-4.6696,-4.6696,-4.692,-4.7309,-4.7309,-4.7309,-4.7309,-4.7309,-4.7309,-4.7309,-4.7309,-4.7309,-4.7309,-4.7309,-4.7309,-4.7339,-4.7593,-4.7938,-4.8356,-4.885,-4.9553,-5.024,-5.048,-5.0569,-5.0569,-5.0569,-5.0853,-5.1214,-5.1214,-5.0868,-5.045,-5.0002,-4.9254,-4.8521,-4.8027,-4.7593,-4.7309,-4.7309,-4.7309,-4.7309,-4.7309,-4.7309,-4.7309,-4.7309,-4.7309,-4.7309,-4.7309,0.0,-4.7219,0.0,0.0,0.0,0.0,-4.6576,-4.6384,0.0,0.0,0.0,0.0,0.0,-4.686,-4.6696,-4.71,-4.7309,-4.7309,-4.6521,-4.5463,-4.4069,-4.2813,-4.2086,-4.1904,-4.149,-4.1944,-4.2974,-4.2974,-4.2974,-4.2974,-4.2974,-4.2974,-4.2974,-4.2974,-4.2974,-4.2974,-4.2974,-4.2974,-4.2974,-5.2227,-5.155,-5.1259,0.0,-5.1888,-5.2036,-5.2944,-5.2869,-5.2713,-5.2713,-5.2713,-5.2713,-5.2713,-5.2713,-5.2608,-5.2352,0.0,0.0,-5.2033,-5.1787,-5.1634,-5.1634,-5.1354,-5.09,-5.0257,-4.9644,-4.897,-4.8266,-4.7608,-4.7309,-4.7309,-4.7309,-4.7309,-4.7309,-4.7309,-4.7309,-4.7309,-4.7309,-4.7309,-4.7309,-4.7309,-4.7309,-4.7309,-4.7309,-4.7309,-4.7399,-4.8057,-4.8312,-4.8551,-4.9762,-5.0226,-5.036,-5.102,-5.1214,-5.1214,-5.1214,-5.1214,-5.1214,-5.1214,-5.1214,-5.0915,-4.9658,-4.9314,-4.891,-4.7593,-4.7309,-4.7309,-4.7309,-4.7309,-4.7309,-4.7309,-4.7309,-4.7309,-4.7309,-4.7309,-4.7309,-4.7309,-4.7309,-4.707,0.0,0.0,0.0,-4.6354,-4.6354,-4.6636,0.0,0.0,0.0,0.0,0.0,-4.6636,-4.7279,-4.7309,-4.7309,-4.7309,-4.6107,-4.5358,-4.4932,-4.2412,-4.1783,-4.2866,-4.1798,-4.1944,-4.2974,-4.2974,-4.2974,-4.2974,-4.2974,-4.2974,-4.2974,-4.2974,-4.2974,-4.2974,-4.2974,-4.2974,-4.2974,0.0,0.0,-5.2564,-5.2723,-5.2617,-5.2748,-5.3627,-5.3165,-5.2713,-5.2713,-5.2713,-5.2713,-5.2713,-5.2713,-5.2669,-5.2608,-5.2412,-5.2306,-5.2215,-5.2017,-5.1895,-5.1895,-5.1649,-5.1178,-5.0516,-4.9855,-4.8952,-4.7779,-4.7456,-4.7309,-4.7309,-4.7309,-4.7309,-4.7309,-4.7309,-4.7309,-4.7309,-4.7309,-4.7309,-4.7309,-4.7309,-4.7309,-4.7309,-4.7309,-4.7309,-4.7399,-4.8057,-4.8655,-4.9194,-4.9957,-5.0524,-5.1005,-5.1169,-5.1214,-5.1214,-5.1214,-5.1214,-5.1214,-5.1214,-5.1214,-5.102,-5.0212,-4.9254,-4.8312,-4.7489,-4.7309,-4.7309,-4.7309,-4.7309,-4.7309,-4.7309,-4.7309,-4.7309,-4.7309,-4.7309,-4.7309,-4.7309,-4.7309,-4.7249,0.0,-4.707,-4.707,-4.707,-4.707,-4.6935,0.0,0.0,0.0,-4.6561,-4.6369,-4.6636,-4.7279,-4.7309,-4.7309,-4.7309,-4.6785,-4.5943,-4.4716,-4.2328,-4.1783,-4.2866,-4.1798,-4.1944,-4.2974,-4.2974,-4.2974,-4.2974,-4.2974,-4.2974,-4.2974,-4.2974,-4.2974,-4.2974,-4.2974,-4.2974,-4.2974,-5.4284,-5.4205,-5.4261,-5.4584,-5.4246,-5.4163,-5.5051,-5.412,-5.3302,-5.3302,-5.2951,-5.2713,-5.2713,-5.2713,-5.2713,-5.2713,-5.2563,-5.2457,-5.2457,-5.2291,-5.2155,-5.2155,-5.1926,-5.1621,-5.1258,-5.0442,-4.9373,-4.7917,-4.7487,-4.7309,-4.7309,-4.7309,-4.7309,-4.7309,-4.7309,-4.7309,-4.7309,-4.7309,-4.7309,-4.7309,-4.7309,-4.7309,-4.7309,-4.7309,-4.7309,-4.7429,-4.8401,-4.9,-4.9464,-5.0361,-5.0883,-5.1214,-5.1214,-5.1214,-5.1214,-5.1214,-5.1214,-5.1214,-5.1214,-5.1005,-5.0495,-4.9583,-4.8581,-4.7743,-4.7384,-4.7309,-4.7309,-4.7309,-4.7309,-4.7309,-4.7309,-4.7309,-4.7309,-4.7309,-4.7055,-4.6965,-4.7264,-4.7055,-4.698,-4.7264,-4.7309,-4.7309,-4.7309,-4.7309,-4.716,-4.68,-4.677,0.0,-4.677,-4.677,-4.6935,-4.7294,-4.7309,-4.7309,-4.7309,-4.7019,-4.627,-4.5007,-4.3807,-4.371,-4.4519,-4.3062,-4.2949,-4.3725,-4.3252,-4.2974,-4.2974,-4.2974,-4.2974,-4.2974,-4.2974,-4.2974,-4.2974,-4.2974,-4.2974,-4.2974,-5.5688,-5.5686,-5.5868,-5.6498,-5.5876,-5.5579,-5.6459,-5.5215,-5.419,-5.419,-5.3549,-5.3024,-5.2906,-5.2922,-5.2833,-5.2713,-5.2713,-5.2713,-5.2713,-5.2503,-5.2352,-5.2352,-5.2155,-5.2033,-5.2033,-5.1031,-4.9809,-4.8308,-4.7665,-4.7352,-4.7337,-4.7294,-4.7309,-4.7309,-4.7309,-4.7309,-4.7309,-4.7309,-4.7309,-4.7309,-4.7309,-4.7309,-4.7309,-4.7309,-4.7309,-4.7459,-4.8686,-4.9224,-4.9494,-5.0661,-5.1139,-5.1214,-5.1214,-5.1214,-5.1214,-5.1214,-5.1154,-5.1065,-5.1065,-5.0465,-4.9628,-4.8566,-4.7803,-4.7309,-4.7309,-4.7309,-4.7309,-4.7309,-4.7309,-4.7309,-4.7309,-4.7309,-4.7279,-4.7174,-4.677,-4.6636,-4.71,0.0,-4.6681,-4.7234,-4.7309,-4.7309,-4.7309,-4.7309,-4.7309,-4.7309,-4.7309,-4.7309,-4.7309,-4.7309,-4.7309,-4.7309,-4.7309,-4.7309,-4.7309,-4.7019,-4.6535,-4.5788,-4.5677,-4.6021,-4.6633,-4.4732,-4.4161,-4.467,-4.3504,-4.2974,-4.2974,-4.2974,-4.2974,-4.2974,-4.2974,-4.2974,-4.2974,-4.2974,-4.2974,-4.2974,-5.6469,-5.6448,-5.6481,-5.6597,-5.5876,-5.5579,-5.6459,-5.5756,-5.5092,-5.5092,-5.4985,-5.4611,-5.3864,-5.3793,-5.3505,-5.2743,-5.2713,-5.2713,-5.2713,-5.2669,-5.2653,-5.2653,-5.2412,-5.2261,-5.2261,-5.0817,-4.9482,-4.8286,-4.7797,-4.7538,-4.7553,-4.7381,-4.7309,-4.7309,-4.7309,-4.7309,-4.7309,-4.7309,-4.7309,-4.7309,-4.7309,-4.7309,-4.7309,-4.7309,-4.7309,-4.7399,-4.8162,-4.879,-4.9419,-5.0137,-5.0719,-5.1214,-5.1214,-5.1214,-5.1214,-5.1214,-5.0779,-5.0345,-5.0345,-4.9508,-4.8536,-4.8341,-4.7803,-4.7309,-4.7309,-4.7309,-4.7309,-4.7309,-4.7309,-4.7309,-4.7309,-4.7309,-4.7115,-4.6576,-4.686,-4.6995,-4.6503,0.0,-4.7189,-4.7294,-4.7309,-4.7309,-4.7309,-4.7309,-4.7309,-4.7309,-4.7309,-4.7309,-4.7309,-4.7309,-4.7309,-4.7309,-4.7309,-4.7309,-4.7309,-4.7019,-4.711,-4.7495,-4.6449,-4.6519,-4.7521,-4.5202,-4.4454,-4.49,-4.3547,-4.2974,-4.2974,-4.2974,-4.2974,-4.2974,-4.2974,-4.2974,-4.2974,-4.2974,-4.2974,-4.2974,-5.7301,-5.7293,-5.7293,-5.7293,-5.6958,-5.6844,-5.7239,-5.6559,-5.5995,-5.5995,-5.5579,-5.5133,-5.472,-5.4678,-5.4359,-5.3477,-5.339,-5.3186,-5.2758,-5.2713,-5.2713,-5.2713,-5.2563,-5.2289,-5.1771,-5.072,-4.9672,-4.8697,-4.8104,-4.7794,-4.7794,-4.7596,-4.7467,-4.7467,-4.7352,-4.7309,-4.7309,-4.7309,-4.7309,-4.7309,-4.7309,-4.7309,-4.7309,-4.7309,-4.7309,-4.7399,-4.8057,-4.8476,-4.8835,-4.9494,-4.9912,-5.0167,-5.0167,-5.0167,-5.0167,-5.0167,-5.0197,-5.0046,-4.9374,-4.8745,-4.8192,-4.7848,-4.7534,-4.7309,-4.7309,-4.7309,-4.7309,-4.7309,-4.7309,-4.7309,-4.7309,-4.7309,-4.7204,-4.6905,-4.6815,-4.68,-4.6845,-4.6815,-4.692,-4.7264,-4.7309,-4.7309,-4.7309,-4.7309,-4.7309,-4.7309,-4.7309,-4.7309,-4.7309,-4.7309,-4.7309,-4.7309,-4.7309,-4.7309,-4.7309,-4.7164,-4.7434,-4.8089,-4.7726,-4.8048,-4.8872,-4.7225,-4.6603,-4.6709,-4.4765,-4.3932,-4.3878,-4.324,-4.2974,-4.2974,-4.2974,-4.2974,-4.2974,-4.2974,-4.2974,-4.2974,-5.7881,-5.7881,-5.7881,-5.7881,-5.7881,-5.7881,-5.7881,-5.7331,-5.6899,-5.6899,-5.6325,-5.5819,-5.5619,-5.5579,-5.5255,-5.4401,-5.4317,-5.3907,-5.3069,-5.2995,-5.2906,-5.2713,-5.256,-5.2055,-5.1187,-5.0498,-4.9754,-4.8883,-4.835,-4.8049,-4.8049,-4.7752,-4.7581,-4.7581,-4.7381,-4.7309,-4.7309,-4.7309,-4.7309,-4.7309,-4.7309,-4.7309,-4.7309,-4.7309,-4.7309,-4.7369,-4.7878,-4.8162,-4.8356,-4.8865,-4.9179,-4.9314,-4.9314,-4.9314,-4.9314,-4.9314,-4.9508,-4.9553,-4.8566,-4.8177,-4.7938,-4.7429,-4.7309,-4.7309,-4.7309,-4.7309,-4.7309,-4.7309,-4.7309,-4.7309,-4.7309,-4.7309,-4.7249,-4.71,0.0,-4.6681,-4.7025,-4.677,-4.6741,-4.7249,-4.7309,-4.7309,-4.7309,-4.7309,-4.7309,-4.7309,-4.7309,-4.7309,-4.7309,-4.7309,-4.7309,-4.7309,-4.7309,-4.7309,-4.7309,-4.7459,-4.7863,-4.8521,-4.9014,-4.9563,-5.0171,-4.9072,-4.8582,-4.8482,-4.6215,-4.5074,-4.4711,-4.3823,-4.3338,-4.3085,-4.3085,-4.3085,-4.3085,-4.3085,-4.303,-4.2974,-5.7881,-5.7881,-5.7881,-5.7881,-5.7881,-5.7881,-5.7881,-5.7845,-5.7808,-5.7808,-5.7772,-5.7406,-5.6614,-5.6498,-5.6152,-5.5296,-5.5215,-5.4845,-5.3949,-5.3907,-5.3549,-5.2758,-5.2113,-5.1467,-5.0774,-5.0097,-4.9362,-4.8613,-4.8401,-4.8286,-4.8244,-4.7794,-4.7581,-4.7581,-4.7381,-4.7309,-4.7309,-4.7309,-4.7309,-4.7309,-4.7309,-4.7309,-4.7309,-4.7309,-4.7309,-4.7309,-4.7354,-4.7773,-4.8297,-4.8341,-4.8805,-4.9314,-4.9314,-4.9314,-4.9314,-4.9314,-4.8865,-4.8416,-4.8312,-4.7848,-4.7369,-4.7309,-4.7309,-4.7309,-4.7309,-4.7309,-4.7309,-4.7309,-4.7309,-4.7309,-4.7309,-4.7309,-4.7115,-4.6444,0.0,0.0,-4.6429,-4.6875,-4.7249,-4.7294,-4.7309,-4.7309,-4.7309,-4.7309,-4.7309,-4.7309,-4.7309,-4.7309,-4.7309,-4.7309,-4.7309,-4.7309,-4.7309,-4.7309,-4.7309,-4.7908,-4.8536,-4.9239,-4.9807,-5.0465,-5.1046,-4.9761,-4.9161,-4.9063,-4.7568,-4.6174,-4.4941,-4.4887,-4.4277,-4.3394,-4.3394,-4.3394,-4.3394,-4.3394,-4.3184,-4.2974,-5.7881,-5.7881,-5.7881,-5.7881,-5.7881,-5.7881,-5.7881,-5.7881,-5.7881,-5.7881,-5.7881,-5.7755,-5.7443,-5.7406,-5.6844,-5.5418,-5.5296,-5.4927,-5.4078,-5.3976,-5.3448,-5.2142,-5.1836,-5.119,-5.0082,-4.982,-4.9343,-4.862,-4.8537,-4.8495,-4.8495,-4.8175,-4.7964,-4.7837,-4.7581,-4.7424,-4.7309,-4.7309,-4.7309,-4.7309,-4.7309,-4.7309,-4.7309,-4.7309,-4.7309,-4.7309,-4.7309,-4.7459,-4.7683,-4.7683,-4.7848,-4.8057,-4.8057,-4.8057,-4.8057,-4.8057,-4.7878,-4.7683,-4.7683,-4.7489,-4.7309,-4.7309,-4.7309,-4.7309,-4.7309,-4.7309,-4.7309,-4.7309,-4.7309,-4.7309,-4.7309,-4.7309,-4.7219,-4.698,0.0,-4.7219,-4.6965,-4.7145,-4.7309,-4.7309,-4.7309,-4.7309,-4.7309,-4.7309,-4.7309,-4.7309,-4.7309,-4.7309,-4.7309,-4.7309,-4.7309,-4.7309,-4.7698,-4.7923,-4.7923,-4.8162,-4.882,-4.9868,-5.0076,-5.0539,-5.1167,-5.0493,-5.0191,-5.0143,-4.8766,-4.785,-4.729,-4.6591,-4.6069,-4.5714,-4.5714,-4.5316,-4.4711,-4.4711,-4.4084,-4.324,-5.7881,-5.7881,-5.7881,-5.7881,-5.7881,-5.7881,-5.7881,-5.7881,-5.7881,-5.7881,-5.7881,-5.7881,-5.7881,-5.7881,-5.7406,-5.6231,-5.6113,-5.574,-5.4886,-5.4361,-5.3471,-5.2148,-5.1685,-5.0905,-4.9712,-4.9466,-4.9112,-4.862,-4.862,-4.862,-4.862,-4.8412,-4.8218,-4.8091,-4.7837,-4.7581,-4.7381,-4.7381,-4.7337,-4.7309,-4.7309,-4.7309,-4.7309,-4.7309,-4.7309,-4.7309,-4.7309,-4.7309,-4.7309,-4.7309,-4.7309,-4.7309,-4.7309,-4.7309,-4.7309,-4.7309,-4.7309,-4.7309,-4.7309,-4.7309,-4.7309,-4.7309,-4.7309,-4.7309,-4.7309,-4.7309,-4.7309,-4.7309,-4.7309,-4.7309,-4.7309,-4.7309,-4.7309,-4.7309,-4.7309,-4.7309,-4.7309,-4.7309,-4.7309,-4.7309,-4.7309,-4.7309,-4.7309,-4.7309,-4.7309,-4.7309,-4.7309,-4.7309,-4.7309,-4.7504,-4.7608,-4.7608,-4.8252,-4.8686,-4.8895,-4.8895,-4.9359,-5.0196,-5.0405,-5.0734,-5.1167,-5.1011,-5.0917,-5.0855,-4.995,-4.9288,-4.888,-4.8088,-4.7568,-4.7276,-4.7276,-4.6813,-4.611,-4.6162,-4.5489,-4.4576,-5.7881,-5.7881,-5.7881,-5.7881,-5.7881,-5.7881,-5.7881,-5.7881,-5.7881,-5.7881,-5.7881,-5.7881,-5.7881,-5.7881,-5.7881,-5.7881,-5.7881,-5.7534,-5.6652,-5.5087,-5.3841,-5.3059,-5.1638,-5.052,-4.9708,-4.8974,-4.862,-4.862,-4.862,-4.862,-4.862,-4.8412,-4.8286,-4.8286,-4.8091,-4.7837,-4.7581,-4.7581,-4.751,-4.7309,-4.7309,-4.7309,-4.7309,-4.7309,-4.7309,-4.7309,-4.7309,-4.7309,-4.7309,-4.7309,-4.7309,-4.7309,-4.7309,-4.7309,-4.7309,-4.7309,-4.7309,-4.7309,-4.7309,-4.7309,-4.7309,-4.7309,-4.7309,-4.7309,-4.7309,-4.7309,-4.7309,-4.7309,-4.7309,-4.7309,-4.7309,-4.7309,-4.7309,-4.7309,-4.7309,-4.7309,-4.7309,-4.7309,-4.7309,-4.7309,-4.7309,-4.7309,-4.7309,-4.7309,-4.7309,-4.7309,-4.7309,-4.7309,-4.7309,-4.7938,-4.8282,-4.8297,-4.8985,-4.9583,-5.0181,-5.0196,-5.0196,-5.0211,-5.0868,-5.1214,-5.1214,-5.1214,-5.1214,-5.1214,-5.1214,-5.0445,-4.921,-4.921,-4.8617,-4.761,-4.761,-4.7596,-4.7517,-4.7596,-4.7392,-4.7094,-5.7881,-5.7881,-5.7881,-5.7881,-5.7881,-5.7881,-5.7881,-5.7881,-5.7881,-5.7881,-5.7881,-5.7881,-5.7881,-5.7881,-5.7645,-5.7051,-5.6975,-5.6666,-5.5868,-5.4968,-5.4123,-5.3307,-5.1741,-5.0569,-4.9855,-4.9042,-4.862,-4.862,-4.862,-4.862,-4.862,-4.8537,-4.8453,-4.8286,-4.8244,-4.8091,-4.788,-4.788,-4.7752,-4.751,-4.751,-4.7424,-4.7309,-4.7309,-4.7309,-4.7309,-4.7309,-4.7309,-4.7309,-4.7309,-4.7309,-4.7309,-4.7309,-4.7309,-4.7309,-4.7309,-4.7309,-4.7309,-4.7309,-4.7309,-4.7309,-4.7309,-4.7309,-4.7309,-4.7309,-4.7309,-4.7309,-4.7309,-4.7309,-4.7309,-4.7309,-4.7309,-4.7309,-4.7309,-4.7309,-4.7309,-4.7309,-4.7309,-4.7309,-4.7309,-4.7309,-4.7309,-4.7309,-4.7309,-4.7309,-4.7309,-4.7309,-4.7504,-4.7967,-4.8177,-4.8506,-4.9,-4.9613,-5.0001,-5.0196,-5.0196,-5.042,-5.0883,-5.1124,-5.1214,-5.1214,-5.1214,-5.1214,-5.1214,-5.1214,-5.0964,-5.0603,-5.0603,-5.0397,-5.0143,-5.0143,-4.9645,-4.8993,-4.9007,-4.8245,-4.7163,-5.7881,-5.7881,-5.7881,-5.7881,-5.7881,-5.7881,-5.7881,-5.7881,-5.7881,-5.7881,-5.7881,-5.7881,-5.7881,-5.7881,-5.7698,-5.7164,-5.6838,-5.622,-5.5202,-5.4812,-5.4259,-5.345,-5.2149,-5.0964,-4.9924,-4.9041,-4.862,-4.862,-4.862,-4.862,-4.862,-4.862,-4.8537,-4.8412,-4.8412,-4.8286,-4.8133,-4.8133,-4.7964,-4.7752,-4.7752,-4.7639,-4.7424,-4.7424,-4.7396,-4.7309,-4.7309,-4.7309,-4.7309,-4.7309,-4.7309,-4.7309,-4.7309,-4.7309,-4.7309,-4.7309,-4.7309,-4.7309,-4.7309,-4.7309,-4.7309,-4.7309,-4.7309,-4.7309,-4.7309,-4.7309,-4.7309,-4.7309,-4.7309,-4.7309,-4.7309,-4.7309,-4.7309,-4.7309,-4.7309,-4.7309,-4.7309,-4.7309,-4.7309,-4.7309,-4.7309,-4.7309,-4.7309,-4.7309,-4.7309,-4.7309,-4.7549,-4.7863,-4.8267,-4.8775,-4.9239,-4.9643,-5.0287,-5.0584,-5.0584,-5.0584,-5.0779,-5.1214,-5.1214,-5.1214,-5.1214,-5.1214,-5.1214,-5.1214,-5.1214,-5.1214,-5.1214,-5.1214,-5.1214,-5.1214,-5.1214,-5.0822,-5.022,-5.022,-4.9611,-4.8759,-5.7881,-5.7881,-5.7881,-5.7881,-5.7881,-5.7881,-5.7881,-5.7881,-5.7881,-5.7881,-5.7881,-5.7881,-5.7881,-5.7881,-5.7865,-5.7797,-5.707,-5.6038,-5.4685,-5.4532,-5.4194,-5.3534,-5.2729,-5.1623,-5.0143,-4.9284,-4.8811,-4.8728,-4.8728,-4.8687,-4.862,-4.862,-4.862,-4.862,-4.862,-4.8495,-4.8328,-4.8328,-4.8202,-4.8049,-4.8049,-4.788,-4.7639,-4.7639,-4.751,-4.7352,-4.7352,-4.7309,-4.7309,-4.7309,-4.7309,-4.7309,-4.7309,-4.7309,-4.7309,-4.7309,-4.7309,-4.7309,-4.7309,-4.7309,-4.7309,-4.7309,-4.7309,-4.7309,-4.7309,-4.7309,-4.7309,-4.7309,-4.7309,-4.7309,-4.7309,-4.7309,-4.7309,-4.7309,-4.7309,-4.7309,-4.7309,-4.7309,-4.7309,-4.7309,-4.7309,-4.7309,-4.7309,-4.7354,-4.7399,-4.7399,-4.7997,-4.8401,-4.8461,-4.9598,-5.0226,-5.0285,-5.0868,-5.1214,-5.1214,-5.1214,-5.1214,-5.1214,-5.1214,-5.1214,-5.1214,-5.1214,-5.1214,-5.1214,-5.1214,-5.1214,-5.1214,-5.1214,-5.1214,-5.1214,-5.1214,-5.1214,-5.1214,-5.1214,-5.1167,-5.1167,-5.7881,-5.7881,-5.7881,-5.7881,-5.7881,-5.7881,-5.7881,-5.7881,-5.7881,-5.7881,-5.7881,-5.7881,-5.7881,-5.7881,-5.7662,-5.7087,-5.5835,-5.4938,-5.4617,-5.4059,-5.367,-5.3518,-5.2729,-5.2128,-5.1786,-5.0957,-5.0229,-4.9646,-4.9646,-4.9284,-4.862,-4.862,-4.862,-4.862,-4.862,-4.8578,-4.8537,-4.8537,-4.8412,-4.8244,-4.8244,-4.8091,-4.7922,-4.7922,-4.7767,-4.7553,-4.7553,-4.7424,-4.7309,-4.7309,-4.7309,-4.7309,-4.7309,-4.7309,-4.7309,-4.7309,-4.7309,-4.7309,-4.7309,-4.7309,-4.7309,-4.7309,-4.7309,-4.7309,-4.7309,-4.7309,-4.7309,-4.7309,-4.7309,-4.7309,-4.7309,-4.7309,-4.7309,-4.7309,-4.7309,-4.7309,-4.7309,-4.7309,-4.7309,-4.7309,-4.7309,-4.7309,-4.7309,-4.7773,-4.8072,-4.8072,-4.8686,-4.9269,-4.9747,-5.0046,-5.042,-5.099,-5.1139,-5.1214,-5.1214,-5.1214,-5.1214,-5.1214,-5.1214,-5.1214,-5.1214,-5.1214,-5.1214,-5.1214,-5.1214,-5.1214,-5.1214,-5.1214,-5.1214,-5.1214,-5.1214,-5.1214,-5.1214,-5.1214,-5.1058,-5.087,-5.7814,-5.7881,-5.7881,-5.7881,-5.7881,-5.7881,-5.7881,-5.7881,-5.7881,-5.7881,-5.7881,-5.7881,-5.7881,-5.7577,-5.6934,-5.5852,-5.504,-5.4448,-5.4093,-5.3721,-5.3501,-5.3501,-5.3093,-5.2868,-5.2868,-5.2449,-5.1643,-5.0477,-5.0477,-5.0229,-4.9797,-4.9797,-4.9797,-4.9797,-4.9797,-4.9797,-4.9773,-4.939,-4.9163,-4.9041,-4.8604,-4.8328,-4.8133,-4.8133,-4.8007,-4.7752,-4.7624,-4.7467,-4.7309,-4.7309,-4.7309,-4.7309,-4.7309,-4.7309,-4.7309,-4.7309,-4.7309,-4.7309,-4.7309,-4.7309,-4.7309,-4.7309,-4.7309,-4.7309,-4.7309,-4.7309,-4.7309,-4.7309,-4.7309,-4.7309,-4.7309,-4.7309,-4.7309,-4.7309,-4.7309,-4.7309,-4.7309,-4.7309,-4.7309,-4.7309,-4.7309,-4.7429,-4.7743,-4.8371,-4.8805,-4.8805,-4.9359,-4.9883,-5.0166,-5.048,-5.0823,-5.1214,-5.1214,-5.1214,-5.1214,-5.1214,-5.1214,-5.1214,-5.1214,-5.1214,-5.1214,-5.1214,-5.1214,-5.1214,-5.1214,-5.1214,-5.1214,-5.1214,-5.1214,-5.1214,-5.1214,-5.1214,-5.1214,-5.1214,-5.112,-5.0964,-5.7577,-5.7797,-5.7881,-5.7881,-5.7881,-5.7881,-5.7881,-5.7881,-5.7881,-5.7881,-5.7881,-5.7831,-5.7712,-5.6934,-5.5936,-5.4702,-5.4482,-5.4143,-5.3551,-5.3501,-5.3501,-5.3501,-5.3501,-5.3501,-5.3501,-5.3501,-5.2782,-5.1311,-5.1311,-5.122,-5.1107,-5.1107,-5.1107,-5.1107,-5.1107,-5.1107,-5.107,-5.04,-5.0104,-5.0026,-4.9163,-4.8728,-4.8578,-4.8412,-4.8218,-4.8007,-4.7794,-4.7553,-4.7352,-4.7294,-4.7309,-4.7309,-4.7309,-4.7309,-4.7309,-4.7309,-4.7309,-4.7309,-4.7309,-4.7309,-4.7309,-4.7309,-4.7309,-4.7309,-4.7309,-4.7309,-4.7309,-4.7309,-4.7309,-4.7309,-4.7309,-4.7309,-4.7309,-4.7309,-4.7309,-4.7309,-4.7309,-4.7309,-4.7339,-4.7459,-4.7578,-4.7863,-4.8401,-4.9045,-4.9434,-4.9434,-5.0032,-5.036,-5.036,-5.0883,-5.1214,-5.1214,-5.1214,-5.1214,-5.1214,-5.1214,-5.1214,-5.1214,-5.1214,-5.1214,-5.1214,-5.1214,-5.1214,-5.1214,-5.1214,-5.1214,-5.1214,-5.1214,-5.1214,-5.1214,-5.1214,-5.1214,-5.1214,-5.1214,-5.1214,-5.1167,-5.6934,-5.7459,-5.7881,-5.7881,-5.7881,-5.7881,-5.7881,-5.7881,-5.7881,-5.7881,-5.7881,-5.7645,-5.7019,-5.5716,-5.4803,-5.4617,-5.4008,-5.3619,-5.3518,-5.3501,-5.3501,-5.3501,-5.3501,-5.3501,-5.3501,-5.3501,-5.3058,-5.2148,-5.2148,-5.1769,-5.1107,-5.1107,-5.1107,-5.1107,-5.1107,-5.1107,-5.1107,-5.0995,-5.0957,-5.0881,-5.0049,-4.9725,-4.959,-4.8852,-4.8453,-4.8244,-4.8218,-4.7922,-4.7553,-4.7337,-4.7309,-4.7309,-4.7309,-4.7309,-4.7309,-4.7309,-4.7309,-4.7309,-4.7309,-4.7309,-4.7309,-4.7309,-4.7309,-4.7309,-4.7309,-4.7309,-4.7309,-4.7309,-4.7309,-4.7309,-4.7309,-4.7309,-4.7309,-4.7309,-4.7309,-4.7309,-4.7309,-4.7309,-4.7519,-4.8087,-4.87,-4.909,-4.9164,-4.9718,-5.0061,-5.0061,-5.0705,-5.1079,-5.1079,-5.1169,-5.1214,-5.1214,-5.1214,-5.1214,-5.1214,-5.1214,-5.1214,-5.1214,-5.1214,-5.1214,-5.1214,-5.1214,-5.1214,-5.1214,-5.1214,-5.1214,-5.1214,-5.1214,-5.1214,-5.1214,-5.1214,-5.1214,-5.1214,-5.1214,-5.1214,-5.1167,-5.6246,-5.6853,-5.7289,-5.7289,-5.7628,-5.7881,-5.7881,-5.7881,-5.7881,-5.7881,-5.7526,-5.7154,-5.685,-5.548,-5.4431,-5.4008,-5.3687,-5.3501,-5.3501,-5.3501,-5.3501,-5.3501,-5.3501,-5.3501,-5.3501,-5.3501,-5.3314,-5.2972,-5.2972,-5.2782,-5.2433,-5.2433,-5.2433,-5.2433,-5.2433,-5.2433,-5.2397,-5.1951,-5.1769,-5.1696,-5.0881,-5.0576,-5.0538,-5.0151,-4.9955,-4.9797,-4.9213,-4.8682,-4.8198,-4.7651,-4.7381,-4.7309,-4.7309,-4.7309,-4.7309,-4.7309,-4.7309,-4.7309,-4.7309,-4.7309,-4.7309,-4.7309,-4.7309,-4.7399,-4.7773,-4.7863,-4.7743,-4.7384,-4.7309,-4.7414,-4.7788,-4.7863,-4.7967,-4.8341,-4.8401,-4.8401,-4.8401,-4.8401,-4.8506,-4.879,-4.9404,-4.9808,-4.9808,-5.0391,-5.0749,-5.0749,-5.1003,-5.1214,-5.1214,-5.1214,-5.1214,-5.1214,-5.1214,-5.1214,-5.1214,-5.1214,-5.1214,-5.1214,-5.1214,-5.1214,-5.1214,-5.1214,-5.1214,-5.1214,-5.1214,-5.1214,-5.1214,-5.1214,-5.1214,-5.1214,-5.1214,-5.1214,-5.1214,-5.1214,-5.1214,-5.1214]},{"header":{"parameterUnit":"m.s-1","parameterCategory":1,"la1":30.6,"la2":28.766,"lo1":-90.7593,"lo2":-88.6598,"dy":0.0162,"dx":0.0183,"nx":116,"ny":114,"refTime":"2023-07-05T06:00:00:Z","depth":0,"parameterNumber":3,"parameterNumberName":"V-component_of_WINDS"},"data":[0.0,0.0,0.0,0.0,0.0,0.0,0.0,0.0,0.0,0.0,0.0,0.0,0.0,0.0,0.0,0.0,0.0,0.0,0.0,0.0,0.0,0.0,0.0,0.0,0.0,0.0,0.0,0.0,0.0,0.0,0.0,0.0,0.0,0.0,0.0,0.0,0.0,0.0,0.0,0.0,0.0,0.0,0.0,0.0,0.0,0.0,0.0,0.0,0.0,0.0,0.0,0.0,0.0,0.0,0.0,0.0,0.0,0.0,0.0,0.0,0.0,0.0,0.0,0.0,0.0,0.0,0.0,0.0,0.0,0.0,0.0,0.0,0.0,0.0,0.0,0.0,0.0,0.0,0.0,0.0,0.0,0.0,0.0,0.0,0.0,0.0,0.0,0.0,0.0,0.0,0.0,0.0,0.0,0.0,0.0,0.0,0.0,0.0,0.0,0.0,0.0,0.0,0.0,0.0,0.0,0.0,0.0,0.0,0.0,0.0,0.0,0.0,0.0,0.0,0.0,0.0,0.0,0.0,0.0,0.0,0.0,0.0,0.0,0.0,0.0,0.0,0.0,0.0,0.0,0.0,0.0,0.0,0.0,0.0,0.0,0.0,0.0,0.0,0.0,0.0,0.0,0.0,0.0,0.0,0.0,0.0,0.0,0.0,0.0,0.0,0.0,0.0,0.0,0.0,0.0,0.0,0.0,0.0,0.0,0.0,0.0,0.0,0.0,0.0,0.0,0.0,0.0,0.0,0.0,0.0,0.0,0.0,0.0,0.0,0.0,0.0,0.0,0.0,0.0,0.0,0.0,0.0,0.0,0.0,0.0,0.0,0.0,0.0,0.0,0.0,0.0,0.0,0.0,0.0,0.0,0.0,0.0,0.0,0.0,0.0,0.0,0.0,0.0,0.0,0.0,0.0,0.0,0.0,0.0,0.0,0.0,0.0,0.0,0.0,0.0,0.0,0.0,0.0,0.0,0.0,0.0,0.0,0.0,0.0,0.0,0.0,0.0,0.0,0.0,0.0,0.0,0.0,0.0,0.0,0.0,0.0,0.0,0.0,0.0,0.0,0.0,0.0,0.0,0.0,0.0,0.0,0.0,0.0,0.0,0.0,0.0,0.0,0.0,0.0,0.0,0.0,0.0,0.0,0.0,0.0,0.0,0.0,0.0,0.0,0.0,0.0,0.0,0.0,0.0,0.0,0.0,0.0,0.0,0.0,0.0,0.0,0.0,0.0,0.0,0.0,0.0,0.0,0.0,0.0,0.0,0.0,0.0,0.0,0.0,0.0,0.0,0.0,0.0,0.0,0.0,0.0,0.0,0.0,0.0,0.0,0.0,0.0,0.0,0.0,0.0,0.0,0.0,0.0,0.0,0.0,0.0,0.0,0.0,0.0,0.0,0.0,0.0,0.0,0.0,0.0,0.0,0.0,0.0,0.0,0.0,0.0,0.0,0.0,0.0,0.0,0.0,0.0,0.0,0.0,0.0,0.0,0.0,0.0,0.0,0.0,0.0,0.0,0.0,0.0,0.0,0.0,0.0,0.0,0.0,0.0,0.0,0.0,0.0,0.0,0.0,0.0,0.0,0.0,0.0,0.0,0.0,0.0,0.0,0.0,0.0,0.0,0.0,0.0,0.0,0.0,0.0,0.0,0.0,0.0,0.0,0.0,0.0,0.0,0.0,0.0,0.0,0.0,0.0,0.0,0.0,0.0,0.0,0.0,0.0,0.0,0.0,0.0,0.0,0.0,0.0,0.0,0.0,0.0,0.0,0.0,0.0,0.0,0.0,0.0,0.0,0.0,0.0,0.0,0.0,0.0,0.0,0.0,0.0,0.0,0.0,0.0,0.0,0.0,0.0,0.0,0.0,0.0,0.0,0.0,0.0,0.0,0.0,0.0,0.0,0.0,0.0,0.0,0.0,0.0,0.0,0.0,0.0,0.0,0.0,0.0,0.0,0.0,0.0,0.0,0.0,0.0,0.0,0.0,0.0,0.0,0.0,0.0,0.0,0.0,0.0,0.0,0.0,0.0,0.0,0.0,0.0,0.0,0.0,0.0,0.0,0.0,0.0,0.0,0.0,0.0,0.0,0.0,0.0,0.0,0.0,0.0,0.0,0.0,0.0,0.0,0.0,0.0,0.0,0.0,0.0,0.0,0.0,0.0,0.0,0.0,0.0,0.0,0.0,0.0,0.0,0.0,0.0,0.0,0.0,0.0,0.0,0.0,0.0,0.0,0.0,0.0,0.0,0.0,0.0,0.0,0.0,0.0,0.0,0.0,0.0,0.0,0.0,0.0,0.0,0.0,0.0,0.0,0.0,0.0,0.0,0.0,0.0,0.0,0.0,0.0,0.0,0.0,0.0,0.0,0.0,0.0,0.0,0.0,0.0,0.0,0.0,0.0,0.0,0.0,0.0,0.0,0.0,0.0,0.0,0.0,0.0,0.0,0.0,0.0,0.0,0.0,0.0,0.0,0.0,0.0,0.0,0.0,0.0,0.0,0.0,0.0,0.0,0.0,0.0,0.0,0.0,0.0,0.0,0.0,0.0,0.0,0.0,0.0,0.0,0.0,0.0,0.0,0.0,0.0,0.0,0.0,0.0,0.0,0.0,0.0,0.0,0.0,0.0,0.0,0.0,0.0,0.0,0.0,0.0,0.0,0.0,0.0,0.0,0.0,0.0,0.0,0.0,0.0,0.0,0.0,0.0,0.0,0.0,0.0,0.0,0.0,0.0,0.0,0.0,0.0,0.0,0.0,0.0,0.0,0.0,0.0,0.0,0.0,0.0,0.0,0.0,0.0,0.0,0.0,0.0,0.0,0.0,0.0,0.0,0.0,0.0,0.0,0.0,0.0,0.0,0.0,0.0,0.0,0.0,0.0,0.0,0.0,0.0,0.0,0.0,0.0,0.0,0.0,0.0,0.0,0.0,0.0,0.0,0.0,0.0,0.0,0.0,0.0,0.0,0.0,0.0,0.0,0.0,0.0,0.0,0.0,0.0,0.0,0.0,0.0,0.0,0.0,0.0,0.0,0.0,0.0,0.0,0.0,0.0,0.0,0.0,0.0,0.0,0.0,0.0,0.0,0.0,0.0,0.0,0.0,0.0,0.0,0.0,0.0,0.0,0.0,0.0,0.0,0.0,0.0,0.0,0.0,0.0,0.0,0.0,0.0,0.0,0.0,0.0,0.0,0.0,0.0,0.0,0.0,0.0,0.0,0.0,0.0,0.0,0.0,0.0,0.0,0.0,0.0,0.0,0.0,0.0,0.0,0.0,0.0,0.0,0.0,0.0,0.0,0.0,0.0,0.0,0.0,0.0,0.0,0.0,0.0,0.0,0.0,0.0,0.0,0.0,0.0,0.0,0.0,0.0,0.0,0.0,0.0,0.0,0.0,0.0,0.0,0.0,0.0,0.0,0.0,0.0,0.0,0.0,0.0,0.0,0.0,0.0,0.0,0.0,0.0,0.0,0.0,0.0,0.0,0.0,0.0,0.0,0.0,0.0,0.0,0.0,0.0,0.0,0.0,0.0,0.0,0.0,0.0,0.0,0.0,0.0,0.0,0.0,0.0,0.0,0.0,0.0,0.0,0.0,0.0,0.0,0.0,0.0,0.0,0.0,0.0,0.0,0.0,0.0,0.0,0.0,0.0,0.0,0.0,0.0,0.0,0.0,0.0,0.0,0.0,0.0,0.0,0.0,0.0,0.0,0.0,0.0,0.0,0.0,0.0,0.0,0.0,0.0,0.0,0.0,0.0,0.0,0.0,0.0,0.0,0.0,0.0,0.0,0.0,0.0,0.0,0.0,0.0,0.0,0.0,0.0,0.0,0.0,0.0,0.0,0.0,0.0,0.0,0.0,0.0,0.0,0.0,0.0,0.0,0.0,0.0,0.0,0.0,0.0,0.0,0.0,0.0,0.0,0.0,0.0,0.0,0.0,0.0,0.0,0.0,0.0,0.0,0.0,0.0,0.0,0.0,0.0,0.0,0.0,0.0,0.0,0.0,0.0,0.0,0.0,0.0,0.0,0.0,0.0,0.0,0.0,0.0,0.0,0.0,0.0,0.0,0.0,0.0,0.0,0.0,0.0,0.0,0.0,0.0,0.0,0.0,0.0,0.0,0.0,0.0,0.0,0.0,0.0,0.0,0.0,0.0,0.0,0.0,0.0,0.0,0.0,0.0,0.0,0.0,0.0,0.0,0.0,0.0,0.0,0.0,0.0,0.0,0.0,0.0,0.0,0.0,0.0,0.0,0.0,0.0,0.0,0.0,0.0,0.0,0.0,0.0,0.0,0.0,0.0,0.0,0.0,0.0,0.0,0.0,0.0,0.0,0.0,0.0,0.0,0.0,0.0,0.0,0.0,0.0,0.0,0.0,0.0,0.0,0.0,0.0,0.0,0.0,0.0,0.0,0.0,0.0,0.0,0.0,0.0,0.0,0.0,0.0,0.0,0.0,0.0,0.0,0.0,0.0,0.0,0.0,0.0,0.0,0.0,0.0,0.0,0.0,0.0,0.0,0.0,0.0,0.0,0.0,0.0,0.0,0.0,0.0,0.0,0.0,0.0,0.0,0.0,0.0,0.0,0.0,0.0,0.0,0.0,0.0,0.0,0.0,0.0,0.0,0.0,0.0,0.0,0.0,0.0,0.0,0.0,0.0,0.0,0.0,0.0,0.0,0.0,0.0,0.0,0.0,0.0,0.0,0.0,0.0,0.0,0.0,0.0,0.0,0.0,0.0,0.0,0.0,0.0,0.0,0.0,0.0,0.0,0.0,0.0,0.0,0.0,0.0,0.0,0.0,0.0,0.0,0.0,0.0,0.0,0.0,0.0,0.0,0.0,0.0,0.0,0.0,0.0,0.0,0.0,0.0,0.0,0.0,0.0,0.0,0.0,0.0,0.0,0.0,0.0,0.0,0.0,0.0,0.0,0.0,0.0,0.0,0.0,0.0,0.0,0.0,0.0,0.0,0.0,0.0,0.0,0.0,0.0,0.0,0.0,0.0,0.0,0.0,0.0,0.0,0.0,0.0,0.0,0.0,0.0,0.0,0.0,0.0,0.0,0.0,0.0,0.0,0.0,0.0,0.0,0.0,0.0,0.0,0.0,0.0,0.0,0.0,0.0,0.0,0.0,0.0,0.0,0.0,0.0,0.0,0.0,0.0,0.0,0.0,0.0,0.0,0.0,0.0,0.0,0.0,0.0,0.0,0.0,0.0,0.0,0.0,0.0,0.0,0.0,0.0,0.0,0.0,0.0,0.0,0.0,0.0,0.0,0.0,0.0,0.0,0.0,0.0,0.0,0.0,0.0,0.0,0.0,0.0,0.0,0.0,0.0,0.0,0.0,0.0,0.0,0.0,0.0,0.0,0.0,0.0,0.0,0.0,0.0,0.0,0.0,0.0,0.0,0.0,0.0,0.0,0.0,0.0,0.0,0.0,0.0,0.0,0.0,0.0,0.0,0.0,0.0,0.0,0.0,0.0,0.0,0.0,0.0,0.0,0.0,0.0,0.0,0.0,0.0,0.0,0.0,0.0,0.0,0.0,0.0,0.0,0.0,0.0,0.0,0.0,0.0,0.0,0.0,0.0,0.0,0.0,0.0,0.0,0.0,0.0,0.0,0.0,0.0,0.0,0.0,0.0,0.0,0.0,0.0,0.0,0.0,0.0,0.0,0.0,0.0,0.0,0.0,0.0,0.0,0.0,0.0,0.0,0.0,0.0,0.0,0.0,0.0,0.0,0.0,0.0,0.0,0.0,0.0,0.0,0.0,0.0,0.0,0.0,0.0,0.0,0.0,0.0,0.0,0.0,0.0,0.0,0.0,0.0,0.0,0.0,0.0,0.0,0.0,0.0,0.0,0.0,0.0,0.0,0.0,0.0,0.0,0.0,0.0,0.0,0.0,0.0,0.0,0.0,0.0,0.0,0.0,0.0,0.0,0.0,0.0,0.0,0.0,0.0,0.0,0.0,0.0,0.0,0.0,0.0,0.0,0.0,0.0,0.0,0.0,0.0,0.0,0.0,0.0,0.0,0.0,0.0,0.0,0.0,0.0,0.0,0.0,0.0,0.0,0.0,0.0,0.0,0.0,0.0,0.0,0.0,0.0,0.0,-4.1103,0.0,0.0,0.0,0.0,0.0,0.0,0.0,0.0,0.0,0.0,0.0,0.0,0.0,0.0,0.0,0.0,0.0,0.0,0.0,0.0,0.0,0.0,0.0,0.0,0.0,0.0,0.0,0.0,0.0,0.0,0.0,0.0,0.0,0.0,0.0,0.0,0.0,0.0,0.0,0.0,0.0,0.0,0.0,0.0,0.0,0.0,0.0,0.0,0.0,0.0,0.0,0.0,0.0,0.0,0.0,0.0,0.0,0.0,0.0,0.0,0.0,0.0,0.0,0.0,0.0,0.0,0.0,0.0,0.0,0.0,0.0,0.0,0.0,0.0,0.0,0.0,0.0,0.0,0.0,0.0,0.0,0.0,0.0,0.0,0.0,0.0,0.0,0.0,0.0,0.0,0.0,0.0,0.0,0.0,0.0,0.0,0.0,0.0,0.0,0.0,0.0,0.0,0.0,0.0,0.0,0.0,0.0,0.0,0.0,0.0,0.0,0.0,0.0,0.0,0.0,0.0,-4.1981,0.0,0.0,0.0,0.0,0.0,0.0,0.0,0.0,0.0,0.0,0.0,0.0,0.0,0.0,0.0,0.0,0.0,0.0,0.0,0.0,0.0,0.0,0.0,0.0,0.0,0.0,0.0,0.0,0.0,0.0,0.0,0.0,0.0,0.0,0.0,0.0,0.0,0.0,0.0,0.0,0.0,0.0,0.0,0.0,0.0,0.0,0.0,0.0,0.0,0.0,0.0,0.0,0.0,0.0,0.0,0.0,0.0,0.0,0.0,0.0,0.0,0.0,0.0,0.0,0.0,0.0,0.0,0.0,0.0,0.0,0.0,0.0,0.0,0.0,0.0,0.0,0.0,0.0,0.0,0.0,0.0,0.0,0.0,0.0,0.0,0.0,0.0,0.0,0.0,0.0,0.0,0.0,0.0,0.0,0.0,0.0,0.0,0.0,0.0,0.0,0.0,0.0,0.0,0.0,0.0,0.0,0.0,0.0,-4.3057,-4.3202,-4.3202,-4.3202,-4.4155,-4.575,-4.474,-4.4854,-4.5531,0.0,0.0,0.0,0.0,0.0,0.0,0.0,0.0,0.0,0.0,0.0,0.0,0.0,0.0,0.0,0.0,0.0,0.0,0.0,0.0,0.0,0.0,0.0,0.0,0.0,0.0,0.0,0.0,0.0,0.0,0.0,0.0,0.0,0.0,0.0,0.0,0.0,0.0,0.0,0.0,0.0,0.0,0.0,0.0,0.0,0.0,0.0,0.0,0.0,0.0,0.0,0.0,0.0,0.0,0.0,0.0,0.0,0.0,0.0,0.0,0.0,0.0,0.0,0.0,0.0,0.0,0.0,0.0,0.0,0.0,0.0,0.0,0.0,0.0,0.0,0.0,0.0,0.0,0.0,0.0,0.0,0.0,0.0,0.0,0.0,0.0,0.0,-4.0762,-4.1559,0.0,0.0,0.0,0.0,0.0,0.0,0.0,0.0,0.0,0.0,0.0,0.0,0.0,-4.2029,-4.2061,-4.3815,-4.4723,-4.474,-4.6421,-4.7242,-4.7242,-4.7242,-4.7737,-4.8564,-4.8398,0.0,-4.6452,-4.5351,0.0,0.0,0.0,0.0,0.0,0.0,0.0,0.0,0.0,0.0,0.0,0.0,0.0,0.0,0.0,0.0,0.0,0.0,0.0,0.0,0.0,0.0,0.0,0.0,0.0,0.0,0.0,0.0,0.0,0.0,0.0,0.0,0.0,0.0,0.0,0.0,0.0,0.0,0.0,0.0,0.0,0.0,0.0,0.0,0.0,0.0,0.0,0.0,0.0,0.0,0.0,0.0,0.0,0.0,0.0,0.0,0.0,0.0,0.0,0.0,0.0,0.0,0.0,0.0,0.0,0.0,0.0,0.0,0.0,0.0,0.0,0.0,0.0,0.0,0.0,0.0,0.0,0.0,0.0,0.0,0.0,0.0,0.0,0.0,0.0,-4.0257,-4.1194,-4.1731,-4.1216,-4.0773,0.0,0.0,0.0,0.0,0.0,0.0,0.0,0.0,0.0,-4.4071,-4.4511,-4.4951,-4.544,-4.629,-4.693,-4.7342,-4.82,-4.8845,-4.9243,-4.9243,-4.9425,-4.9723,-4.9723,-4.9342,-4.8547,-4.7325,-4.619,-4.5092,0.0,0.0,0.0,0.0,-4.359,-4.4063,0.0,0.0,0.0,0.0,0.0,0.0,0.0,0.0,0.0,0.0,0.0,0.0,0.0,0.0,0.0,0.0,0.0,0.0,0.0,0.0,0.0,0.0,0.0,0.0,0.0,0.0,0.0,0.0,0.0,0.0,0.0,0.0,0.0,0.0,0.0,0.0,0.0,0.0,0.0,0.0,0.0,0.0,0.0,0.0,0.0,0.0,0.0,0.0,0.0,0.0,0.0,0.0,0.0,0.0,0.0,0.0,0.0,0.0,0.0,0.0,0.0,0.0,0.0,0.0,0.0,0.0,0.0,0.0,0.0,0.0,0.0,0.0,0.0,0.0,0.0,0.0,0.0,-4.1224,-4.2427,-4.2532,-4.3069,-4.3119,0.0,0.0,0.0,0.0,0.0,0.0,-4.3826,-4.4501,-4.5303,-4.617,-4.6945,-4.7622,-4.8282,-4.8481,-4.8845,-4.9392,-4.9392,-4.9674,-5.022,-5.022,-5.0419,-5.0767,-5.0767,-5.0982,-5.1129,-4.9225,-4.8167,-4.7688,-4.6486,-4.5879,-4.5667,-4.5929,-4.6109,-4.647,0.0,0.0,0.0,0.0,0.0,0.0,0.0,0.0,0.0,0.0,0.0,0.0,0.0,0.0,0.0,0.0,0.0,0.0,0.0,0.0,0.0,0.0,0.0,0.0,0.0,0.0,0.0,0.0,0.0,0.0,0.0,0.0,0.0,0.0,0.0,0.0,0.0,0.0,0.0,0.0,0.0,0.0,0.0,0.0,0.0,0.0,0.0,0.0,0.0,0.0,0.0,0.0,0.0,0.0,0.0,0.0,0.0,0.0,0.0,0.0,0.0,0.0,0.0,0.0,0.0,0.0,0.0,0.0,0.0,0.0,0.0,0.0,0.0,0.0,0.0,0.0,0.0,0.0,0.0,-4.5177,-4.5783,0.0,0.0,0.0,0.0,-4.3256,-4.3865,-4.4649,-4.5431,-4.6172,-4.6995,-4.7836,-4.858,-4.9011,-4.9044,-4.9756,-5.0121,-5.0154,-5.0154,-5.0171,-5.022,-5.022,-5.0966,-5.231,-5.231,-5.3053,-5.4059,-5.1229,-4.9175,-4.7787,-4.7721,-4.7144,-4.6471,-4.7358,-4.8067,-4.8759,0.0,0.0,0.0,0.0,0.0,0.0,0.0,0.0,0.0,0.0,0.0,0.0,0.0,0.0,0.0,0.0,0.0,0.0,0.0,0.0,0.0,0.0,0.0,0.0,0.0,0.0,0.0,0.0,0.0,0.0,0.0,0.0,0.0,0.0,0.0,0.0,0.0,0.0,0.0,0.0,0.0,0.0,0.0,0.0,0.0,0.0,0.0,0.0,0.0,0.0,0.0,0.0,0.0,0.0,0.0,0.0,0.0,0.0,0.0,0.0,0.0,0.0,0.0,0.0,0.0,0.0,0.0,0.0,0.0,0.0,0.0,0.0,0.0,0.0,0.0,0.0,0.0,0.0,0.0,-4.5373,-4.6076,0.0,0.0,-4.5501,-4.573,-4.5482,-4.6221,-4.7027,-4.7803,-4.8084,-4.8597,-4.9409,-4.9674,-5.0038,-5.0502,-5.0767,-5.1363,-5.2274,-5.2274,-5.2523,-5.295,-5.295,-5.3268,-5.3748,-5.3748,-5.4046,-5.4407,-5.34,-5.2636,-5.212,-5.212,-5.1919,-5.1649,-5.1985,-5.1971,-5.1822,0.0,0.0,0.0,0.0,0.0,0.0,0.0,0.0,0.0,0.0,0.0,0.0,0.0,0.0,0.0,0.0,0.0,0.0,0.0,0.0,0.0,0.0,0.0,0.0,0.0,0.0,0.0,0.0,0.0,0.0,0.0,0.0,0.0,0.0,0.0,0.0,0.0,0.0,0.0,0.0,0.0,0.0,-3.3795,0.0,0.0,0.0,0.0,0.0,0.0,0.0,0.0,0.0,0.0,0.0,0.0,0.0,0.0,0.0,0.0,0.0,0.0,0.0,0.0,0.0,0.0,0.0,0.0,0.0,0.0,0.0,0.0,0.0,0.0,0.0,0.0,0.0,0.0,0.0,-4.6371,-4.5405,-4.6404,-4.6781,-4.5863,-4.6831,-4.7506,-4.7506,-4.8283,-4.8961,-4.9458,-4.9707,-5.0071,-5.0551,-5.1048,-5.1512,-5.1993,-5.2241,-5.2854,-5.3781,-5.401,-5.439,-5.487,-5.514,-5.5388,-5.562,-5.562,-5.5752,-5.6001,-5.6001,-5.6001,-5.5901,-5.4908,-5.449,-5.449,-5.449,-5.4212,-5.3781,0.0,0.0,0.0,0.0,0.0,0.0,0.0,0.0,0.0,0.0,0.0,0.0,0.0,0.0,0.0,0.0,0.0,0.0,0.0,0.0,0.0,0.0,0.0,0.0,0.0,0.0,0.0,0.0,0.0,0.0,0.0,0.0,0.0,0.0,0.0,0.0,0.0,0.0,0.0,0.0,0.0,0.0,-3.7715,0.0,0.0,0.0,0.0,0.0,0.0,0.0,0.0,0.0,0.0,0.0,0.0,0.0,0.0,0.0,0.0,0.0,0.0,0.0,0.0,0.0,0.0,0.0,0.0,0.0,0.0,0.0,0.0,0.0,0.0,0.0,0.0,0.0,-4.4486,-4.5746,-4.6404,-4.5471,-4.6962,-4.7704,-4.6847,-4.82,-4.9144,-4.9144,-4.9823,-5.0253,-5.0286,-5.0949,-5.1398,-5.1415,-5.2754,-5.35,-5.3516,-5.4208,-5.4589,-5.4676,-5.535,-5.5681,-5.5714,-5.6448,-5.7144,-5.7823,-5.7823,-5.8237,-5.8899,-5.8899,-5.8899,-5.8618,-5.5769,-5.4659,-5.4659,-5.4659,-5.4605,-5.4589,0.0,0.0,0.0,0.0,0.0,0.0,0.0,0.0,0.0,0.0,0.0,0.0,0.0,0.0,0.0,0.0,0.0,0.0,0.0,0.0,0.0,0.0,0.0,0.0,0.0,0.0,0.0,0.0,0.0,0.0,0.0,0.0,0.0,0.0,0.0,0.0,0.0,0.0,0.0,0.0,0.0,0.0,-3.8456,0.0,0.0,0.0,0.0,0.0,0.0,0.0,0.0,0.0,0.0,0.0,0.0,0.0,0.0,0.0,0.0,0.0,0.0,0.0,0.0,0.0,0.0,0.0,0.0,0.0,0.0,0.0,0.0,0.0,0.0,0.0,0.0,-4.5695,-4.6008,-4.6978,-4.7539,-4.7291,-4.8167,-4.8696,-4.8464,-4.9325,-4.9906,-4.9906,-5.0585,-5.1214,-5.1761,-5.244,-5.3069,-5.3616,-5.4527,-5.5272,-5.5786,-5.6514,-5.716,-5.769,-5.7906,-5.7988,-5.8005,-5.8204,-5.8403,-5.8601,-5.8601,-5.8701,-5.8899,-5.8899,-5.8899,-5.8817,-5.8005,-5.769,-5.769,-5.769,-5.7359,-5.6812,0.0,0.0,0.0,0.0,0.0,0.0,0.0,0.0,0.0,0.0,0.0,0.0,0.0,0.0,0.0,0.0,0.0,0.0,0.0,0.0,0.0,0.0,0.0,0.0,0.0,0.0,0.0,0.0,0.0,0.0,0.0,0.0,0.0,0.0,0.0,0.0,0.0,0.0,0.0,0.0,0.0,0.0,-4.0285,-3.9247,-3.8363,-3.7534,-3.6673,-3.6039,-3.5756,-3.6687,0.0,0.0,0.0,0.0,0.0,0.0,0.0,0.0,0.0,0.0,0.0,0.0,0.0,0.0,0.0,0.0,0.0,0.0,0.0,0.0,0.0,0.0,0.0,0.0,-4.5561,-4.6862,-4.7605,-4.7869,-4.8117,-4.8431,-4.8845,-4.9226,-4.9541,-5.0518,-5.1115,-5.1115,-5.2059,-5.2821,-5.3251,-5.4245,-5.4974,-5.5421,-5.6448,-5.7193,-5.7608,-5.8038,-5.8469,-5.8899,-5.9214,-5.9529,-5.9827,-6.0125,-6.044,0.0,-6.0721,-6.0721,-6.0721,-6.0721,-6.0721,0.0,0.0,0.0,0.0,0.0,-5.8634,-5.8187,0.0,0.0,0.0,0.0,0.0,0.0,0.0,0.0,0.0,0.0,0.0,0.0,0.0,0.0,0.0,0.0,0.0,0.0,0.0,0.0,0.0,0.0,0.0,0.0,0.0,0.0,0.0,0.0,0.0,0.0,0.0,0.0,0.0,0.0,0.0,0.0,0.0,0.0,0.0,0.0,0.0,0.0,-4.2673,-4.1288,-4.0649,-4.0309,-3.9143,-3.8734,-3.8851,-3.9897,0.0,0.0,0.0,0.0,0.0,0.0,0.0,0.0,0.0,0.0,0.0,0.0,0.0,0.0,0.0,0.0,0.0,0.0,0.0,0.0,0.0,0.0,0.0,0.0,-4.7026,-4.8349,-4.9011,-4.8614,-4.8498,-4.916,-4.9375,-4.974,-5.0386,-5.1777,-5.2622,-5.2622,-5.3947,-5.4775,-5.4775,0.0,0.0,0.0,0.0,-5.9015,-5.9015,-5.9181,-5.9264,-5.928,-6.0026,-6.0705,-6.1367,-6.2013,-6.2702,-6.3315,-6.3315,-6.3315,-6.3315,-6.3315,-6.3315,-6.3067,-6.0407,-5.9396,-5.9396,-5.9396,-5.9396,-5.938,0.0,0.0,0.0,0.0,0.0,0.0,0.0,0.0,0.0,0.0,0.0,0.0,0.0,0.0,0.0,0.0,0.0,0.0,0.0,0.0,0.0,0.0,0.0,0.0,0.0,0.0,0.0,0.0,0.0,0.0,0.0,0.0,0.0,0.0,0.0,0.0,0.0,0.0,0.0,0.0,0.0,0.0,-4.4119,-4.3294,-4.368,-4.4447,-4.3053,-4.2493,-4.2493,-4.2767,-4.2446,-4.1997,-4.2507,0.0,0.0,0.0,0.0,0.0,0.0,0.0,0.0,0.0,0.0,0.0,0.0,0.0,0.0,0.0,0.0,0.0,0.0,0.0,0.0,-4.5561,-4.7456,-4.8945,-4.9094,-4.9508,-4.9839,-4.9988,-5.1032,-5.181,-5.1943,-5.3268,-5.4096,-5.4096,-5.5454,-5.6266,-5.6266,-5.7674,0.0,-5.8469,-5.933,-5.9794,-5.9794,-6.0953,-6.1575,-6.1592,0.0,0.0,-6.2858,-6.3034,-6.3183,-6.3315,-6.3315,-6.3315,-6.3315,-6.3315,-6.3315,-6.3222,-6.2685,-6.2427,-6.2427,-6.2427,-6.2427,-6.2345,0.0,0.0,0.0,0.0,0.0,0.0,0.0,0.0,0.0,0.0,0.0,0.0,0.0,0.0,0.0,0.0,0.0,0.0,0.0,0.0,0.0,0.0,0.0,0.0,0.0,0.0,0.0,0.0,0.0,0.0,0.0,0.0,0.0,0.0,0.0,0.0,0.0,0.0,0.0,0.0,0.0,0.0,-4.5011,-4.3977,-4.4478,-4.5658,-4.49,-4.487,-4.5158,-4.5191,-4.5097,-4.4918,-4.4611,-4.4212,-4.3448,0.0,0.0,0.0,0.0,0.0,0.0,0.0,0.0,0.0,0.0,0.0,0.0,0.0,0.0,-4.345,0.0,0.0,-4.6401,-4.7225,-4.863,-4.979,-5.0137,-5.0833,-5.1297,-5.1297,-5.1943,-5.2655,-5.3384,-5.4427,-5.5222,-5.557,-5.663,-5.7392,-5.7773,-5.885,-5.9446,-5.9446,-6.0506,-6.1086,-6.1086,-6.2179,-6.2768,-6.2768,-6.3133,-6.3514,-6.3835,-6.3835,-6.4018,-6.4349,-6.4349,-6.4349,-6.4349,-6.4349,-6.4349,-6.4349,-6.4349,-6.3902,-6.3315,-6.3315,-6.3315,-6.3266,0.0,0.0,0.0,0.0,0.0,0.0,0.0,0.0,0.0,0.0,0.0,0.0,0.0,0.0,0.0,0.0,0.0,0.0,0.0,0.0,0.0,0.0,0.0,0.0,0.0,0.0,0.0,0.0,0.0,0.0,0.0,0.0,0.0,0.0,0.0,0.0,0.0,0.0,0.0,0.0,0.0,0.0,-4.5561,-4.4208,-4.4516,-4.5697,-4.5697,-4.6182,-4.6811,-4.6811,-4.7337,-4.7785,-4.6593,-4.5952,-4.5052,-4.2239,-4.2061,0.0,0.0,0.0,0.0,0.0,0.0,0.0,0.0,0.0,-4.2168,-4.3793,-4.412,-4.4562,-4.6022,-4.678,-4.7638,-4.9077,-4.9939,-5.0667,-5.1431,-5.2161,-5.2688,-5.2986,-5.3003,-5.3516,-5.4808,-5.5565,-5.6332,-5.7061,-5.7806,-5.8485,-5.9082,-5.9943,-6.0423,-6.0423,-6.1741,-6.242,-6.242,-6.3166,-6.3488,-6.3547,-6.3637,-6.4001,-6.4581,-6.4581,-6.4879,-6.5409,-6.5409,-6.5409,-6.5409,-6.5409,-6.5409,-6.5409,-6.5409,-6.4713,-6.3686,-6.3686,-6.3686,-6.367,0.0,0.0,0.0,0.0,0.0,0.0,0.0,0.0,0.0,0.0,0.0,0.0,0.0,0.0,0.0,0.0,0.0,0.0,0.0,0.0,0.0,0.0,0.0,0.0,0.0,0.0,0.0,0.0,0.0,0.0,0.0,0.0,0.0,0.0,0.0,0.0,0.0,0.0,0.0,0.0,0.0,0.0,-4.5608,-4.4719,-4.4921,-4.5697,-4.5697,-4.6182,-4.6811,-4.6811,-4.7337,-4.7968,-4.7819,-4.6778,-4.525,-4.345,0.0,-4.0681,-3.8886,-3.9702,-4.1373,-4.2605,-4.2914,-4.3695,0.0,0.0,-4.5529,-4.7109,-4.7439,-4.7736,-4.8547,-4.8779,-4.9094,-4.9955,-5.0701,-5.1448,-5.2158,-5.2854,-5.3781,-5.5069,-5.5218,-5.557,-5.6365,-5.7111,-5.7856,-5.8601,-5.9347,-5.9794,-5.9877,-6.1185,-6.1973,-6.1973,-6.2768,-6.3199,-6.3199,-6.3885,-6.4266,-6.4266,-6.4879,-6.5227,-6.5293,-6.5293,-6.5343,-6.5409,-6.5409,-6.5409,-6.5409,-6.5409,-6.5409,-6.5409,-6.5409,-6.5309,-6.5177,-6.5177,-6.5177,-6.5094,0.0,0.0,0.0,0.0,0.0,0.0,0.0,0.0,0.0,0.0,0.0,0.0,0.0,0.0,0.0,0.0,0.0,0.0,0.0,0.0,0.0,0.0,0.0,0.0,0.0,0.0,0.0,0.0,0.0,0.0,0.0,0.0,0.0,0.0,0.0,0.0,0.0,0.0,0.0,0.0,0.0,0.0,-4.4417,-4.4469,-4.3883,-4.314,-4.3997,-4.4776,0.0,0.0,-4.6323,-4.6614,-4.6614,-4.6137,-4.5087,-4.2556,-4.1988,0.0,-4.2509,-4.2395,0.0,0.0,-4.4595,-4.4939,-4.6301,-4.6071,-4.6055,-4.767,-4.8349,-4.8746,-4.9044,-4.979,-5.0469,0.0,-5.1777,-5.2622,-5.2937,-5.398,-5.4887,-5.5516,-5.6382,-5.6995,-5.7293,-5.8005,-5.875,-5.9479,-5.9827,-6.0374,-6.1218,-6.1873,-6.242,-6.2851,-6.358,-6.3918,-6.3918,-6.463,-6.4978,-6.4995,-6.5276,-6.5409,-6.5409,-6.5409,-6.5409,-6.5409,-6.5409,-6.5409,-6.5409,-6.5409,-6.5409,-6.5409,-6.5409,-6.5409,-6.5409,-6.5409,-6.5409,-6.5376,0.0,0.0,0.0,0.0,0.0,0.0,0.0,0.0,0.0,0.0,0.0,0.0,0.0,0.0,0.0,0.0,0.0,0.0,0.0,0.0,0.0,0.0,0.0,0.0,0.0,0.0,0.0,0.0,0.0,0.0,0.0,0.0,0.0,0.0,0.0,0.0,0.0,0.0,0.0,0.0,0.0,0.0,-4.3248,-4.3519,-4.2447,-4.1062,-4.2684,-4.3374,0.0,0.0,-4.4939,-4.4939,-4.4939,-4.4628,-4.3812,-4.1488,-4.1324,-4.2231,-4.3859,0.0,0.0,-4.5217,-4.5939,-4.6268,-4.6268,-4.6268,-4.6664,-4.8018,-4.873,-4.9226,-4.9624,-5.0568,0.0,-5.158,-5.2605,-5.3483,-5.3682,-5.4787,-5.5731,-5.6183,-5.7326,-5.8171,-5.8386,-5.8883,-5.9512,-6.0258,-6.049,-6.1053,-6.2155,-6.2603,-6.3067,-6.3614,-6.4283,-6.4664,-6.4664,-6.516,-6.5409,-6.5409,-6.5409,-6.5409,-6.5409,-6.5409,-6.5409,-6.5409,-6.5409,-6.5409,-6.5409,-6.5409,-6.5409,-6.5409,-6.5409,-6.5409,-6.5409,-6.5409,-6.5409,-6.5409,0.0,0.0,0.0,0.0,0.0,0.0,0.0,0.0,0.0,0.0,0.0,0.0,0.0,0.0,0.0,0.0,0.0,0.0,0.0,0.0,0.0,0.0,0.0,0.0,0.0,0.0,0.0,0.0,0.0,0.0,0.0,0.0,0.0,0.0,0.0,0.0,0.0,0.0,0.0,0.0,0.0,0.0,-4.2453,-4.1679,-4.0873,-4.0412,-4.253,0.0,0.0,0.0,-4.3286,-4.3286,-4.3286,-4.2215,0.0,-4.0841,-3.9747,0.0,0.0,0.0,-4.3582,-4.5217,-4.6763,-4.7934,-4.7934,-4.7934,-4.815,-4.8912,-4.9094,-4.9541,-5.0984,-5.1282,-5.1547,-5.226,-5.2953,-5.3665,-5.4394,-5.5102,-5.615,-5.7558,-5.8403,-5.9148,0.0,-5.996,-6.0274,-6.102,-6.1715,-6.2155,-6.2205,-6.358,-6.4316,-6.4349,-6.5028,-6.5392,-6.5392,-6.5409,-6.5409,-6.5409,-6.5409,-6.5409,-6.5409,-6.5409,-6.5409,-6.5409,-6.5409,-6.5409,-6.5409,-6.5409,-6.5409,-6.5409,-6.5409,-6.5409,-6.5409,-6.5409,-6.5409,-6.5409,0.0,0.0,0.0,0.0,0.0,0.0,0.0,0.0,0.0,0.0,0.0,0.0,0.0,0.0,0.0,0.0,0.0,0.0,0.0,0.0,0.0,0.0,0.0,0.0,0.0,0.0,0.0,0.0,0.0,0.0,0.0,0.0,0.0,0.0,0.0,0.0,0.0,0.0,0.0,0.0,0.0,0.0,-4.0302,-4.092,-3.975,-3.7984,0.0,0.0,0.0,0.0,0.0,-4.1024,-4.145,0.0,0.0,-3.954,-3.9588,-4.0342,0.0,0.0,-4.5184,-4.6779,-4.7604,-4.8001,-4.8001,-4.8001,-4.8216,-4.8961,-4.8597,-4.848,-4.9472,-5.005,-5.0611,-5.1355,-5.298,-5.4374,-5.5118,-5.5868,-5.6697,-5.7674,-5.8436,0.0,0.0,0.0,0.0,-6.1086,-6.1765,-6.242,-6.2917,-6.3835,-6.4581,-6.5044,-6.5293,-6.5409,-6.5409,-6.5409,-6.5409,-6.5409,-6.5409,-6.5409,-6.5409,-6.5409,-6.5409,-6.5409,-6.5409,-6.5409,-6.5409,-6.5409,-6.5409,-6.5409,-6.5409,-6.5409,-6.5409,-6.5409,-6.5409,-6.5409,0.0,0.0,0.0,0.0,0.0,0.0,0.0,0.0,0.0,0.0,0.0,0.0,0.0,0.0,0.0,0.0,0.0,0.0,0.0,0.0,0.0,0.0,0.0,0.0,0.0,0.0,0.0,0.0,0.0,0.0,0.0,0.0,0.0,0.0,0.0,0.0,0.0,0.0,0.0,0.0,0.0,0.0,-3.8119,-3.8121,-3.698,0.0,0.0,0.0,0.0,0.0,0.0,0.0,0.0,-3.9926,-3.9861,-3.9381,-4.0004,-4.1262,-4.3467,-4.4823,-4.5989,-4.7604,-4.8001,-4.8001,-4.8001,-4.8001,-4.8282,-4.9293,-4.8563,-4.8034,-4.9091,-4.9618,-4.988,-4.9847,-5.1963,-5.3803,-5.4266,-5.523,-5.6404,-5.8005,-5.8601,0.0,0.0,0.0,0.0,-6.1467,-6.2162,-6.2917,-6.3637,-6.4365,-6.4945,-6.5409,-6.5409,-6.5409,-6.5409,-6.5409,-6.5409,-6.5409,-6.5409,-6.5409,-6.5409,-6.5409,-6.5409,-6.5409,-6.5409,-6.5409,-6.5409,-6.5409,-6.5409,-6.5409,-6.5409,-6.5409,-6.5409,-6.5409,-6.5409,-6.5409,0.0,0.0,0.0,0.0,0.0,0.0,0.0,0.0,0.0,0.0,0.0,0.0,0.0,0.0,0.0,0.0,0.0,0.0,0.0,0.0,0.0,0.0,0.0,0.0,0.0,0.0,0.0,0.0,0.0,0.0,0.0,0.0,0.0,0.0,0.0,0.0,0.0,0.0,0.0,0.0,0.0,0.0,-3.5994,-3.365,0.0,0.0,0.0,0.0,0.0,0.0,0.0,0.0,0.0,0.0,-3.8934,-4.0456,-4.0971,-4.1713,-4.4759,-4.566,-4.6088,-4.762,-4.8001,-4.8001,-4.8001,-4.8001,-4.8382,-4.9723,-4.8678,-4.8001,0.0,0.0,-4.9287,-4.7918,-5.0243,-5.2257,-5.2254,-5.3544,-5.5529,0.0,0.0,0.0,0.0,0.0,0.0,-6.2221,0.0,-6.3647,-6.4332,-6.5044,-6.5409,-6.5409,-6.5409,-6.5409,-6.5409,-6.5409,-6.5409,-6.5409,-6.5409,-6.5409,-6.5409,-6.5409,-6.5409,-6.5409,-6.5409,-6.5409,-6.5409,-6.5409,-6.5409,-6.5409,-6.5409,-6.5409,-6.5409,-6.5409,-6.5409,-6.5409,0.0,0.0,0.0,0.0,0.0,0.0,0.0,0.0,0.0,0.0,0.0,0.0,0.0,0.0,0.0,0.0,0.0,0.0,0.0,0.0,0.0,0.0,0.0,0.0,0.0,0.0,0.0,0.0,0.0,0.0,0.0,0.0,0.0,0.0,0.0,0.0,0.0,0.0,0.0,0.0,0.0,0.0,-3.397,0.0,0.0,0.0,0.0,0.0,0.0,0.0,0.0,0.0,0.0,-4.1972,-4.2054,-4.2474,-4.345,-4.4562,-4.5382,-4.6498,-4.7472,-4.7918,-4.8001,-4.8001,-4.8001,-4.8001,-4.7918,-4.7638,-4.6385,-4.525,0.0,0.0,0.0,-4.7688,-5.1171,0.0,-5.4634,-5.5494,0.0,0.0,0.0,-5.9479,-6.097,-6.1583,0.0,0.0,-6.3216,-6.3647,-6.4332,-6.5044,-6.5409,-6.5409,-6.5409,-6.5409,-6.5409,-6.5409,-6.5409,-6.5409,-6.5409,-6.5409,-6.5409,-6.5409,-6.5409,-6.5409,-6.5409,-6.5409,-6.5409,-6.5409,-6.5409,-6.5409,-6.5409,-6.5409,-6.5409,-6.5409,-6.5409,-6.5409,0.0,0.0,0.0,0.0,0.0,0.0,0.0,0.0,0.0,0.0,0.0,0.0,0.0,0.0,0.0,0.0,0.0,0.0,0.0,0.0,0.0,0.0,0.0,0.0,0.0,0.0,0.0,0.0,0.0,0.0,0.0,0.0,0.0,0.0,0.0,0.0,0.0,0.0,0.0,0.0,0.0,0.0,0.0,0.0,0.0,0.0,0.0,0.0,0.0,0.0,0.0,-4.1549,-4.2806,-4.319,-4.3352,-4.4054,0.0,-4.5743,-4.645,-4.7307,-4.8001,-4.8001,-4.8001,-4.7802,-4.7092,-4.696,-4.6713,-4.5843,-4.4463,0.0,0.0,0.0,0.0,0.0,0.0,0.0,-5.4018,-5.4977,-5.6454,0.0,-5.8899,0.0,-6.097,-6.1748,-6.252,0.0,-6.3614,-6.4067,-6.4796,-6.521,-6.5409,-6.5409,-6.5409,-6.5409,-6.5409,-6.5409,-6.5409,-6.5409,-6.5409,-6.5409,-6.5409,-6.5409,-6.5409,-6.5409,0.0,-6.5409,-6.5409,-6.5409,-6.5409,-6.5409,-6.5409,-6.5409,-6.5409,-6.5409,-6.5409,-6.5409,0.0,0.0,0.0,0.0,0.0,0.0,0.0,0.0,0.0,0.0,0.0,0.0,0.0,0.0,0.0,0.0,0.0,0.0,0.0,0.0,0.0,0.0,0.0,0.0,0.0,0.0,0.0,0.0,0.0,0.0,0.0,0.0,0.0,0.0,0.0,0.0,0.0,0.0,0.0,0.0,0.0,0.0,0.0,0.0,0.0,0.0,0.0,0.0,0.0,0.0,-4.0251,-4.2462,-4.3261,-4.3655,-4.4072,-4.5385,-4.5811,-4.6235,-4.762,-4.8001,-4.8001,-4.8001,-4.8001,-4.7587,-4.5972,-4.5611,-4.5251,-4.406,0.0,0.0,-4.2534,0.0,-4.5892,-4.4697,0.0,-5.2208,-5.2389,-5.3692,-5.5699,-5.8585,-5.8899,-5.9479,-6.097,-6.1848,-6.2619,-6.3266,-6.4051,-6.4779,-6.5392,-6.5409,-6.5409,-6.5409,-6.5409,-6.5409,-6.5409,-6.5409,-6.5409,-6.5409,-6.5409,-6.5409,-6.5409,-6.5409,-6.5409,-6.5409,-6.5409,0.0,-6.5409,-6.5409,-6.5409,-6.5409,-6.5409,-6.5409,-6.5409,-6.5409,-6.5409,-6.5409,0.0,0.0,0.0,0.0,0.0,0.0,0.0,0.0,0.0,0.0,0.0,0.0,0.0,0.0,0.0,0.0,0.0,0.0,0.0,0.0,0.0,0.0,0.0,0.0,0.0,0.0,0.0,0.0,0.0,0.0,0.0,0.0,0.0,0.0,0.0,0.0,0.0,0.0,0.0,0.0,0.0,0.0,0.0,0.0,0.0,0.0,0.0,0.0,0.0,0.0,-4.0417,-4.4131,-4.5008,-4.6149,-4.7078,-4.6712,-4.7077,-4.7637,-4.7934,-4.8001,-4.8001,-4.8001,-4.8001,-4.7587,-4.5972,-4.5611,0.0,0.0,0.0,-4.0992,-3.9767,-4.2071,0.0,-4.5404,0.0,0.0,0.0,0.0,-5.6923,0.0,0.0,0.0,0.0,0.0,0.0,0.0,0.0,-6.5293,-6.5409,-6.5409,-6.5409,-6.5409,-6.5409,-6.5409,-6.5409,-6.5409,-6.5409,-6.5409,-6.5409,-6.5409,-6.5409,-6.5409,-6.5409,-6.5409,-6.5409,0.0,-6.5409,-6.5409,-6.5409,-6.5409,-6.5409,-6.5409,-6.5409,-6.5409,-6.5409,-6.5409,0.0,0.0,0.0,0.0,0.0,0.0,0.0,0.0,0.0,0.0,-2.9226,0.0,0.0,0.0,0.0,0.0,0.0,0.0,0.0,0.0,0.0,0.0,0.0,0.0,0.0,0.0,0.0,0.0,0.0,0.0,0.0,0.0,0.0,0.0,0.0,0.0,0.0,0.0,0.0,0.0,0.0,0.0,0.0,0.0,0.0,0.0,0.0,0.0,0.0,0.0,-3.8762,-4.3116,-4.4933,-4.6655,-4.7853,-4.705,-4.7371,-4.8001,-4.8001,-4.8001,-4.8001,-4.8001,-4.8001,-4.7356,-4.4906,0.0,0.0,0.0,0.0,-3.9708,-3.8869,0.0,0.0,0.0,0.0,0.0,0.0,0.0,0.0,0.0,0.0,0.0,0.0,0.0,0.0,0.0,0.0,0.0,-6.5409,-6.5409,-6.5409,-6.5409,-6.5409,-6.5409,-6.5409,-6.5409,-6.5409,-6.5409,-6.5409,-6.5409,-6.5409,-6.5409,-6.5409,-6.5409,-6.5409,0.0,-6.5409,-6.5409,-6.5409,-6.5409,-6.5409,-6.5409,-6.5409,-6.5409,-6.5409,-6.5409,0.0,0.0,0.0,0.0,0.0,0.0,0.0,0.0,-2.954,-2.9446,-2.9446,-2.9446,-2.9446,-2.9289,0.0,0.0,0.0,0.0,0.0,0.0,0.0,0.0,0.0,0.0,0.0,0.0,0.0,0.0,0.0,0.0,0.0,0.0,0.0,0.0,0.0,0.0,0.0,0.0,0.0,0.0,0.0,0.0,0.0,0.0,0.0,0.0,0.0,0.0,0.0,0.0,-3.6438,-4.0261,-4.2906,-4.5333,-4.7108,-4.6532,-4.689,-4.7556,-4.7918,-4.8001,-4.8001,-4.8001,-4.8001,-4.7174,-4.3939,-4.319,0.0,0.0,0.0,-3.8777,-3.8672,0.0,0.0,0.0,0.0,0.0,0.0,0.0,0.0,0.0,0.0,0.0,0.0,0.0,0.0,0.0,0.0,0.0,-6.5409,-6.5409,-6.5409,-6.5409,-6.5409,-6.5409,-6.5409,-6.5409,-6.5409,-6.5409,-6.5409,-6.5409,-6.5409,-6.5409,-6.5409,-6.5409,-6.5409,0.0,0.0,-6.5409,-6.5409,-6.5409,-6.5409,-6.5409,-6.5409,-6.5409,-6.5409,-6.5409,0.0,0.0,0.0,0.0,0.0,0.0,0.0,0.0,-2.9602,-2.9571,-2.9571,-2.9571,-2.9571,-2.9446,0.0,0.0,0.0,0.0,0.0,0.0,0.0,0.0,0.0,0.0,0.0,0.0,0.0,0.0,0.0,0.0,0.0,0.0,0.0,0.0,0.0,0.0,0.0,0.0,0.0,0.0,0.0,0.0,0.0,0.0,0.0,0.0,0.0,0.0,0.0,0.0,0.0,-3.5285,-3.785,-4.1453,-4.4752,-4.4855,0.0,0.0,-4.7605,-4.8001,-4.8001,-4.8001,-4.8001,-4.7174,-4.3939,0.0,0.0,0.0,-3.86,-3.8805,-3.8777,-3.9776,0.0,0.0,0.0,0.0,0.0,0.0,0.0,0.0,0.0,0.0,0.0,0.0,0.0,0.0,0.0,0.0,-6.5409,-6.5409,-6.5409,-6.5409,-6.5409,-6.5409,-6.5409,-6.5409,-6.5409,-6.5409,-6.5409,-6.5409,-6.5409,-6.5409,-6.5409,-6.5409,-6.5409,0.0,0.0,-6.5409,-6.5409,-6.5409,-6.5409,-6.5409,-6.5409,-6.5409,-6.5409,-6.5409,0.0,0.0,0.0,0.0,0.0,0.0,0.0,-2.8707,-2.8944,-2.8949,-2.8949,-2.9121,-2.954,-2.954,0.0,0.0,0.0,0.0,0.0,0.0,0.0,0.0,0.0,0.0,0.0,0.0,0.0,0.0,0.0,0.0,0.0,0.0,0.0,0.0,0.0,0.0,0.0,0.0,0.0,0.0,0.0,0.0,0.0,0.0,0.0,0.0,0.0,0.0,0.0,0.0,0.0,0.0,-3.5239,-3.7556,0.0,0.0,-4.406,-4.5486,-4.6876,-4.7638,-4.7886,-4.7404,-4.6914,-4.5844,-4.3102,0.0,0.0,-3.8853,-3.86,-3.8805,-3.8805,-3.9298,0.0,0.0,0.0,0.0,0.0,0.0,0.0,0.0,0.0,0.0,0.0,0.0,0.0,0.0,0.0,0.0,-6.5409,-6.5409,-6.5409,-6.5409,-6.5409,-6.5409,-6.5409,-6.5409,-6.5409,-6.5409,-6.5409,-6.5409,-6.5409,-6.5409,-6.5409,-6.5409,-6.5409,0.0,0.0,-6.5409,-6.5409,-6.5409,-6.5409,-6.5409,-6.5409,-6.5409,-6.5409,-6.5409,0.0,0.0,0.0,0.0,0.0,0.0,-2.7709,-2.8163,-2.8487,-2.8505,-2.8698,-2.9012,-2.954,-2.9602,-2.9602,-2.9602,0.0,0.0,0.0,0.0,0.0,0.0,0.0,0.0,0.0,0.0,0.0,0.0,0.0,0.0,0.0,0.0,0.0,0.0,0.0,0.0,0.0,0.0,0.0,0.0,0.0,0.0,0.0,0.0,0.0,0.0,0.0,0.0,0.0,0.0,0.0,0.0,0.0,0.0,0.0,0.0,-4.2329,-4.4127,-4.55,-4.6758,-4.7454,-4.6689,-4.5909,-4.4771,0.0,0.0,-4.0121,-3.8277,-3.8399,-3.8805,-3.8639,-3.8985,-3.9481,0.0,0.0,0.0,0.0,0.0,0.0,0.0,0.0,0.0,0.0,0.0,0.0,0.0,0.0,0.0,0.0,-6.5409,-6.5409,-6.5409,-6.5409,-6.5409,-6.5409,-6.5409,-6.5409,-6.5409,-6.5409,-6.5409,-6.5409,-6.5409,-6.5409,-6.5409,0.0,0.0,0.0,-6.5409,-6.5409,-6.5409,-6.5409,-6.5409,-6.5409,-6.5409,-6.5409,-6.5409,0.0,0.0,0.0,0.0,0.0,0.0,0.0,-2.7855,-2.8492,-2.8492,-2.9153,-2.9571,-2.9602,-2.9602,-2.9602,-2.9602,0.0,0.0,0.0,0.0,0.0,0.0,0.0,0.0,0.0,0.0,0.0,0.0,0.0,0.0,0.0,0.0,0.0,0.0,0.0,0.0,0.0,0.0,0.0,0.0,0.0,0.0,0.0,0.0,0.0,0.0,0.0,0.0,0.0,0.0,0.0,0.0,0.0,0.0,0.0,0.0,-3.9927,-4.1688,-4.3318,-4.525,-4.6638,-4.5913,-4.5317,-4.422,0.0,0.0,-3.961,-3.7217,-3.794,-3.8832,-3.823,-3.8777,-3.9299,0.0,0.0,0.0,0.0,0.0,0.0,0.0,0.0,0.0,0.0,0.0,0.0,0.0,0.0,0.0,0.0,-6.5409,-6.5409,-6.5409,-6.5409,-6.5409,-6.5409,-6.5409,-6.5409,-6.5409,-6.5409,-6.5409,-6.5409,-6.5409,-6.5409,0.0,0.0,0.0,0.0,-6.5409,-6.5409,-6.5409,-6.5409,-6.5409,-6.5409,-6.5409,-6.5409,-6.5409,0.0,0.0,0.0,0.0,0.0,0.0,0.0,0.0,-2.7425,-2.8363,-2.8293,-2.8338,-2.8807,-2.9293,-2.9401,-2.8871,0.0,0.0,0.0,0.0,0.0,0.0,0.0,0.0,0.0,0.0,0.0,-2.7705,-2.8021,0.0,0.0,0.0,0.0,0.0,0.0,0.0,0.0,0.0,0.0,0.0,0.0,0.0,0.0,0.0,0.0,0.0,0.0,0.0,0.0,0.0,0.0,0.0,0.0,0.0,0.0,0.0,0.0,0.0,-4.1012,-4.2304,-4.3091,-4.2217,-4.1527,-4.0721,-3.9369,0.0,-3.7756,-3.6984,-3.731,-3.778,-3.8042,-3.794,-3.8302,-3.9798,0.0,0.0,0.0,0.0,0.0,0.0,0.0,0.0,0.0,0.0,0.0,0.0,0.0,0.0,0.0,-6.5409,-6.5409,-6.5409,-6.5409,-6.5409,-6.5409,-6.5409,-6.5409,-6.5409,-6.5409,-6.5409,-6.5409,-6.5409,0.0,0.0,0.0,0.0,0.0,-6.5409,-6.5409,-6.5409,-6.5409,-6.5409,-6.5409,-6.5409,-6.5409,-6.5409,0.0,0.0,0.0,0.0,0.0,0.0,0.0,0.0,-2.671,-2.7577,-2.7604,-2.767,-2.8084,-2.8757,-2.9012,-2.8524,0.0,0.0,0.0,0.0,0.0,0.0,0.0,0.0,0.0,0.0,-2.7936,-2.7223,-2.7673,-2.8083,-2.8452,0.0,0.0,0.0,0.0,0.0,0.0,0.0,0.0,0.0,0.0,0.0,-2.9814,0.0,0.0,0.0,0.0,0.0,0.0,0.0,0.0,0.0,0.0,0.0,0.0,0.0,0.0,0.0,0.0,-4.0232,-4.1026,-4.0025,-3.9398,0.0,0.0,0.0,0.0,-3.6321,-3.6768,-3.7251,-3.7445,-3.731,-3.7644,-3.904,0.0,0.0,0.0,0.0,0.0,0.0,0.0,0.0,0.0,0.0,0.0,0.0,0.0,0.0,0.0,-6.5409,-6.5409,-6.5409,-6.5409,-6.5409,-6.5409,-6.5409,-6.5409,-6.5409,-6.5409,-6.5409,-6.5409,-6.5409,0.0,0.0,0.0,0.0,0.0,-6.5409,-6.5409,-6.5409,-6.5409,-6.5409,-6.5409,-6.5409,-6.5409,-6.5409,0.0,0.0,0.0,0.0,0.0,0.0,0.0,0.0,0.0,0.0,0.0,-2.7417,-2.7417,-2.8084,0.0,0.0,0.0,0.0,0.0,0.0,0.0,0.0,0.0,0.0,0.0,-2.8031,-2.769,-2.6432,-2.7399,-2.7865,-2.796,-2.8393,0.0,0.0,0.0,0.0,0.0,-2.9884,-3.0056,-2.9856,-2.974,-2.9632,0.0,0.0,0.0,0.0,0.0,0.0,0.0,0.0,0.0,0.0,0.0,0.0,0.0,0.0,0.0,0.0,0.0,0.0,0.0,0.0,0.0,0.0,0.0,0.0,0.0,0.0,0.0,-3.7057,-3.6554,-3.686,-3.7266,-3.7496,0.0,0.0,0.0,0.0,0.0,0.0,0.0,0.0,0.0,0.0,0.0,0.0,0.0,0.0,0.0,-6.5409,-6.5409,-6.5409,-6.5409,-6.5409,-6.5409,-6.5409,-6.5409,-6.5409,-6.5409,-6.5409,-6.5409,-6.5409,0.0,0.0,0.0,0.0,0.0,-6.5409,-6.5409,-6.5409,-6.5409,-6.5409,-6.5409,-6.5409,-6.5409,-6.5409,0.0,0.0,0.0,0.0,0.0,0.0,0.0,0.0,0.0,0.0,0.0,-2.6505,-2.6654,-2.7756,0.0,0.0,0.0,0.0,0.0,0.0,0.0,0.0,0.0,0.0,0.0,-2.7295,-2.7066,-2.6877,-2.7182,-2.7721,-2.8447,-2.8565,-2.8748,-2.8972,-2.8812,-2.9085,-2.9699,-3.0448,-3.0763,-3.0705,-3.0454,-3.0058,0.0,0.0,0.0,0.0,-3.0259,-3.0871,0.0,0.0,0.0,0.0,0.0,0.0,0.0,0.0,-3.4696,-3.5579,-3.5878,0.0,-3.6601,-3.6168,0.0,0.0,0.0,0.0,0.0,0.0,0.0,-3.5823,-3.6949,-3.6148,-3.6118,0.0,0.0,0.0,0.0,0.0,0.0,0.0,0.0,0.0,0.0,0.0,0.0,0.0,0.0,0.0,0.0,-6.5409,-6.5409,-6.5409,-6.5409,-6.5409,-6.5409,-6.5409,-6.5409,-6.5409,-6.5409,-6.5409,-6.5409,-6.5409,-6.5409,0.0,0.0,0.0,-6.5409,-6.5409,-6.5409,-6.5409,-6.5409,-6.5409,-6.5409,-6.5409,-6.5409,-6.5409,0.0,0.0,0.0,0.0,0.0,0.0,0.0,0.0,0.0,0.0,0.0,0.0,0.0,0.0,0.0,0.0,0.0,0.0,0.0,0.0,0.0,0.0,0.0,0.0,0.0,-2.7073,-2.6804,-2.6832,-2.7065,-2.7563,-2.8289,-2.8497,-2.8683,-2.8876,-2.9149,-2.9543,-3.0068,-3.0822,-3.1012,-3.0774,-3.0955,0.0,0.0,0.0,0.0,0.0,-3.0492,-3.0913,0.0,-3.1854,-3.2392,-3.2901,0.0,0.0,0.0,0.0,-3.4681,-3.5504,-3.5504,-3.5504,-3.5392,-3.4949,-3.5162,-3.5407,0.0,0.0,0.0,0.0,0.0,0.0,-3.6708,0.0,0.0,0.0,0.0,0.0,0.0,0.0,0.0,0.0,0.0,0.0,0.0,0.0,0.0,0.0,0.0,0.0,0.0,-6.5409,-6.5409,-6.5409,-6.5409,-6.5409,-6.5409,-6.5409,-6.5409,-6.5409,-6.5409,-6.5409,-6.5409,-6.5409,-6.5409,0.0,0.0,0.0,-6.5409,-6.5409,-6.5409,-6.5409,-6.5409,-6.5409,-6.5409,-6.5409,-6.5409,-6.5409,0.0,0.0,0.0,0.0,0.0,0.0,0.0,0.0,0.0,0.0,0.0,0.0,0.0,0.0,0.0,0.0,0.0,0.0,0.0,0.0,0.0,0.0,0.0,0.0,-2.796,-2.7256,-2.6903,-2.6856,-2.7152,-2.7536,-2.8011,-2.842,-2.8651,-2.878,-2.9543,-3.0054,-3.0433,-3.1014,-3.1068,-3.0851,-3.1316,0.0,0.0,0.0,0.0,0.0,0.0,0.0,0.0,-3.2303,-3.3021,-3.3619,-3.3529,0.0,0.0,0.0,0.0,0.0,-3.5439,-3.5621,-3.558,-3.4775,-3.503,-3.5341,0.0,0.0,0.0,0.0,0.0,0.0,0.0,0.0,0.0,0.0,0.0,0.0,0.0,0.0,0.0,0.0,0.0,0.0,0.0,0.0,0.0,0.0,0.0,0.0,0.0,-6.5185,-6.5185,-6.5185,-6.532,-6.5409,-6.5409,-6.5409,-6.5409,-6.5409,-6.5409,-6.5409,-6.5409,-6.5409,-6.5409,-6.5409,0.0,0.0,-6.5409,-6.5409,-6.532,-6.5185,-6.5185,-6.5078,-6.4926,-6.5123,-6.5185,-6.5185,0.0,0.0,0.0,0.0,0.0,0.0,0.0,0.0,0.0,0.0,0.0,0.0,0.0,0.0,0.0,0.0,0.0,0.0,0.0,0.0,0.0,0.0,0.0,0.0,0.0,0.0,0.0,0.0,0.0,-2.8025,-2.8483,-2.8578,-2.8908,-2.9477,-2.9991,-3.0463,-3.0911,-3.0999,-3.1471,-3.2138,-3.169,0.0,0.0,0.0,0.0,0.0,0.0,0.0,0.0,-3.2482,-3.332,-3.4264,-3.3664,0.0,0.0,0.0,0.0,0.0,-3.5082,-3.6034,-3.6817,-3.5642,-3.5407,-3.5472,0.0,0.0,0.0,0.0,0.0,0.0,0.0,0.0,0.0,0.0,0.0,0.0,0.0,0.0,0.0,0.0,0.0,0.0,0.0,0.0,0.0,0.0,0.0,0.0,0.0,-6.4128,-6.4128,-6.4128,-6.4943,-6.5409,-6.5409,-6.5409,-6.5409,-6.5409,-6.5409,-6.5409,-6.5409,-6.5409,-6.5409,-6.5409,0.0,-6.5409,-6.5409,-6.5409,-6.4897,-6.4128,-6.4128,-6.3578,-6.2875,-6.3784,-6.4128,-6.4128,0.0,0.0,0.0,0.0,0.0,0.0,0.0,0.0,0.0,0.0,0.0,0.0,0.0,0.0,0.0,0.0,0.0,0.0,0.0,0.0,0.0,0.0,0.0,0.0,0.0,0.0,0.0,0.0,0.0,-2.8255,-2.86,-2.9043,-2.9453,-2.9853,-3.0862,-3.1397,-3.1538,-3.2105,-3.251,-3.2717,0.0,0.0,0.0,0.0,0.0,0.0,0.0,0.0,0.0,0.0,-3.344,-3.3919,-3.3589,0.0,0.0,0.0,0.0,0.0,-3.5261,-3.5791,-3.6402,-3.6507,-3.7075,-3.7545,0.0,0.0,0.0,0.0,0.0,0.0,0.0,0.0,0.0,0.0,0.0,0.0,0.0,0.0,0.0,0.0,0.0,0.0,0.0,0.0,0.0,0.0,0.0,0.0,0.0,0.0,-6.3036,-6.3036,-6.3451,-6.4002,-6.4561,-6.4002,-6.4002,-6.4607,-6.4607,-6.4314,-6.3735,-6.4314,-6.4607,-6.4607,0.0,-6.5409,-6.5364,-6.479,-6.433,-6.3847,-6.3244,-6.2729,-6.2371,-6.2826,-6.3036,-6.2939,0.0,0.0,0.0,0.0,0.0,0.0,0.0,0.0,0.0,0.0,0.0,0.0,0.0,0.0,0.0,0.0,0.0,0.0,0.0,0.0,0.0,0.0,0.0,0.0,0.0,0.0,-2.8144,-2.8396,-2.8491,-2.8775,-2.9138,-2.9833,-3.0204,-3.0461,-3.1545,-3.2084,-3.2198,-3.2849,-3.3114,-3.3069,0.0,0.0,0.0,0.0,0.0,0.0,0.0,0.0,0.0,0.0,0.0,0.0,0.0,0.0,0.0,-3.4616,-3.4957,-3.5359,-3.5359,-3.5583,-3.6045,0.0,0.0,0.0,0.0,0.0,0.0,0.0,0.0,0.0,0.0,0.0,0.0,0.0,0.0,0.0,0.0,0.0,0.0,0.0,0.0,0.0,0.0,0.0,0.0,0.0,0.0,0.0,0.0,0.0,-6.1925,-6.1925,-6.2173,-6.268,-6.3547,-6.2729,-6.2826,-6.3894,-6.3642,-6.3084,-6.2321,-6.3132,-6.3547,-6.3594,-6.4344,-6.4682,-6.462,-6.3831,-6.3404,-6.31,-6.2223,-6.1925,-6.1925,-6.1925,-6.2074,-6.2173,0.0,0.0,0.0,0.0,0.0,0.0,0.0,0.0,0.0,0.0,0.0,0.0,0.0,0.0,0.0,0.0,0.0,0.0,0.0,0.0,0.0,0.0,0.0,0.0,0.0,-2.8925,-2.9105,-2.984,-2.9742,-3.0044,-3.0737,-3.0979,-3.1273,-3.1584,-3.1556,-3.2062,-3.2878,-3.2263,-3.2582,-3.3378,-3.2418,0.0,0.0,0.0,0.0,0.0,0.0,0.0,0.0,0.0,0.0,0.0,0.0,0.0,-3.5365,-3.496,-3.489,-3.4935,-3.4935,-3.5838,-3.6817,-3.6906,0.0,0.0,0.0,0.0,0.0,0.0,0.0,0.0,0.0,0.0,0.0,0.0,0.0,0.0,0.0,0.0,0.0,0.0,0.0,0.0,0.0,0.0,0.0,0.0,0.0,0.0,0.0,0.0,0.0,-6.0841,-6.1775,-6.2321,-6.242,-6.2321,-6.2826,-6.3894,-6.2875,-6.2371,-6.2321,-6.2371,-6.242,-6.242,-6.2469,-6.2518,-6.2518,-6.242,-6.1825,-6.0944,-6.0841,-6.0841,-6.0841,-6.0841,-6.1438,-6.2173,0.0,0.0,0.0,0.0,0.0,0.0,0.0,0.0,0.0,0.0,0.0,0.0,0.0,0.0,0.0,0.0,0.0,0.0,0.0,0.0,0.0,0.0,0.0,-3.075,-3.033,-3.0443,-3.0521,-3.0563,-3.053,-3.064,-3.0908,-3.1485,0.0,0.0,-3.2631,-3.3139,-3.3479,-3.3089,-3.3226,-3.3634,-3.246,-3.2198,0.0,0.0,0.0,0.0,0.0,0.0,0.0,0.0,-3.3182,0.0,0.0,0.0,-3.4273,-3.4751,-3.4735,-3.4635,-3.4835,-3.5878,-3.6901,0.0,0.0,0.0,0.0,0.0,0.0,0.0,0.0,0.0,0.0,0.0,0.0,0.0,0.0,0.0,0.0,0.0,0.0,0.0,0.0,0.0,0.0,0.0,0.0,0.0,0.0,0.0,0.0,0.0,0.0,-5.9698,-6.0091,-6.0434,-6.0699,-6.0004,-6.0008,-6.0668,-6.0696,-6.0345,-5.971,-5.9962,-6.0061,-6.011,-6.0782,-6.1089,-6.0976,-6.0358,-6.0075,-6.005,-5.978,-5.9698,-5.9698,-5.9698,-5.9948,-6.0248,0.0,0.0,0.0,0.0,0.0,0.0,0.0,0.0,0.0,0.0,0.0,0.0,0.0,0.0,0.0,0.0,0.0,0.0,0.0,0.0,0.0,0.0,0.0,-3.1436,-3.1286,-3.1814,-3.1828,-3.1286,-3.1528,-3.166,-3.1673,0.0,0.0,0.0,0.0,-3.3602,-3.3491,-3.3245,-3.3209,-3.3208,-3.2125,-3.2001,0.0,0.0,0.0,0.0,0.0,0.0,0.0,0.0,0.0,0.0,0.0,0.0,0.0,0.0,-3.4961,-3.5112,-3.5573,-3.6188,-3.6864,0.0,0.0,0.0,0.0,0.0,0.0,0.0,0.0,0.0,0.0,0.0,0.0,0.0,0.0,0.0,0.0,0.0,0.0,0.0,0.0,0.0,0.0,0.0,0.0,0.0,0.0,0.0,0.0,-5.917,-5.8471,-5.8471,-5.8471,-5.8588,-5.8868,-5.8136,-5.791,-5.8181,-5.8492,-5.8289,-5.7782,-5.8052,-5.8166,-5.8232,-5.8987,-5.9283,-5.9234,-5.8519,-5.8456,-5.8863,-5.8595,-5.8605,-5.88,-5.88,-5.8919,-5.9099,0.0,0.0,0.0,0.0,0.0,0.0,0.0,0.0,0.0,0.0,0.0,0.0,0.0,0.0,0.0,0.0,0.0,0.0,0.0,0.0,0.0,0.0,0.0,-3.2124,-3.2117,-3.2884,-3.2898,-3.2117,-3.2898,-3.329,-3.329,-3.329,0.0,0.0,0.0,0.0,-3.2877,-3.252,-3.2248,-3.1926,-3.1279,-3.1604,-3.2452,0.0,0.0,0.0,0.0,0.0,0.0,0.0,0.0,0.0,0.0,0.0,0.0,0.0,-3.561,-3.6499,-3.7183,-3.6901,0.0,0.0,0.0,0.0,0.0,0.0,0.0,0.0,0.0,0.0,0.0,0.0,0.0,0.0,0.0,0.0,0.0,0.0,0.0,0.0,0.0,0.0,0.0,0.0,0.0,0.0,0.0,0.0,0.0,-5.7686,-5.7094,-5.7094,-5.7094,-5.7094,-5.7079,-5.7079,-5.7079,-5.7064,-5.6466,-5.6481,-5.7079,-5.7079,-5.7079,-5.7079,-5.7079,-5.7079,-5.7079,-5.7079,-5.7079,-5.7079,-5.7094,-5.7513,-5.8112,-5.8112,-5.853,-5.9084,0.0,0.0,0.0,0.0,0.0,0.0,0.0,0.0,0.0,0.0,0.0,0.0,0.0,0.0,0.0,0.0,0.0,0.0,0.0,0.0,0.0,0.0,0.0,0.0,0.0,0.0,-3.3192,-3.2926,-3.3192,-3.329,0.0,0.0,0.0,-3.329,0.0,0.0,-3.2849,-3.2102,-3.1847,-3.1926,-3.1279,-3.1604,-3.2497,0.0,0.0,0.0,0.0,0.0,0.0,0.0,0.0,0.0,0.0,0.0,0.0,0.0,-3.418,-3.4305,-3.4744,0.0,0.0,0.0,0.0,0.0,0.0,0.0,0.0,0.0,0.0,0.0,0.0,0.0,0.0,0.0,0.0,0.0,0.0,0.0,0.0,0.0,0.0,0.0,0.0,0.0,0.0,0.0,0.0,0.0,0.0,-5.7378,-5.7094,-5.7094,-5.7094,-5.6885,-5.6451,-5.6451,-5.6211,-5.5748,-5.5568,-5.5822,-5.6421,-5.5972,-5.5748,-5.5748,-5.5748,-5.5748,-5.5792,-5.6256,-5.6451,-5.6481,-5.6915,-5.7214,-5.7408,-5.7408,-5.7528,-5.7752,0.0,0.0,0.0,0.0,0.0,0.0,0.0,0.0,0.0,0.0,0.0,0.0,0.0,0.0,0.0,0.0,0.0,0.0,0.0,0.0,0.0,0.0,0.0,0.0,0.0,-3.3241,-3.329,0.0,0.0,0.0,0.0,0.0,0.0,-3.329,0.0,-3.3078,0.0,-3.2106,-3.2139,-3.2503,-3.1593,-3.2208,-3.3616,0.0,0.0,0.0,0.0,0.0,0.0,0.0,0.0,0.0,0.0,0.0,0.0,0.0,-3.4491,-3.4612,0.0,0.0,0.0,0.0,0.0,0.0,0.0,0.0,0.0,0.0,0.0,0.0,0.0,0.0,0.0,0.0,0.0,0.0,0.0,0.0,0.0,0.0,0.0,0.0,0.0,0.0,0.0,0.0,0.0,0.0,0.0,-5.6464,-5.6331,-5.6331,-5.6331,-5.6152,-5.5792,-5.5777,-5.5583,-5.5194,-5.5194,-5.5403,-5.5763,-5.5374,-5.5194,-5.5194,-5.5194,-5.5194,-5.5224,-5.5628,-5.5777,-5.5822,-5.6196,-5.6496,-5.672,-5.672,-5.6885,-5.7154,0.0,0.0,0.0,0.0,0.0,0.0,0.0,0.0,0.0,0.0,0.0,0.0,0.0,0.0,0.0,0.0,0.0,0.0,0.0,0.0,0.0,0.0,0.0,0.0,0.0,0.0,0.0,0.0,0.0,0.0,0.0,0.0,-3.3403,-3.348,0.0,-3.3073,-3.2483,-3.2483,-3.2819,-3.3274,-3.2122,-3.3124,-3.5145,-3.3475,0.0,0.0,0.0,0.0,0.0,0.0,0.0,0.0,0.0,0.0,0.0,-3.5354,-3.5769,0.0,0.0,0.0,0.0,0.0,0.0,0.0,0.0,0.0,0.0,0.0,0.0,0.0,0.0,0.0,0.0,0.0,0.0,0.0,0.0,0.0,0.0,0.0,0.0,0.0,0.0,0.0,0.0,0.0,0.0,0.0,0.0,-5.5194,-5.5194,-5.5143,-5.5194,-5.5194,-5.5143,-5.5194,-5.5194,-5.5194,-5.5194,-5.5194,-5.5194,-5.5194,-5.5194,-5.5194,-5.5194,-5.5194,-5.5194,-5.5194,-5.5194,-5.5194,-5.5194,-5.5553,-5.6092,-5.6092,-5.6436,-5.693,0.0,0.0,0.0,0.0,0.0,0.0,0.0,0.0,0.0,0.0,0.0,0.0,0.0,0.0,0.0,0.0,0.0,0.0,0.0,0.0,0.0,-3.2101,-3.286,-3.3241,-3.329,-3.329,0.0,0.0,0.0,0.0,0.0,0.0,0.0,-3.4781,0.0,-3.3655,-3.3094,-3.3094,-3.2778,-3.2291,-3.2738,-3.3291,-3.3747,-3.2834,-3.3259,0.0,0.0,0.0,0.0,0.0,0.0,0.0,0.0,-3.3417,-3.3473,-3.3811,-3.4682,0.0,0.0,0.0,0.0,0.0,0.0,0.0,0.0,0.0,0.0,0.0,0.0,0.0,0.0,0.0,0.0,0.0,0.0,0.0,0.0,0.0,0.0,0.0,0.0,0.0,0.0,0.0,0.0,0.0,0.0,0.0,-5.5194,-5.5194,-5.5093,-5.489,-5.5093,-5.5093,-5.4905,-5.5093,-5.5194,0.0,-5.5194,-5.5194,-5.5194,-5.5194,-5.5194,-5.5194,-5.5194,-5.5194,-5.5194,-5.5194,-5.5194,-5.5194,-5.5194,-5.5284,-5.5403,-5.5403,-5.5493,-5.5673,0.0,0.0,0.0,0.0,0.0,0.0,0.0,0.0,0.0,0.0,0.0,0.0,0.0,0.0,0.0,0.0,0.0,0.0,0.0,0.0,0.0,0.0,-3.2862,-3.329,-3.329,-3.3571,-3.388,0.0,0.0,0.0,0.0,0.0,0.0,-3.5161,0.0,-3.4189,-3.4155,-3.3564,-3.3479,-3.3734,-3.3423,-3.3736,-3.4245,-3.3223,-3.3377,-3.4016,-3.336,0.0,0.0,0.0,0.0,0.0,0.0,0.0,-3.3438,-3.4135,-3.4383,0.0,0.0,0.0,0.0,0.0,0.0,0.0,0.0,0.0,0.0,0.0,0.0,0.0,0.0,0.0,0.0,0.0,0.0,0.0,0.0,0.0,0.0,0.0,0.0,0.0,0.0,0.0,0.0,0.0,0.0,-5.4524,-5.4991,-5.4991,-5.4941,-5.4788,-5.4773,-5.4758,-5.4803,-5.4955,-5.5093,-5.5194,-5.5194,-5.5194,-5.5194,-5.5194,-5.5194,-5.5194,-5.5194,-5.5194,-5.5194,-5.5194,-5.5194,-5.5194,-5.5194,-5.5194,-5.5194,-5.5194,-5.5194,-5.5239,0.0,0.0,0.0,0.0,0.0,0.0,0.0,0.0,0.0,0.0,0.0,0.0,0.0,0.0,0.0,0.0,0.0,0.0,0.0,0.0,0.0,0.0,-3.2821,-3.3213,-3.3445,-3.3936,-3.4301,0.0,0.0,0.0,0.0,0.0,0.0,-3.533,0.0,-3.4674,-3.5119,-3.3958,-3.4249,-3.5388,-3.3994,-3.4107,-3.4897,-3.3754,-3.3486,-3.3681,-3.3382,-3.329,-3.329,-3.329,0.0,0.0,0.0,0.0,-3.3558,-3.4766,-3.4447,-3.4489,0.0,0.0,0.0,0.0,0.0,0.0,0.0,0.0,0.0,0.0,0.0,0.0,0.0,0.0,0.0,0.0,0.0,0.0,0.0,0.0,0.0,0.0,0.0,0.0,0.0,0.0,0.0,0.0,0.0,-5.4421,-5.4788,-5.4854,-5.4854,-5.4803,-5.459,-5.4539,-5.4803,-5.4854,-5.4991,-5.5194,-5.5194,-5.5194,-5.5194,-5.5194,-5.5194,-5.5194,-5.5194,-5.5194,-5.5194,-5.5194,-5.5194,-5.5194,-5.5194,-5.5194,-5.5194,-5.5194,-5.5194,-5.5194,0.0,0.0,0.0,0.0,0.0,0.0,0.0,0.0,0.0,0.0,0.0,0.0,0.0,0.0,0.0,0.0,0.0,0.0,-2.9858,0.0,0.0,-3.2109,-3.2227,-3.283,-3.4062,-3.4161,-3.4759,0.0,0.0,0.0,0.0,0.0,0.0,-3.5949,0.0,0.0,-3.5147,-3.4407,-3.4211,-3.4387,-3.4183,-3.3881,-3.3579,-3.3354,-3.3326,-3.3347,-3.3326,-3.329,-3.329,-3.329,-3.329,0.0,0.0,0.0,0.0,-3.3558,0.0,0.0,0.0,0.0,0.0,0.0,0.0,0.0,0.0,0.0,0.0,0.0,0.0,0.0,0.0,0.0,0.0,0.0,0.0,0.0,0.0,0.0,0.0,0.0,0.0,0.0,0.0,0.0,0.0,0.0,-5.4149,-5.4421,-5.4788,-5.5042,-5.5042,-5.4803,-5.4976,-5.4976,-5.4803,-5.5042,-5.5143,-5.5194,-5.5194,-5.5194,-5.5194,-5.5194,-5.5194,-5.5194,-5.5194,-5.5194,-5.5194,-5.5194,-5.5194,-5.5194,-5.5194,-5.5194,-5.5194,-5.5194,-5.5194,-5.5194,0.0,0.0,0.0,0.0,0.0,0.0,0.0,0.0,0.0,0.0,0.0,0.0,0.0,0.0,0.0,-2.8664,-2.9167,-2.9642,-3.0018,-3.1109,-3.1915,-3.2255,-3.2927,-3.357,-3.4189,-3.4576,0.0,0.0,0.0,0.0,0.0,-3.5611,-3.5695,0.0,0.0,0.0,0.0,0.0,-3.388,-3.4175,-3.3824,-3.4043,-3.4461,-3.3614,-3.3818,-3.4411,-3.36,-3.329,-3.329,-3.329,-3.329,-3.329,-3.329,0.0,0.0,0.0,0.0,0.0,0.0,0.0,0.0,0.0,0.0,0.0,0.0,0.0,0.0,0.0,0.0,0.0,0.0,0.0,0.0,0.0,0.0,0.0,0.0,0.0,0.0,0.0,0.0,0.0,0.0,0.0,0.0,0.0,-5.3904,-5.4112,-5.4296,-5.4399,-5.4502,-5.4487,-5.4487,-5.4553,-5.4803,-5.489,-5.5042,-5.5194,-5.5194,-5.5194,-5.5194,-5.5194,-5.5194,-5.5194,-5.5194,-5.5194,-5.5194,-5.5194,-5.5194,-5.5194,-5.5194,-5.5194,-5.5194,-5.5194,-5.5194,-5.5194,0.0,0.0,0.0,0.0,0.0,0.0,0.0,0.0,0.0,0.0,0.0,0.0,0.0,0.0,0.0,0.0,-2.8924,-2.9334,-2.9864,-3.1313,-3.2208,-3.2311,-3.3398,-3.415,-3.45,0.0,0.0,0.0,0.0,0.0,-3.6089,-3.5316,-3.5695,0.0,-3.5897,0.0,0.0,0.0,0.0,0.0,0.0,-3.4517,0.0,-3.4709,-3.5085,-3.5869,-3.4369,-3.386,-3.3804,-3.3424,-3.329,-3.329,-3.329,-3.329,0.0,0.0,0.0,0.0,0.0,0.0,0.0,0.0,0.0,0.0,0.0,0.0,0.0,0.0,0.0,0.0,0.0,0.0,0.0,0.0,0.0,0.0,0.0,0.0,0.0,0.0,0.0,0.0,0.0,0.0,0.0,0.0,-5.3529,-5.3743,-5.389,-5.3956,-5.4097,-5.4304,-5.4097,-5.4156,-5.4433,-5.4321,-5.4434,-5.4685,-5.4685,-5.4685,-5.4685,-5.4865,-5.494,-5.4955,-5.5119,-5.5194,-5.5194,-5.5194,-5.5194,-5.5194,-5.5194,-5.5194,-5.5194,-5.5194,-5.5194,-5.5194,0.0,0.0,0.0,0.0,0.0,0.0,0.0,0.0,0.0,0.0,0.0,0.0,-2.8687,-2.8356,-2.8232,-2.8758,-2.8988,-2.904,-2.8873,-3.0557,-3.1729,-3.2108,-3.2915,0.0,-3.539,0.0,0.0,0.0,0.0,0.0,-3.6075,-3.4843,-3.525,-3.695,-3.6356,-3.6075,-3.6019,0.0,0.0,0.0,0.0,0.0,0.0,0.0,0.0,0.0,0.0,0.0,-3.5178,-3.379,-3.329,-3.329,-3.329,-3.329,-3.329,0.0,0.0,0.0,0.0,0.0,0.0,0.0,0.0,0.0,0.0,0.0,0.0,0.0,0.0,0.0,0.0,0.0,0.0,0.0,0.0,0.0,0.0,0.0,0.0,0.0,0.0,0.0,0.0,0.0,0.0,0.0,-5.2887,-5.3304,-5.3875,-5.4149,-5.4304,-5.4304,-5.4304,-5.4024,-5.3499,-5.3064,-5.3049,-5.3279,-5.3279,-5.3279,-5.3309,-5.3967,-5.4266,-5.4296,-5.4925,-5.5194,-5.5194,-5.5194,-5.5194,-5.5194,-5.5194,-5.5194,-5.5194,-5.5194,-5.5194,-5.5194,0.0,0.0,0.0,0.0,0.0,0.0,0.0,0.0,0.0,0.0,0.0,0.0,0.0,-2.8892,-2.9065,-2.9404,-2.9507,-2.9677,-2.9935,-3.0931,-3.1746,-3.228,-3.3322,-3.4126,-3.4649,0.0,0.0,0.0,0.0,-3.4034,-3.4885,-3.4399,-3.5012,-3.6399,-3.5335,-3.511,-3.5442,-3.4169,0.0,0.0,0.0,0.0,0.0,0.0,0.0,0.0,0.0,0.0,0.0,-3.4901,-3.4079,-3.329,-3.329,-3.329,-3.329,0.0,0.0,0.0,0.0,0.0,0.0,0.0,0.0,0.0,0.0,0.0,0.0,0.0,0.0,0.0,0.0,0.0,0.0,0.0,0.0,0.0,0.0,0.0,0.0,0.0,0.0,0.0,0.0,0.0,0.0,0.0,0.0,-5.2217,-5.2435,-5.2486,-5.2741,-5.3044,-5.3095,-5.3127,-5.3253,-5.3113,-5.3077,-5.3174,-5.3174,-5.3174,-5.3189,-5.3428,-5.3548,-5.3593,-5.4266,-5.4805,-5.5194,-5.5194,-5.5194,-5.5194,-5.5194,-5.5194,-5.5194,-5.5194,-5.5194,-5.5194,0.0,0.0,0.0,0.0,0.0,0.0,0.0,0.0,0.0,0.0,0.0,0.0,0.0,0.0,-2.947,-2.965,-2.9753,-2.9844,-3.0012,-3.0753,-3.1418,-3.1883,-3.3173,-3.3881,-3.3885,0.0,0.0,0.0,0.0,0.0,0.0,-3.4203,-3.4787,-3.5752,-3.4688,-3.4688,0.0,0.0,0.0,-3.3761,0.0,0.0,-3.6958,0.0,0.0,0.0,0.0,0.0,0.0,0.0,-3.5605,-3.4695,0.0,0.0,0.0,0.0,0.0,0.0,0.0,0.0,0.0,0.0,0.0,0.0,0.0,0.0,0.0,0.0,0.0,0.0,0.0,0.0,0.0,0.0,0.0,0.0,0.0,0.0,0.0,0.0,0.0,0.0,0.0,0.0,0.0,0.0,0.0,0.0,-5.1614,-5.1614,-5.1765,-5.2117,-5.2012,-5.2127,-5.2602,-5.2476,-5.242,-5.2516,-5.2516,-5.2516,-5.2531,-5.2755,-5.2845,-5.289,-5.3563,-5.4236,-5.488,-5.5104,-5.5194,-5.5194,-5.5194,-5.5194,-5.5194,-5.5194,-5.5194,-5.5194,0.0,0.0,0.0,0.0,0.0,0.0,0.0,0.0,0.0,0.0,0.0,0.0,0.0,0.0,0.0,-2.9419,-2.965,-2.9507,-2.8882,-2.9947,-3.0675,-3.0878,-3.2404,-3.3289,-3.3275,0.0,0.0,0.0,0.0,0.0,0.0,0.0,-3.4497,0.0,-3.4478,-3.4885,-3.5977,0.0,-3.4175,-3.4379,0.0,-3.6844,-3.5884,0.0,0.0,0.0,-3.7773,-3.7744,0.0,0.0,0.0,0.0,0.0,0.0,0.0,0.0,0.0,0.0,0.0,0.0,0.0,0.0,0.0,0.0,0.0,0.0,0.0,0.0,0.0,0.0,0.0,0.0,0.0,0.0,0.0,0.0,0.0,0.0,0.0,0.0,0.0,0.0,0.0,0.0,0.0,0.0,-5.0691,-5.0917,-5.1527,-5.1556,-5.157,-5.157,-5.1195,-5.1106,-5.1385,-5.0976,-5.0964,-5.1214,-5.1214,-5.1214,-5.1244,-5.1872,-5.2172,-5.2217,-5.286,-5.3533,-5.4206,-5.488,-5.5179,-5.5194,-5.5194,-5.5194,-5.5194,-5.5194,-5.5194,-5.5194,0.0,0.0,0.0,0.0,0.0,0.0,0.0,0.0,0.0,0.0,0.0,0.0,-2.9677,-2.9509,-2.9419,-2.9419,-2.947,-2.9521,-2.9534,-3.0221,-3.061,-3.0701,-3.1942,-3.2658,-3.2663,0.0,0.0,0.0,0.0,0.0,0.0,0.0,0.0,0.0,-3.381,-3.3978,-3.4652,-3.3866,0.0,0.0,-3.657,-3.7448,0.0,0.0,0.0,0.0,0.0,-3.8878,-3.8445,0.0,-3.7468,-3.5004,0.0,0.0,0.0,0.0,0.0,0.0,-3.329,0.0,0.0,0.0,0.0,0.0,0.0,0.0,0.0,0.0,0.0,0.0,0.0,0.0,0.0,0.0,0.0,0.0,0.0,0.0,0.0,0.0,0.0,0.0,0.0,0.0,0.0,0.0,-5.0008,-5.0032,-5.0206,-5.0417,-5.053,-5.053,-5.0762,-5.0884,-5.0994,-5.1053,-5.112,-5.1214,-5.1214,-5.1214,-5.1229,-5.1409,-5.1498,-5.1528,-5.2187,-5.2576,-5.2845,-5.3997,-5.476,-5.5194,-5.5194,-5.5194,-5.5194,-5.5194,-5.5194,-5.5194,0.0,0.0,0.0,0.0,0.0,0.0,0.0,0.0,0.0,0.0,0.0,0.0,-2.9507,-2.9521,-2.9509,-2.9419,-2.9509,-2.956,-2.9495,-2.9806,-2.9897,-2.9729,-3.0714,-3.1261,-3.1257,0.0,0.0,0.0,0.0,0.0,0.0,0.0,0.0,0.0,0.0,0.0,0.0,0.0,0.0,0.0,-3.6499,0.0,0.0,-3.9085,-4.004,0.0,0.0,0.0,-3.9319,-4.044,-3.8537,0.0,0.0,0.0,0.0,0.0,0.0,0.0,0.0,0.0,0.0,0.0,0.0,0.0,-3.9861,-4.1494,0.0,0.0,0.0,0.0,0.0,0.0,0.0,0.0,0.0,0.0,0.0,0.0,0.0,0.0,0.0,0.0,0.0,-4.9717,-4.9717,-4.9717,-4.9717,-4.9717,-4.9717,-4.9829,-4.9926,-4.9926,-5.0313,-5.0537,-5.0695,-5.0917,-5.1073,-5.1214,-5.1214,-5.1214,-5.1214,-5.1214,-5.1214,-5.1244,-5.1618,-5.1947,-5.2261,-5.3039,-5.3937,-5.4775,-5.4775,-5.494,-5.5194,-5.5194,-5.5194,-5.5194,0.0,0.0,0.0,0.0,0.0,0.0,0.0,0.0,0.0,0.0,0.0,0.0,-2.9131,-2.9456,-2.9611,-2.938,-2.9611,-2.9585,-2.917,-2.917,-2.9025,-2.8669,-2.938,-2.9819,-2.9819,0.0,0.0,0.0,0.0,0.0,0.0,0.0,0.0,0.0,0.0,0.0,0.0,0.0,0.0,-3.379,-3.6484,-3.6821,0.0,0.0,-3.9229,0.0,-3.9668,-4.0068,-4.0155,-4.1302,-4.004,0.0,0.0,0.0,0.0,0.0,-3.3424,0.0,0.0,0.0,0.0,0.0,0.0,0.0,-4.0301,-4.1039,-4.1909,0.0,0.0,0.0,0.0,0.0,0.0,0.0,0.0,0.0,0.0,0.0,0.0,0.0,0.0,0.0,-4.9407,-4.9524,-4.9567,-4.9567,-4.964,-4.9717,-4.9717,-4.9717,-4.9717,-4.9717,-4.999,-5.0246,-5.0501,-5.0742,-5.0964,-5.1214,-5.1214,-5.1214,-5.1214,-5.1214,-5.1214,-5.1214,-5.1214,-5.1558,-5.2097,-5.2097,-5.289,-5.4102,-5.4177,-5.4566,-5.5089,-5.5164,-5.5194,-5.5194,-2.5493,0.0,0.0,0.0,0.0,0.0,0.0,0.0,0.0,0.0,0.0,0.0,0.0,-2.917,-2.9209,-2.917,-2.9353,-2.9431,-2.9341,-2.9534,-2.9636,-2.9546,-3.0101,-3.0418,-3.0418,-3.0315,0.0,0.0,0.0,0.0,0.0,0.0,0.0,0.0,0.0,0.0,0.0,0.0,0.0,-3.5178,-3.6244,0.0,-3.752,-3.9762,-4.0874,-4.1299,-4.1587,-4.1244,-4.0504,0.0,-3.9362,-3.9057,0.0,0.0,0.0,0.0,0.0,0.0,0.0,0.0,0.0,0.0,0.0,0.0,-3.7715,-3.879,-3.9818,0.0,0.0,0.0,0.0,0.0,0.0,0.0,0.0,0.0,0.0,0.0,0.0,0.0,0.0,0.0,-4.8145,-4.8609,-4.8914,-4.8914,-4.9393,-4.9717,-4.9717,-4.9717,-4.9717,-4.9717,-5.0183,-5.0453,-5.0501,-5.0899,-5.1167,-5.1214,-5.1214,-5.1214,-5.1214,-5.1214,-5.1214,-5.1214,-5.1214,-5.1289,-5.1409,-5.1409,-5.2187,-5.3428,-5.3997,-5.4281,-5.4461,-5.4999,-5.5194,-5.5194,-2.5973,0.0,0.0,0.0,0.0,0.0,0.0,0.0,0.0,0.0,0.0,0.0,0.0,0.0,-2.9417,-2.9275,-2.9443,-2.956,-2.9419,-2.9521,-2.9573,-2.9456,-2.9703,-2.9832,-2.9832,-2.9767,0.0,0.0,0.0,0.0,0.0,0.0,0.0,0.0,0.0,0.0,0.0,0.0,-3.3375,-3.3996,-3.616,0.0,-3.9014,-4.0773,-4.172,-4.2092,-4.2092,-4.1833,-4.1334,-4.0602,-3.9672,0.0,0.0,-3.7196,-3.629,0.0,-3.4929,-3.5192,0.0,0.0,0.0,-3.5189,0.0,0.0,0.0,-3.8665,-3.941,-4.0158,0.0,0.0,0.0,0.0,0.0,0.0,0.0,0.0,0.0,0.0,0.0,0.0,0.0,0.0,-4.7753,-4.8058,-4.8246,-4.8246,-4.8841,-4.9204,-4.9204,-4.9494,-4.9717,-4.9717,-4.9975,-5.0246,-5.0501,-5.0724,-5.0947,-5.1214,-5.1214,-5.1214,-5.1214,-5.1214,-5.1214,-5.1214,-5.1214,-5.1214,-5.1214,-5.1214,-5.1618,-5.2276,-5.295,-5.3623,-5.4251,-5.4581,-5.491,-5.5194,-2.6534,0.0,0.0,0.0,0.0,0.0,0.0,0.0,0.0,0.0,0.0,0.0,0.0,0.0,0.0,0.0,-3.0288,-3.024,-2.9754,-2.9768,-2.9702,-2.9557,-2.9359,-2.9308,-2.9557,-2.9359,-2.9509,0.0,0.0,0.0,0.0,0.0,0.0,0.0,0.0,0.0,0.0,0.0,0.0,-3.3105,0.0,-3.8022,-3.9373,-4.0871,-4.1604,-4.1877,-4.2049,-4.2092,-4.2063,-4.1761,-4.0083,-3.8236,-3.8845,-3.7787,0.0,0.0,0.0,0.0,0.0,0.0,0.0,0.0,0.0,-3.7324,0.0,0.0,0.0,-4.0287,0.0,0.0,0.0,0.0,0.0,0.0,0.0,0.0,0.0,0.0,0.0,0.0,0.0,0.0,0.0,-4.7213,-4.7474,-4.7767,-4.8097,-4.8358,-4.8537,-4.903,-4.9364,-4.948,-4.9543,-4.9906,-5.0501,-5.0548,-5.0757,-5.1214,-5.1214,-5.1214,-5.1214,-5.1214,-5.1214,-5.1214,-5.1214,-5.1214,-5.1214,-5.1214,-5.1214,-5.1289,-5.1947,-5.286,-5.3862,-5.4117,-5.4536,-5.5029,-2.7624,-2.8338,0.0,0.0,0.0,0.0,0.0,0.0,0.0,0.0,0.0,0.0,0.0,0.0,0.0,0.0,0.0,0.0,-3.1,0.0,-3.1157,-3.1117,-3.0215,-3.0152,-3.1104,-3.019,-2.9585,0.0,0.0,0.0,0.0,0.0,0.0,0.0,-3.1658,0.0,0.0,0.0,-3.3914,0.0,-3.5412,-3.5969,0.0,-3.8435,-3.9808,-4.1035,-4.1833,-4.2092,-4.1918,0.0,-3.9924,-3.924,0.0,-3.7572,-3.8644,0.0,0.0,0.0,0.0,0.0,0.0,0.0,-3.6117,0.0,0.0,0.0,-3.731,-3.7451,0.0,0.0,0.0,0.0,0.0,0.0,0.0,0.0,0.0,0.0,0.0,0.0,0.0,0.0,0.0,-4.5102,-4.6333,-4.7695,-4.7131,-4.7102,-4.7854,-4.7956,-4.8246,-4.8812,-4.9051,-4.9582,-5.0501,-5.0695,-5.0917,-5.1214,-5.1214,-5.1214,-5.1214,-5.1214,-5.1214,-5.1214,-5.1214,-5.1214,-5.1214,-5.1214,-5.1214,-5.1289,-5.1947,-5.2291,-5.2576,-5.3773,-5.4266,-5.4401,-2.7852,-2.8163,0.0,0.0,0.0,0.0,0.0,0.0,0.0,0.0,0.0,0.0,0.0,0.0,0.0,0.0,0.0,-3.1859,0.0,0.0,0.0,0.0,-3.003,-2.9953,-3.0221,-2.9966,-2.9624,-2.9275,-2.9341,0.0,0.0,0.0,0.0,0.0,-3.1826,0.0,-3.2479,0.0,0.0,0.0,0.0,0.0,0.0,-3.8007,-3.9648,-4.08,-4.1769,-4.2092,-4.202,0.0,-4.027,0.0,0.0,0.0,0.0,0.0,0.0,0.0,0.0,0.0,0.0,0.0,0.0,0.0,-3.7116,0.0,-3.6978,0.0,0.0,0.0,0.0,0.0,0.0,0.0,-3.8088,0.0,0.0,0.0,0.0,0.0,0.0,0.0,0.0,0.0,0.0,0.0,-4.6674,-4.6848,-4.7216,-4.7579,-4.7912,-4.8174,-4.8315,-4.8763,-4.9706,-4.9929,-5.0357,-5.0964,-5.112,-5.1214,-5.1214,-5.1214,-5.1214,-5.1214,-5.1214,-5.1214,-5.1214,-5.1214,-5.1214,-5.1244,-5.1528,-5.1872,-5.2321,-5.3264,-5.3862,-5.4311,-2.7893,0.0,0.0,0.0,0.0,0.0,0.0,0.0,0.0,0.0,0.0,0.0,-2.9878,-3.0638,0.0,0.0,-3.2579,-3.2629,0.0,0.0,-3.1637,0.0,0.0,0.0,0.0,-3.0002,-2.9663,-2.9419,-2.947,0.0,0.0,0.0,0.0,0.0,0.0,-3.2284,-3.2562,0.0,0.0,-3.3333,-3.4314,-3.4855,-3.537,-3.7903,-3.9412,-4.0317,-4.1199,-4.1525,-4.1511,-4.1565,-4.0467,0.0,-4.0922,0.0,0.0,0.0,0.0,0.0,-3.5605,0.0,0.0,0.0,0.0,0.0,0.0,0.0,0.0,0.0,0.0,0.0,0.0,0.0,0.0,0.0,0.0,-3.8187,0.0,0.0,0.0,0.0,0.0,0.0,0.0,0.0,0.0,-4.5254,-4.5863,-4.6297,-4.6563,-4.7013,-4.7346,-4.7521,-4.7521,-4.7998,-4.8922,-4.9287,-4.9893,-5.0649,-5.1031,-5.1214,-5.1214,-5.1214,-5.1214,-5.1214,-5.1214,-5.1214,-5.1214,-5.1214,-5.1214,-5.1214,-5.1214,-5.1513,-5.2007,-5.2665,-5.3339,-5.4027,-2.78,-2.851,0.0,0.0,0.0,0.0,0.0,0.0,0.0,0.0,0.0,0.0,0.0,0.0,0.0,0.0,0.0,-3.5755,-3.4688,0.0,-3.3483,0.0,0.0,-3.0796,0.0,-3.0884,-2.9663,-2.9419,-2.965,-2.965,0.0,0.0,0.0,0.0,0.0,-3.2025,-3.2705,-3.3062,-3.3967,-3.5089,-3.4624,-3.5199,-3.6476,0.0,-3.856,-3.9322,-3.9861,0.0,0.0,-4.0221,-4.0216,0.0,0.0,0.0,0.0,0.0,0.0,0.0,0.0,0.0,0.0,-3.6423,0.0,0.0,0.0,0.0,-3.6978,0.0,0.0,0.0,0.0,0.0,0.0,0.0,0.0,0.0,0.0,0.0,0.0,0.0,0.0,0.0,0.0,0.0,0.0,-4.3733,-4.431,-4.5033,-4.588,-4.5938,-4.6229,-4.6792,-4.6821,-4.7403,-4.8494,-4.9174,-4.9732,-5.0226,-5.0868,-5.1214,-5.1214,-5.1214,-5.1214,-5.1214,-5.1214,-5.1214,-5.1214,-5.1214,-5.1214,-5.1214,-5.1214,-5.1229,-5.1334,-5.1992,-5.265,-5.3309,0.0,0.0,0.0,0.0,0.0,0.0,0.0,-2.9624,0.0,0.0,0.0,0.0,0.0,-3.3138,-3.3922,0.0,0.0,-3.5115,-3.4751,-3.3684,0.0,0.0,0.0,-3.0442,0.0,-3.0465,-2.9663,-2.9419,-2.9663,-2.974,0.0,0.0,0.0,0.0,0.0,-3.1963,0.0,0.0,0.0,0.0,0.0,-3.5425,-3.6301,0.0,-3.8569,-3.9024,-4.094,-4.1612,0.0,-4.2449,-4.2338,-4.1953,-4.2378,-4.2048,-4.1535,-4.1633,-4.1331,-4.0732,0.0,0.0,-4.0106,-3.8065,0.0,0.0,0.0,0.0,0.0,0.0,0.0,0.0,0.0,0.0,0.0,0.0,0.0,0.0,0.0,0.0,0.0,0.0,0.0,0.0,0.0,0.0,0.0,-4.3704,-4.4774,-4.5603,-4.5866,-4.588,-4.5982,-4.62,-4.62,-4.6596,-4.7374,-4.7961,-4.8735,-4.9717,-5.0266,-5.0749,-5.1214,-5.1214,-5.1214,-5.1214,-5.1214,-5.1214,-5.1214,-5.1214,-5.1214,-5.1214,-5.1214,-5.1214,-5.1289,-5.1947,-5.2336,-5.2695,-2.719,0.0,0.0,0.0,0.0,0.0,0.0,0.0,0.0,0.0,-3.1562,0.0,-3.3023,0.0,-3.3947,0.0,-3.5077,-3.5215,-3.4981,-3.4161,0.0,-3.3947,-3.2039,0.0,0.0,0.0,-3.0265,-3.0121,-2.9889,-2.9792,0.0,0.0,0.0,0.0,0.0,0.0,0.0,0.0,-3.4782,0.0,0.0,-3.6221,0.0,0.0,-3.8418,-3.8243,0.0,-4.114,-4.1354,-4.2606,-4.2653,-4.2356,-4.3274,-4.3059,-4.252,-4.3093,-4.2869,-4.2308,-4.1764,-4.2049,0.0,-3.9927,-4.0126,0.0,-3.8258,0.0,0.0,0.0,0.0,0.0,0.0,0.0,0.0,0.0,0.0,0.0,0.0,-3.6978,0.0,0.0,0.0,0.0,0.0,0.0,-4.2553,-4.3603,-4.4558,-4.5357,0.0,0.0,-4.588,-4.588,-4.588,-4.6129,-4.6567,-4.7269,-4.8071,-4.8929,-4.9773,-5.042,-5.0823,-5.1109,-5.1214,-5.1214,-5.1214,-5.1214,-5.1214,-5.1214,-5.1214,-5.1214,-5.1214,-5.1214,-5.1274,-5.1693,-5.2007,-5.2396,0.0,0.0,0.0,0.0,-2.8419,0.0,0.0,0.0,-3.0633,0.0,-3.1976,-3.2566,-3.3169,-3.4198,-3.4839,-3.4839,-3.5818,-3.6219,-3.5658,-3.5082,0.0,0.0,-3.401,-3.3621,-3.47,0.0,0.0,0.0,-3.0319,0.0,0.0,0.0,0.0,0.0,-3.0057,0.0,-3.3106,-3.3358,-3.4612,-3.6505,-3.6998,-3.7538,-3.8078,-3.8655,-3.8041,-3.7058,-3.8504,-3.9007,-3.9234,-4.075,-4.1319,-4.1505,-4.2536,-4.3559,-4.4359,-4.4359,-4.5095,-4.5574,-4.4181,-4.3805,-4.3445,-4.1894,-4.1523,0.0,0.0,0.0,-3.9368,0.0,0.0,0.0,0.0,0.0,0.0,0.0,0.0,0.0,0.0,0.0,0.0,0.0,0.0,0.0,0.0,-3.9215,-4.0486,-4.3344,-4.3632,0.0,0.0,0.0,-4.5806,-4.588,-4.588,-4.6015,-4.6165,-4.7109,-4.7658,-4.7911,-4.9402,-5.0136,-5.0211,-5.0838,-5.1184,-5.1214,-5.1214,-5.1214,-5.1214,-5.1214,-5.1214,-5.1214,-5.1214,-5.1214,-5.1214,-5.1214,-5.1633,-5.2381,-2.719,-2.7557,-2.8002,0.0,-2.8697,-2.9221,0.0,0.0,0.0,0.0,-3.3483,-3.4449,-3.5462,-3.6132,-3.6558,-3.6558,-3.7186,0.0,0.0,0.0,0.0,-3.6734,-3.4788,-3.401,-3.4713,-3.2528,0.0,-3.1386,0.0,0.0,-2.9792,0.0,0.0,0.0,0.0,0.0,-3.3081,-3.3176,-3.4668,-3.7023,-3.7575,-3.7778,-3.7805,0.0,-3.8529,-3.8304,-3.9979,-4.0624,-4.0787,-4.2008,-4.2875,-4.3545,-4.3829,-4.4652,-4.5489,-4.5489,-4.5685,-4.5822,-4.5444,-4.5357,-4.5008,-4.3488,-4.3128,-4.2697,0.0,0.0,0.0,0.0,0.0,0.0,0.0,0.0,0.0,0.0,0.0,0.0,0.0,0.0,0.0,-3.7419,0.0,0.0,-3.7209,-3.9169,-4.0777,-4.1551,-4.282,0.0,0.0,0.0,0.0,-4.5866,-4.588,-4.5925,-4.597,-4.6579,-4.7125,-4.7702,-4.8447,-4.9299,-5.0196,-5.036,-5.0704,-5.1214,-5.1214,-5.1214,-5.1214,-5.1214,-5.1214,-5.1214,-5.1214,-5.1214,-5.1214,-5.1214,-5.1633,-5.2247,-2.719,0.0,0.0,-2.8391,0.0,0.0,-3.0376,-3.0997,0.0,-3.3257,-3.4399,0.0,-3.6317,-3.7073,-3.755,-3.755,-3.7826,0.0,-3.7663,0.0,0.0,-3.7186,-3.6232,-3.5843,-3.6157,-3.4211,0.0,-3.2491,0.0,0.0,-2.9792,0.0,0.0,0.0,0.0,-3.0746,0.0,-3.3646,-3.5328,-3.7249,-3.8065,-3.8417,0.0,-3.9056,-3.9182,-3.9155,-4.0198,-4.0554,-4.0655,-4.1246,-4.1815,-4.2293,-4.2293,-4.3019,-4.3843,-4.3843,-4.4466,-4.5201,-4.5201,-4.5535,-4.5706,-4.4862,-4.4674,-4.4253,-4.274,-4.2697,-4.2855,0.0,-4.181,-4.158,0.0,0.0,0.0,0.0,0.0,0.0,0.0,0.0,0.0,0.0,-3.7274,0.0,-3.6274,-3.7917,-3.9538,-4.0791,-4.1002,0.0,0.0,0.0,0.0,-4.4576,-4.545,-4.5685,-4.5201,-4.6135,-4.6771,-4.7184,-4.7926,-4.882,-4.9823,-5.0061,-5.0554,-5.1214,-5.1214,-5.1214,-5.1214,-5.1214,-5.1214,-5.1214,-5.1214,-5.1214,-5.1214,-5.1214,-5.1454,-5.1813,0.0,0.0,0.0,0.0,0.0,0.0,0.0,-3.1805,0.0,-3.4022,0.0,-3.6056,-3.6568,-3.75,-3.8115,-3.8115,0.0,-3.8015,-3.755,-3.7965,-3.7977,-3.7425,-3.7864,-3.809,-3.8002,-3.6458,-3.5069,0.0,0.0,0.0,0.0,0.0,0.0,0.0,0.0,0.0,0.0,-3.4638,-3.6395,-3.75,-3.8555,-3.927,-3.9697,-3.9697,-3.9697,-3.9697,-3.9697,-3.9697,-3.9697,-3.9697,-3.9788,-3.989,-3.989,-4.0605,-4.1419,-4.1419,-4.2668,-4.4125,-4.4125,-4.4759,-4.5489,-4.5489,-4.5489,-4.5201,-4.4019,-4.3774,-4.3818,-4.3964,-4.2116,-4.1491,-4.4881,0.0,0.0,0.0,0.0,0.0,0.0,0.0,0.0,0.0,0.0,0.0,-3.589,-3.6431,-3.7817,0.0,0.0,0.0,0.0,0.0,0.0,-4.2976,-4.4718,-4.5247,-4.4312,-4.5792,-4.655,-4.6594,-4.7614,-4.8506,-4.9209,-4.9808,-5.042,-5.1094,-5.1184,-5.1214,-5.1214,-5.1214,-5.1214,-5.1214,-5.1214,-5.1214,-5.1214,-5.1214,-5.1214,-5.1304,0.0,0.0,0.0,0.0,0.0,-3.1452,-3.2987,-3.395,-3.4873,-3.583,-3.6897,-3.7613,-3.7713,-3.8316,-3.8718,-3.8718,-3.9132,0.0,0.0,0.0,0.0,-3.8655,-3.8668,-3.8492,-3.8015,-3.6835,-3.568,0.0,0.0,0.0,0.0,0.0,0.0,0.0,0.0,0.0,-3.4261,-3.6107,0.0,-3.868,-3.9283,-3.9609,-3.9697,-3.9697,-3.9697,-3.9697,-3.9697,-3.9697,-3.9697,-3.9697,-4.0275,-4.0932,-4.0932,-4.1667,-4.2536,-4.2536,-4.2778,-4.3081,-4.3081,-4.3225,-4.3321,-4.3321,-4.3321,-4.3504,-4.4045,-4.4188,-4.4432,-4.5308,-4.4459,-4.35,-4.3536,0.0,0.0,0.0,0.0,0.0,0.0,0.0,0.0,0.0,0.0,-3.7335,0.0,-3.6907,0.0,0.0,0.0,0.0,0.0,0.0,0.0,0.0,-4.3975,0.0,0.0,0.0,-4.6358,-4.6594,-4.6962,-4.7627,-4.8476,-4.9134,-4.9793,-5.039,-5.0943,-5.1214,-5.1214,-5.1214,-5.1214,-5.1214,-5.1214,-5.1214,-5.1214,-5.1214,-5.1214,-5.1229,0.0,0.0,0.0,0.0,0.0,0.0,0.0,-3.5855,-3.6468,-3.6607,-3.717,-3.7668,-3.7965,-3.8667,-3.9129,-3.9295,-3.9534,-3.9697,-3.9697,-3.9697,-3.9572,-3.9308,-3.9295,-3.917,-3.8881,-3.8078,-3.6835,-3.5107,0.0,0.0,0.0,0.0,0.0,0.0,0.0,-3.2792,0.0,0.0,0.0,-3.8492,-3.9346,-3.9697,-3.9697,-3.9697,-3.9697,-3.9697,-3.9697,-3.9697,-3.9697,-3.9697,-4.0032,-4.0415,-4.0415,-4.0756,-4.1196,-4.1196,-4.1581,-4.1963,-4.1963,-4.2404,-4.2792,-4.2792,-4.2792,-4.2937,-4.3402,-4.3497,-4.3654,-4.4186,-4.345,-4.2349,-4.1126,-4.0197,0.0,0.0,0.0,0.0,0.0,0.0,0.0,0.0,0.0,0.0,0.0,0.0,0.0,0.0,0.0,0.0,0.0,0.0,0.0,0.0,0.0,0.0,-4.2909,0.0,-4.6254,-4.6002,-4.6741,-4.7507,-4.8312,-4.9015,-4.9628,-5.0226,-5.0883,-5.1214,-5.1214,-5.1214,-5.1214,-5.1214,-5.1214,-5.1214,-5.1214,-5.1214,-5.1214,-5.1214,0.0,-2.8625,0.0,0.0,-3.2546,0.0,-3.5989,-3.7095,-3.7587,-3.7258,-3.7417,-3.7763,-3.8367,-3.9064,-3.9638,-4.0036,-4.0049,-4.0049,-4.0049,-3.9936,-3.9873,-3.9873,-3.976,-3.9697,-3.9697,-3.927,-3.8065,0.0,0.0,0.0,0.0,0.0,0.0,0.0,0.0,0.0,0.0,0.0,-3.7751,-3.8442,-3.9333,-3.9697,-3.9697,-3.9697,-3.9697,-3.9697,-3.9697,-3.9697,-3.9697,-3.9697,-3.9697,-3.9697,-3.9697,-3.9697,-3.9697,-3.9697,-4.0262,-4.0882,-4.0882,-4.1482,-4.2159,-4.2159,-4.2159,-4.2208,-4.2404,-4.2452,-4.2536,-4.2744,-4.1963,-4.0731,-3.9259,-3.9441,0.0,0.0,0.0,0.0,0.0,0.0,0.0,0.0,0.0,0.0,-3.6488,0.0,0.0,0.0,0.0,0.0,0.0,0.0,0.0,0.0,0.0,-4.2815,-4.1433,0.0,-4.5718,-4.5403,-4.6403,-4.733,-4.8102,-4.894,-4.9553,-5.0031,-5.087,-5.1214,-5.1214,-5.1214,-5.1214,-5.1214,-5.1214,-5.1214,-5.1214,-5.1214,-5.1214,-5.1214,0.0,0.0,0.0,0.0,0.0,0.0,-3.6013,-3.7188,-3.8141,-3.858,-3.8604,-3.8982,-3.9792,-3.9994,-4.0308,-4.1087,-4.1125,-4.1125,-4.1125,-4.0714,-4.0438,-4.0438,-3.9961,-3.9697,-3.9697,-3.9647,-3.9007,0.0,0.0,-3.5123,0.0,0.0,0.0,0.0,0.0,0.0,0.0,-3.7839,-3.8555,-3.9546,-3.9647,-3.9697,-3.9697,-3.9697,-3.9697,-3.9697,-3.9697,-3.9697,-3.9697,-3.9697,-3.9697,-3.9697,-3.9697,-3.9697,-3.9697,-3.9697,-3.9788,-3.9839,-3.9839,-3.9929,-3.9981,-3.9981,-3.9981,-4.0224,-4.1132,-4.1369,-4.1617,-4.2598,-4.1963,-4.0731,-3.9259,-3.9394,-3.9537,0.0,0.0,0.0,0.0,0.0,-4.0231,-3.8296,0.0,0.0,0.0,-3.6543,0.0,0.0,-3.5761,0.0,0.0,0.0,0.0,-3.8982,-4.014,-4.079,-4.0865,-4.2617,-4.4144,-4.5403,-4.5539,-4.624,-4.7444,-4.8745,-4.9344,-4.9464,-5.0676,-5.1214,-5.1214,-5.1214,-5.1214,-5.1214,-5.1214,-5.1214,-5.1214,-5.1214,-5.1214,-5.1214,0.0,0.0,0.0,0.0,0.0,0.0,0.0,-3.7945,-3.8544,-3.8759,-3.8812,-3.9167,-4.0178,-4.0306,-4.0512,-4.1047,-4.1234,-4.1288,-4.1288,-4.1075,-4.0962,-4.0962,-4.0488,-4.0187,-4.0187,-3.986,-3.9132,0.0,0.0,0.0,0.0,0.0,0.0,0.0,0.0,-3.6973,-3.8052,-3.873,-3.9283,-3.9697,-3.9697,-3.9697,-3.9697,-3.9697,-3.9697,-3.9697,-3.9697,-3.9697,-3.9697,-3.9697,-3.9697,-3.9697,-3.9697,-3.9923,-4.0187,-4.0187,-4.0425,-4.0676,-4.0676,-4.0438,-4.0187,-4.0187,-3.9936,-3.9788,-4.0224,-4.0313,-4.0415,-4.0857,-4.0605,-4.0134,-3.955,-3.9321,-3.9294,-3.9423,0.0,0.0,0.0,0.0,0.0,-3.912,0.0,-3.8492,0.0,0.0,0.0,0.0,0.0,0.0,0.0,0.0,0.0,-3.8894,0.0,-4.0744,-4.0383,-4.2353,-4.3754,-4.4503,-4.5252,-4.6211,-4.7354,-4.8715,-4.9733,-5.0466,-5.099,-5.1214,-5.1214,-5.1214,-5.1214,-5.1214,-5.1214,-5.1214,-5.1214,-5.1214,-5.1214,-5.1214,-3.3557,0.0,-3.4892,0.0,-3.6765,-3.7228,-3.8118,-3.8695,-3.9104,-3.926,-3.9284,-3.9582,-4.0428,-4.0544,-4.0771,-4.1303,-4.1546,-4.171,-4.1764,-4.1668,-4.158,-4.158,-4.1053,0.0,-4.0513,-4.0136,-3.9459,-3.8504,-3.7776,0.0,0.0,0.0,0.0,0.0,-3.7663,-3.8191,-3.8555,-3.9358,-3.9697,-3.9697,-3.9697,-3.9697,-3.9697,-3.9697,-3.9697,-3.9697,-3.9697,-3.9697,-3.9722,-3.9885,-3.9936,-3.9936,-3.9936,-4.0312,-4.0764,-4.0764,-4.0974,-4.1288,-4.1288,-4.1,-4.0727,-4.0563,-4.0224,-3.9885,-3.9735,-3.9697,-3.9697,-3.9697,-3.9697,-3.9697,-3.9697,-3.9436,-3.9294,-3.9662,0.0,0.0,0.0,-3.9697,0.0,-3.9471,-3.8956,-3.853,-3.8278,-3.7262,0.0,0.0,0.0,0.0,0.0,0.0,0.0,0.0,0.0,0.0,-3.9893,-4.1722,-4.304,-4.3929,-4.4886,-4.6032,-4.7354,-4.8715,-4.9987,-5.1214,-5.1214,-5.1214,-5.1214,-5.1214,-5.1214,-5.1214,-5.1214,-5.1214,-5.1214,-5.1214,-5.1214,-5.1214,-3.4132,-3.5631,-3.7011,-3.7813,-3.8419,-3.8791,-3.8803,-3.926,-3.9789,-4.0306,-4.0379,-4.0479,-4.0736,-4.0792,-4.1235,-4.2394,-4.25,-4.2613,-4.2961,-4.2502,-4.22,0.0,0.0,-4.1025,-4.0526,-4.0513,-4.0237,-3.9672,0.0,0.0,-3.7136,0.0,-3.6373,-3.799,-3.8002,-3.863,-3.9672,-3.9685,-3.9697,-3.9697,-3.9697,-3.9697,-3.9697,-3.9697,-3.9697,-3.9697,-3.9697,-3.9697,-3.9772,-4.0325,-4.0513,-4.0513,-4.0513,-4.0837,-4.1275,-4.1275,-4.1275,-4.1288,-4.1288,-4.1275,-4.115,-4.0651,-4.0513,-4.0362,-3.9823,-3.9697,-3.9697,-3.9697,-3.9697,-3.9697,-3.9697,-3.9685,-3.9672,-3.9697,0.0,0.0,0.0,-3.9697,0.0,-3.8994,-3.8366,-3.8241,-3.8856,-3.7839,0.0,0.0,0.0,0.0,0.0,0.0,0.0,-3.8919,-3.8932,0.0,-3.9297,-4.0134,-4.168,-4.3882,-4.4191,-4.5386,-4.7354,-4.8715,-4.9987,-5.1214,-5.1214,-5.1214,-5.1214,-5.1214,-5.1214,-5.1214,-5.1214,-5.1214,-5.1214,-5.1214,-5.1214,-5.1214,-3.5565,-3.6996,-3.8239,-3.8515,-3.8996,-3.9357,-3.9357,-3.9801,-4.021,-4.0379,-4.0715,-4.0989,-4.1091,-4.125,-4.1468,0.0,-4.2287,-4.2525,0.0,-4.2699,-4.2778,-4.2778,-4.2183,-4.1643,-4.1037,-4.0714,-4.0249,-3.9697,0.0,0.0,0.0,-3.7977,-3.8291,-3.9157,-3.9157,-3.9358,-3.9697,-3.9697,-3.9697,-3.9697,-3.9697,-3.9697,-3.9697,-3.9697,-3.9697,-3.9697,-3.9697,-3.9936,-4.0275,-4.0463,-4.1015,-4.163,-4.163,-4.1756,-4.1894,-4.1894,-4.2158,-4.2459,-4.2459,-4.2183,-4.1856,-4.1681,-4.1065,-4.0475,-4.0287,-3.9961,-3.9697,-3.9697,-3.9697,-3.9697,-3.9697,-3.9697,-3.9697,-3.9697,-3.9697,0.0,-3.9697,0.0,-3.9634,-3.9459,-3.927,-3.9233,-3.9421,-3.8768,0.0,0.0,0.0,0.0,0.0,0.0,0.0,0.0,-3.9233,0.0,-3.9587,-4.0173,-4.1531,-4.3646,-4.4097,-4.5832,-4.87,-4.912,-4.9987,-5.1214,-5.1214,-5.1214,-5.1214,-5.1214,-5.1214,-5.1214,-5.1214,-5.1214,-5.1214,-5.1214,-5.1214,-5.1214,-3.569,-3.7058,-3.8197,-3.8343,-3.9205,-3.973,-3.9247,-4.0048,-4.0691,-4.0691,-4.098,-4.1184,-4.1184,-4.1344,0.0,-4.1606,-4.1948,-4.2243,-4.2369,-4.2638,-4.2806,-4.2806,-4.2592,-4.2208,-4.1656,-4.1116,0.0,-4.0011,-3.9446,-3.9182,-3.9182,-3.9182,-3.9371,-3.9697,-3.9697,-3.9697,-3.9697,-3.9697,-3.9697,-3.9697,-3.9697,-3.9697,-3.9697,-3.9697,-3.9697,-3.9722,-3.9936,-4.0224,-4.0576,-4.099,-4.158,-4.225,-4.2451,-4.2527,-4.2527,-4.2527,-4.2766,-4.2974,-4.2974,-4.2778,-4.2426,-4.1957,-4.1329,-4.0714,-4.03,-3.9936,-3.9697,-3.9697,-3.9697,-3.9697,-3.9697,-3.9697,-3.9697,-3.9697,-3.9697,-3.9697,-3.9697,0.0,-3.9622,0.0,0.0,0.0,0.0,-3.9082,-3.9007,0.0,0.0,0.0,0.0,0.0,-3.932,-3.9182,-3.9521,-3.9697,-3.9697,-4.0529,-4.1568,-4.293,-4.4238,-4.6232,-4.874,-4.9119,-4.9987,-5.1214,-5.1214,-5.1214,-5.1214,-5.1214,-5.1214,-5.1214,-5.1214,-5.1214,-5.1214,-5.1214,-5.1214,-5.1214,-3.4897,-3.6263,-3.7242,0.0,-3.9278,-4.0019,-3.8643,-4.0021,-4.1184,-4.1184,-4.1184,-4.1184,-4.1184,-4.1184,-4.1287,-4.1549,0.0,0.0,-4.2041,-4.2312,-4.2469,-4.2469,-4.2806,-4.271,-4.217,-4.1564,-4.1,-4.041,-3.9948,-3.9697,-3.9697,-3.9697,-3.9697,-3.9697,-3.9697,-3.9697,-3.9697,-3.9697,-3.9697,-3.9697,-3.9697,-3.9697,-3.9697,-3.9697,-3.9697,-3.9772,-4.0325,-4.0538,-4.0739,-4.1848,-4.2238,-4.2351,-4.2811,-4.2974,-4.2974,-4.2974,-4.2974,-4.2974,-4.2974,-4.2974,-4.2723,-4.1668,-4.1288,-4.0949,-3.9936,-3.9697,-3.9697,-3.9697,-3.9697,-3.9697,-3.9697,-3.9697,-3.9697,-3.9697,-3.9697,-3.9697,-3.9697,-3.9697,-3.9496,0.0,0.0,0.0,-3.8982,-3.8982,-3.9132,0.0,0.0,0.0,0.0,0.0,-3.9132,-3.9672,-3.9697,-3.9697,-3.9697,-4.0882,-4.1654,-4.2084,-4.4595,-4.6507,-4.7817,-4.8831,-4.9987,-5.1214,-5.1214,-5.1214,-5.1214,-5.1214,-5.1214,-5.1214,-5.1214,-5.1214,-5.1214,-5.1214,-5.1214,-5.1214,0.0,0.0,-3.8103,-3.8217,-3.974,-4.0566,-3.9231,-4.0245,-4.1184,-4.1184,-4.1184,-4.1184,-4.1184,-4.1184,-4.1242,-4.1287,-4.1504,-4.1606,-4.172,-4.2029,-4.2211,-4.2211,-4.2481,-4.2376,-4.1828,-4.128,-4.0533,-3.9561,-3.9644,-3.9697,-3.9697,-3.9697,-3.9697,-3.9697,-3.9697,-3.9697,-3.9697,-3.9697,-3.9697,-3.9697,-3.9697,-3.9697,-3.9697,-3.9697,-3.9697,-3.9772,-4.0325,-4.0736,-4.1188,-4.1919,-4.2489,-4.2798,-4.2936,-4.2974,-4.2974,-4.2974,-4.2974,-4.2974,-4.2974,-4.2974,-4.2811,-4.2133,-4.1329,-4.0538,-3.9848,-3.9697,-3.9697,-3.9697,-3.9697,-3.9697,-3.9697,-3.9697,-3.9697,-3.9697,-3.9697,-3.9697,-3.9697,-3.9697,-3.9647,0.0,-3.9496,-3.9496,-3.9496,-3.9496,-3.9383,0.0,0.0,0.0,-3.9069,-3.8994,-3.9132,-3.9672,-3.9697,-3.9697,-3.9697,-4.0224,-4.1095,-4.2341,-4.4702,-4.6507,-4.7817,-4.8831,-4.9987,-5.1214,-5.1214,-5.1214,-5.1214,-5.1214,-5.1214,-5.1214,-5.1214,-5.1214,-5.1214,-5.1214,-5.1214,-5.1214,-3.5001,-3.6048,-3.6772,-3.6991,-3.8337,-3.8992,-3.7659,-3.9051,-4.0257,-4.0257,-4.0815,-4.1184,-4.1184,-4.1184,-4.1184,-4.1184,-4.1344,-4.1447,-4.1447,-4.1688,-4.1859,-4.1859,-4.2142,-4.2176,-4.188,-4.1489,-4.079,-3.9852,-3.9758,-3.9697,-3.9697,-3.9697,-3.9697,-3.9697,-3.9697,-3.9697,-3.9697,-3.9697,-3.9697,-3.9697,-3.9697,-3.9697,-3.9697,-3.9697,-3.9697,-3.9798,-4.0614,-4.1025,-4.1413,-4.2258,-4.2791,-4.2974,-4.2974,-4.2974,-4.2974,-4.2974,-4.2974,-4.2974,-4.2974,-4.2798,-4.2464,-4.1605,-4.0764,-4.0061,-3.976,-3.9697,-3.9697,-3.9697,-3.9697,-3.9697,-3.9697,-3.9697,-3.9697,-3.9697,-3.9484,-3.9408,-3.9659,-3.9484,-3.9421,-3.9659,-3.9697,-3.9697,-3.9697,-3.9697,-3.9572,-3.927,-3.9245,0.0,-3.9245,-3.9245,-3.9383,-3.9685,-3.9697,-3.9697,-3.9697,-3.9981,-4.0756,-4.2061,-4.3807,-4.5164,-4.6201,-4.8141,-4.9516,-5.0522,-5.0979,-5.1214,-5.1214,-5.1214,-5.1214,-5.1214,-5.1214,-5.1214,-5.1214,-5.1214,-5.1214,-5.1214,-3.4461,-3.4797,-3.491,-3.5304,-3.646,-3.6874,-3.5623,-3.7418,-3.8921,-3.8921,-3.9896,-4.0687,-4.0872,-4.0884,-4.1,-4.1184,-4.1184,-4.1184,-4.1184,-4.139,-4.1549,-4.1549,-4.1859,-4.2041,-4.2041,-4.1694,-4.1059,-4.0177,-3.9819,-3.9645,-3.9633,-3.9685,-3.9697,-3.9697,-3.9697,-3.9697,-3.9697,-3.9697,-3.9697,-3.9697,-3.9697,-3.9697,-3.9697,-3.9697,-3.9697,-3.9823,-4.0852,-4.1213,-4.1438,-4.2509,-4.2911,-4.2974,-4.2974,-4.2974,-4.2974,-4.2974,-4.2924,-4.2848,-4.2848,-4.2439,-4.1735,-4.0752,-4.0111,-3.9697,-3.9697,-3.9697,-3.9697,-3.9697,-3.9697,-3.9697,-3.9697,-3.9697,-3.9672,-3.9584,-3.9245,-3.9132,-3.9521,0.0,-3.917,-3.9634,-3.9697,-3.9697,-3.9697,-3.9697,-3.9697,-3.9697,-3.9697,-3.9697,-3.9697,-3.9697,-3.9697,-3.9697,-3.9697,-3.9697,-3.9697,-3.9981,-4.0542,-4.15,-4.2688,-4.3577,-4.435,-4.7241,-4.8938,-4.9611,-5.0713,-5.1214,-5.1214,-5.1214,-5.1214,-5.1214,-5.1214,-5.1214,-5.1214,-5.1214,-5.1214,-5.1214,-3.4944,-3.5273,-3.5293,-3.5366,-3.646,-3.6874,-3.5623,-3.6642,-3.7599,-3.7599,-3.779,-3.8328,-3.9404,-3.9533,-3.9954,-4.1115,-4.1184,-4.1184,-4.1184,-4.1242,-4.123,-4.123,-4.1504,-4.1663,-4.1663,-4.1059,-4.007,-3.8753,-3.9139,-3.9362,-3.9374,-3.9581,-3.9697,-3.9697,-3.9697,-3.9697,-3.9697,-3.9697,-3.9697,-3.9697,-3.9697,-3.9697,-3.9697,-3.9697,-3.9697,-3.9772,-4.0413,-4.094,-4.1376,-4.207,-4.2652,-4.2974,-4.2974,-4.2974,-4.2974,-4.2974,-4.2703,-4.2338,-4.2338,-4.1543,-4.0727,-4.0563,-4.0111,-3.9697,-3.9697,-3.9697,-3.9697,-3.9697,-3.9697,-3.9697,-3.9697,-3.9697,-3.9534,-3.9082,-3.932,-3.9433,-3.9108,0.0,-3.9597,-3.9685,-3.9697,-3.9697,-3.9697,-3.9697,-3.9697,-3.9697,-3.9697,-3.9697,-3.9697,-3.9697,-3.9697,-3.9697,-3.9697,-3.9697,-3.9697,-3.9981,-4.0414,-4.1015,-4.2284,-4.3475,-4.4605,-4.7116,-4.8619,-4.9323,-5.065,-5.1214,-5.1214,-5.1214,-5.1214,-5.1214,-5.1214,-5.1214,-5.1214,-5.1214,-5.1214,-5.1214,-3.4175,-3.434,-3.434,-3.434,-3.4819,-3.5005,-3.4393,-3.5428,-3.6276,-3.6276,-3.6874,-3.7539,-3.8138,-3.8197,-3.8684,-4.0024,-4.0141,-4.0443,-4.1127,-4.1184,-4.1184,-4.1184,-4.1344,-4.1314,-4.1181,-4.0525,-3.9866,-3.9083,-3.9041,-3.905,-3.905,-3.9322,-3.9478,-3.9478,-3.9645,-3.9697,-3.9697,-3.9697,-3.9697,-3.9697,-3.9697,-3.9697,-3.9697,-3.9697,-3.9697,-3.9772,-4.0325,-4.0676,-4.0978,-4.153,-4.1882,-4.2095,-4.2095,-4.2095,-4.2095,-4.2095,-4.212,-4.2087,-4.143,-4.0902,-4.0438,-4.0149,-3.9885,-3.9697,-3.9697,-3.9697,-3.9697,-3.9697,-3.9697,-3.9697,-3.9697,-3.9697,-3.9609,-3.9358,-3.9283,-3.927,-3.9308,-3.9283,-3.9371,-3.9659,-3.9697,-3.9697,-3.9697,-3.9697,-3.9697,-3.9697,-3.9697,-3.9697,-3.9697,-3.9697,-3.9697,-3.9697,-3.9697,-3.9697,-3.9697,-3.9839,-4.0156,-4.0711,-4.1762,-4.2696,-4.362,-4.5904,-4.7114,-4.7531,-4.9499,-5.0316,-5.0364,-5.0964,-5.1214,-5.1214,-5.1214,-5.1214,-5.1214,-5.1214,-5.1214,-5.1214,-3.3418,-3.3418,-3.3418,-3.3418,-3.3418,-3.3418,-3.3418,-3.4278,-3.4953,-3.4953,-3.5797,-3.651,-3.6814,-3.6874,-3.7358,-3.8625,-3.8744,-3.9345,-4.0629,-4.0757,-4.0872,-4.1184,-4.1064,-4.0853,-4.0534,-3.9989,-3.9576,-3.932,-3.8892,-3.8736,-3.8736,-3.9102,-3.931,-3.931,-3.9581,-3.9697,-3.9697,-3.9697,-3.9697,-3.9697,-3.9697,-3.9697,-3.9697,-3.9697,-3.9697,-3.9747,-4.0174,-4.0413,-4.0576,-4.1003,-4.1175,-4.1288,-4.1288,-4.1288,-4.1288,-4.1288,-4.1543,-4.158,-4.0752,-4.0425,-4.0224,-3.9798,-3.9697,-3.9697,-3.9697,-3.9697,-3.9697,-3.9697,-3.9697,-3.9697,-3.9697,-3.9697,-3.9647,-3.9521,0.0,-3.917,-3.9459,-3.9245,-3.922,-3.9647,-3.9697,-3.9697,-3.9697,-3.9697,-3.9697,-3.9697,-3.9697,-3.9697,-3.9697,-3.9697,-3.9697,-3.9697,-3.9697,-3.9697,-3.9697,-3.9823,-4.0162,-4.0714,-4.1493,-4.2144,-4.2755,-4.477,-4.5701,-4.5807,-4.8066,-4.919,-4.9547,-5.0412,-5.0855,-5.112,-5.112,-5.112,-5.112,-5.112,-5.1167,-5.1214,-3.3418,-3.3418,-3.3418,-3.3418,-3.3418,-3.3418,-3.3418,-3.3481,-3.3544,-3.3544,-3.3607,-3.4153,-3.5376,-3.5561,-3.6032,-3.7298,-3.7418,-3.7958,-3.9287,-3.9345,-3.9896,-4.1127,-4.0715,-4.021,-3.9669,-3.914,-3.8653,-3.8152,-3.8327,-3.8409,-3.8461,-3.905,-3.931,-3.931,-3.9581,-3.9697,-3.9697,-3.9697,-3.9697,-3.9697,-3.9697,-3.9697,-3.9697,-3.9697,-3.9697,-3.9697,-3.9735,-4.0086,-4.0526,-4.0563,-4.0862,-4.1288,-4.1288,-4.1288,-4.1288,-4.1288,-4.1003,-4.0626,-4.0538,-4.0149,-3.9747,-3.9697,-3.9697,-3.9697,-3.9697,-3.9697,-3.9697,-3.9697,-3.9697,-3.9697,-3.9697,-3.9697,-3.9534,-3.9057,0.0,0.0,-3.9045,-3.9333,-3.9647,-3.9685,-3.9697,-3.9697,-3.9697,-3.9697,-3.9697,-3.9697,-3.9697,-3.9697,-3.9697,-3.9697,-3.9697,-3.9697,-3.9697,-3.9697,-3.9697,-4.0199,-4.0727,-4.1225,-4.1886,-4.2439,-4.3022,-4.4414,-4.5048,-4.5155,-4.6643,-4.8024,-4.9259,-4.9308,-4.9936,-5.0807,-5.0807,-5.0807,-5.0807,-5.0807,-5.1011,-5.1214,-3.3418,-3.3418,-3.3418,-3.3418,-3.3418,-3.3418,-3.3418,-3.3418,-3.3418,-3.3418,-3.3418,-3.3597,-3.409,-3.4153,-3.5005,-3.7116,-3.7298,-3.7839,-3.911,-3.9216,-3.964,-4.0646,-4.0499,-3.9994,-3.9128,-3.8924,-3.8551,-3.7986,-3.8092,-3.8145,-3.8145,-3.8579,-3.8841,-3.8998,-3.931,-3.953,-3.9697,-3.9697,-3.9697,-3.9697,-3.9697,-3.9697,-3.9697,-3.9697,-3.9697,-3.9697,-3.9697,-3.9823,-4.0011,-4.0011,-4.0149,-4.0325,-4.0325,-4.0325,-4.0325,-4.0325,-4.0174,-4.0011,-4.0011,-3.9848,-3.9697,-3.9697,-3.9697,-3.9697,-3.9697,-3.9697,-3.9697,-3.9697,-3.9697,-3.9697,-3.9697,-3.9697,-3.9622,-3.9421,0.0,-3.9622,-3.9408,-3.9559,-3.9697,-3.9697,-3.9697,-3.9697,-3.9697,-3.9697,-3.9697,-3.9697,-3.9697,-3.9697,-3.9697,-3.9697,-3.9697,-3.9697,-4.0023,-4.0212,-4.0212,-4.0413,-4.0965,-4.1844,-4.2112,-4.2502,-4.303,-4.37,-4.4016,-4.4071,-4.5475,-4.641,-4.6981,-4.7619,-4.8125,-4.8489,-4.8489,-4.8915,-4.9547,-4.9547,-5.0158,-5.0964,-3.3418,-3.3418,-3.3418,-3.3418,-3.3418,-3.3418,-3.3418,-3.3418,-3.3418,-3.3418,-3.3418,-3.3418,-3.3418,-3.3418,-3.4153,-3.5909,-3.6093,-3.6631,-3.7899,-3.8241,-3.8849,-3.9744,-3.9481,-3.9149,-3.8839,-3.8647,-3.8371,-3.7986,-3.7986,-3.7986,-3.7986,-3.825,-3.8526,-3.8684,-3.8998,-3.931,-3.9581,-3.9581,-3.9633,-3.9697,-3.9697,-3.9697,-3.9697,-3.9697,-3.9697,-3.9697,-3.9697,-3.9697,-3.9697,-3.9697,-3.9697,-3.9697,-3.9697,-3.9697,-3.9697,-3.9697,-3.9697,-3.9697,-3.9697,-3.9697,-3.9697,-3.9697,-3.9697,-3.9697,-3.9697,-3.9697,-3.9697,-3.9697,-3.9697,-3.9697,-3.9697,-3.9697,-3.9697,-3.9697,-3.9697,-3.9697,-3.9697,-3.9697,-3.9697,-3.9697,-3.9697,-3.9697,-3.9697,-3.9697,-3.9697,-3.9697,-3.9697,-3.9697,-3.9697,-3.986,-3.9948,-3.9948,-4.0488,-4.0852,-4.1028,-4.1028,-4.1417,-4.2213,-4.2389,-4.2665,-4.303,-4.3184,-4.3295,-4.3338,-4.4289,-4.4967,-4.5382,-4.6135,-4.6643,-4.6967,-4.6967,-4.7429,-4.8167,-4.8117,-4.8781,-4.9616,-3.3418,-3.3418,-3.3418,-3.3418,-3.3418,-3.3418,-3.3418,-3.3418,-3.3418,-3.3418,-3.3418,-3.3418,-3.3418,-3.3418,-3.3418,-3.3418,-3.3418,-3.3975,-3.5314,-3.6202,-3.7177,-3.8285,-3.7517,-3.7554,-3.8749,-3.8262,-3.7986,-3.7986,-3.7986,-3.7986,-3.7986,-3.825,-3.8409,-3.8409,-3.8684,-3.8998,-3.931,-3.931,-3.9426,-3.9697,-3.9697,-3.9697,-3.9697,-3.9697,-3.9697,-3.9697,-3.9697,-3.9697,-3.9697,-3.9697,-3.9697,-3.9697,-3.9697,-3.9697,-3.9697,-3.9697,-3.9697,-3.9697,-3.9697,-3.9697,-3.9697,-3.9697,-3.9697,-3.9697,-3.9697,-3.9697,-3.9697,-3.9697,-3.9697,-3.9697,-3.9697,-3.9697,-3.9697,-3.9697,-3.9697,-3.9697,-3.9697,-3.9697,-3.9697,-3.9697,-3.9697,-3.9697,-3.9697,-3.9697,-3.9697,-3.9697,-3.9697,-3.9697,-3.9697,-4.0224,-4.0513,-4.0526,-4.1012,-4.1605,-4.22,-4.2213,-4.2213,-4.2225,-4.2778,-4.2974,-4.2974,-4.2974,-4.2974,-4.2974,-4.2974,-4.3755,-4.4994,-4.4994,-4.5635,-4.6684,-4.6684,-4.6671,-4.6695,-4.6671,-4.6878,-4.7094,-3.3418,-3.3418,-3.3418,-3.3418,-3.3418,-3.3418,-3.3418,-3.3418,-3.3418,-3.3418,-3.3418,-3.3418,-3.3418,-3.3418,-3.3786,-3.4704,-3.4829,-3.481,-3.491,-3.3767,-3.3574,-3.4784,-3.6229,-3.6994,-3.6975,-3.7631,-3.7986,-3.7986,-3.7986,-3.7986,-3.7986,-3.8092,-3.8198,-3.8409,-3.8461,-3.8684,-3.8945,-3.8945,-3.9102,-3.9426,-3.9426,-3.953,-3.9697,-3.9697,-3.9697,-3.9697,-3.9697,-3.9697,-3.9697,-3.9697,-3.9697,-3.9697,-3.9697,-3.9697,-3.9697,-3.9697,-3.9697,-3.9697,-3.9697,-3.9697,-3.9697,-3.9697,-3.9697,-3.9697,-3.9697,-3.9697,-3.9697,-3.9697,-3.9697,-3.9697,-3.9697,-3.9697,-3.9697,-3.9697,-3.9697,-3.9697,-3.9697,-3.9697,-3.9697,-3.9697,-3.9697,-3.9697,-3.9697,-3.9697,-3.9697,-3.9697,-3.9697,-3.986,-4.0249,-4.0425,-4.0701,-4.1025,-4.163,-4.2049,-4.2213,-4.2213,-4.2401,-4.2791,-4.2898,-4.2974,-4.2974,-4.2974,-4.2974,-4.2974,-4.2974,-4.324,-4.3602,-4.3602,-4.381,-4.4071,-4.4071,-4.4602,-4.5289,-4.5302,-4.6084,-4.7163,-3.3418,-3.3418,-3.3418,-3.3418,-3.3418,-3.3418,-3.3418,-3.3418,-3.3418,-3.3418,-3.3418,-3.3418,-3.3418,-3.3418,-3.3733,-3.4518,-3.449,-3.4115,-3.3497,-3.2207,-3.1722,-3.2355,-3.4272,-3.5602,-3.6188,-3.7376,-3.7986,-3.7986,-3.7986,-3.7986,-3.7986,-3.7986,-3.8092,-3.825,-3.825,-3.8409,-3.8631,-3.8631,-3.8841,-3.9102,-3.9102,-3.927,-3.953,-3.953,-3.9594,-3.9697,-3.9697,-3.9697,-3.9697,-3.9697,-3.9697,-3.9697,-3.9697,-3.9697,-3.9697,-3.9697,-3.9697,-3.9697,-3.9697,-3.9697,-3.9697,-3.9697,-3.9697,-3.9697,-3.9697,-3.9697,-3.9697,-3.9697,-3.9697,-3.9697,-3.9697,-3.9697,-3.9697,-3.9697,-3.9697,-3.9697,-3.9697,-3.9697,-3.9697,-3.9697,-3.9697,-3.9697,-3.9697,-3.9697,-3.9697,-3.9697,-3.9898,-4.0162,-4.0501,-4.0927,-4.1317,-4.1656,-4.2195,-4.2539,-4.2539,-4.2539,-4.2703,-4.2974,-4.2974,-4.2974,-4.2974,-4.2974,-4.2974,-4.2974,-4.2974,-4.2974,-4.2974,-4.2974,-4.2974,-4.2974,-4.2974,-4.3406,-4.4042,-4.4042,-4.467,-4.5569,-3.3418,-3.3418,-3.3418,-3.3418,-3.3418,-3.3418,-3.3418,-3.3418,-3.3418,-3.3418,-3.3418,-3.3418,-3.3418,-3.3418,-3.3408,-3.3369,-3.2949,-3.2353,-3.1572,-3.1484,-3.1289,-3.0908,-3.2076,-3.3685,-3.585,-3.7054,-3.7708,-3.7814,-3.7814,-3.7868,-3.7986,-3.7986,-3.7986,-3.7986,-3.7986,-3.8145,-3.8356,-3.8356,-3.8514,-3.8736,-3.8736,-3.8945,-3.927,-3.927,-3.9426,-3.9645,-3.9645,-3.9697,-3.9697,-3.9697,-3.9697,-3.9697,-3.9697,-3.9697,-3.9697,-3.9697,-3.9697,-3.9697,-3.9697,-3.9697,-3.9697,-3.9697,-3.9697,-3.9697,-3.9697,-3.9697,-3.9697,-3.9697,-3.9697,-3.9697,-3.9697,-3.9697,-3.9697,-3.9697,-3.9697,-3.9697,-3.9697,-3.9697,-3.9697,-3.9697,-3.9697,-3.9697,-3.9697,-3.9735,-3.9772,-3.9772,-4.0275,-4.0614,-4.0664,-4.1618,-4.2238,-4.2288,-4.2778,-4.2974,-4.2974,-4.2974,-4.2974,-4.2974,-4.2974,-4.2974,-4.2974,-4.2974,-4.2974,-4.2974,-4.2974,-4.2974,-4.2974,-4.2974,-4.2974,-4.2974,-4.2974,-4.2974,-4.2974,-4.2974,-4.303,-4.303,-3.3418,-3.3418,-3.3418,-3.3418,-3.3418,-3.3418,-3.3418,-3.3418,-3.3418,-3.3418,-3.3418,-3.3418,-3.3418,-3.3418,-3.3291,-3.2959,-3.2236,-3.1719,-3.1533,-3.1211,-3.0986,-3.0898,-3.2076,-3.297,-3.347,-3.4614,-3.5663,-3.6569,-3.6569,-3.7054,-3.7986,-3.7986,-3.7986,-3.7986,-3.7986,-3.8039,-3.8092,-3.8092,-3.825,-3.8461,-3.8461,-3.8684,-3.8893,-3.8893,-3.9114,-3.9374,-3.9374,-3.953,-3.9697,-3.9697,-3.9697,-3.9697,-3.9697,-3.9697,-3.9697,-3.9697,-3.9697,-3.9697,-3.9697,-3.9697,-3.9697,-3.9697,-3.9697,-3.9697,-3.9697,-3.9697,-3.9697,-3.9697,-3.9697,-3.9697,-3.9697,-3.9697,-3.9697,-3.9697,-3.9697,-3.9697,-3.9697,-3.9697,-3.9697,-3.9697,-3.9697,-3.9697,-3.9697,-4.0086,-4.0337,-4.0337,-4.0852,-4.1342,-4.1835,-4.2087,-4.2401,-4.2785,-4.2911,-4.2974,-4.2974,-4.2974,-4.2974,-4.2974,-4.2974,-4.2974,-4.2974,-4.2974,-4.2974,-4.2974,-4.2974,-4.2974,-4.2974,-4.2974,-4.2974,-4.2974,-4.2974,-4.2974,-4.2974,-4.2974,-4.3129,-4.3351,-3.3379,-3.3418,-3.3418,-3.3418,-3.3418,-3.3418,-3.3418,-3.3418,-3.3418,-3.3418,-3.3418,-3.3418,-3.3418,-3.3242,-3.2871,-3.2246,-3.1777,-3.1435,-3.123,-3.1016,-3.0889,-3.0889,-3.1508,-3.1845,-3.1845,-3.2457,-3.3618,-3.5344,-3.5344,-3.5663,-3.6263,-3.6263,-3.6263,-3.6263,-3.6263,-3.6263,-3.6329,-3.6881,-3.7215,-3.7376,-3.7974,-3.8356,-3.8631,-3.8631,-3.8788,-3.9102,-3.9258,-3.9478,-3.9697,-3.9697,-3.9697,-3.9697,-3.9697,-3.9697,-3.9697,-3.9697,-3.9697,-3.9697,-3.9697,-3.9697,-3.9697,-3.9697,-3.9697,-3.9697,-3.9697,-3.9697,-3.9697,-3.9697,-3.9697,-3.9697,-3.9697,-3.9697,-3.9697,-3.9697,-3.9697,-3.9697,-3.9697,-3.9697,-3.9697,-3.9697,-3.9697,-3.9798,-4.0061,-4.0588,-4.0862,-4.0862,-4.1417,-4.1856,-4.2187,-4.2451,-4.274,-4.2974,-4.2974,-4.2974,-4.2974,-4.2974,-4.2974,-4.2974,-4.2974,-4.2974,-4.2974,-4.2974,-4.2974,-4.2974,-4.2974,-4.2974,-4.2974,-4.2974,-4.2974,-4.2974,-4.2974,-4.2974,-4.2974,-4.2974,-4.3085,-4.324,-3.3242,-3.3369,-3.3418,-3.3418,-3.3418,-3.3418,-3.3418,-3.3418,-3.3418,-3.3418,-3.3418,-3.3389,-3.332,-3.2871,-3.2295,-3.1582,-3.1455,-3.126,-3.0918,-3.0889,-3.0889,-3.0889,-3.0889,-3.0889,-3.0889,-3.0889,-3.195,-3.4123,-3.4123,-3.4224,-3.4391,-3.4391,-3.4391,-3.4391,-3.4391,-3.4391,-3.4447,-3.5454,-3.5904,-3.6013,-3.7215,-3.7814,-3.8039,-3.825,-3.8526,-3.8788,-3.905,-3.9374,-3.9645,-3.9685,-3.9697,-3.9697,-3.9697,-3.9697,-3.9697,-3.9697,-3.9697,-3.9697,-3.9697,-3.9697,-3.9697,-3.9697,-3.9697,-3.9697,-3.9697,-3.9697,-3.9697,-3.9697,-3.9697,-3.9697,-3.9697,-3.9697,-3.9697,-3.9697,-3.9697,-3.9697,-3.9697,-3.9697,-3.9722,-3.9823,-3.9923,-4.0162,-4.0614,-4.1153,-4.148,-4.148,-4.1982,-4.2351,-4.2351,-4.2791,-4.2974,-4.2974,-4.2974,-4.2974,-4.2974,-4.2974,-4.2974,-4.2974,-4.2974,-4.2974,-4.2974,-4.2974,-4.2974,-4.2974,-4.2974,-4.2974,-4.2974,-4.2974,-4.2974,-4.2974,-4.2974,-4.2974,-4.2974,-4.2974,-4.2974,-4.303,-3.2871,-3.3174,-3.3418,-3.3418,-3.3418,-3.3418,-3.3418,-3.3418,-3.3418,-3.3418,-3.3418,-3.3281,-3.292,-3.2168,-3.1641,-3.1533,-3.1182,-3.0957,-3.0898,-3.0889,-3.0889,-3.0889,-3.0889,-3.0889,-3.0889,-3.0889,-3.1566,-3.2903,-3.2903,-3.3459,-3.4391,-3.4391,-3.4391,-3.4391,-3.4391,-3.4391,-3.4391,-3.4558,-3.4614,-3.4725,-3.5947,-3.646,-3.6611,-3.7655,-3.8198,-3.8461,-3.8526,-3.8893,-3.9374,-3.9633,-3.9697,-3.9697,-3.9697,-3.9697,-3.9697,-3.9697,-3.9697,-3.9697,-3.9697,-3.9697,-3.9697,-3.9697,-3.9697,-3.9697,-3.9697,-3.9697,-3.9697,-3.9697,-3.9697,-3.9697,-3.9697,-3.9697,-3.9697,-3.9697,-3.9697,-3.9697,-3.9697,-3.9697,-3.9873,-4.035,-4.0774,-4.11,-4.1163,-4.1718,-4.2099,-4.2099,-4.2547,-4.2861,-4.2861,-4.2936,-4.2974,-4.2974,-4.2974,-4.2974,-4.2974,-4.2974,-4.2974,-4.2974,-4.2974,-4.2974,-4.2974,-4.2974,-4.2974,-4.2974,-4.2974,-4.2974,-4.2974,-4.2974,-4.2974,-4.2974,-4.2974,-4.2974,-4.2974,-4.2974,-4.2974,-4.303,-3.2147,-3.2659,-3.3076,-3.3076,-3.3271,-3.3418,-3.3418,-3.3418,-3.3418,-3.3418,-3.3213,-3.2998,-3.2822,-3.2031,-3.1426,-3.1182,-3.0996,-3.0889,-3.0889,-3.0889,-3.0889,-3.0889,-3.0889,-3.0889,-3.0889,-3.0889,-3.117,-3.1672,-3.1672,-3.195,-3.2446,-3.2446,-3.2446,-3.2446,-3.2446,-3.2446,-3.2504,-3.3176,-3.3459,-3.3572,-3.4725,-3.5168,-3.5223,-3.5772,-3.6045,-3.6263,-3.7084,-3.7779,-3.8425,-3.9193,-3.9581,-3.9697,-3.9697,-3.9697,-3.9697,-3.9697,-3.9697,-3.9697,-3.9697,-3.9697,-3.9697,-3.9697,-3.9697,-3.9772,-4.0086,-4.0162,-4.0061,-3.976,-3.9697,-3.9785,-4.0099,-4.0162,-4.0249,-4.0563,-4.0614,-4.0614,-4.0614,-4.0614,-4.0701,-4.094,-4.1455,-4.1794,-4.1794,-4.2283,-4.2678,-4.2678,-4.2891,-4.2974,-4.2974,-4.2974,-4.2974,-4.2974,-4.2974,-4.2974,-4.2974,-4.2974,-4.2974,-4.2974,-4.2974,-4.2974,-4.2974,-4.2974,-4.2974,-4.2974,-4.2974,-4.2974,-4.2974,-4.2974,-4.2974,-4.2974,-4.2974,-4.2974,-4.2974,-4.2974,-4.2974,-4.2974]}]]